<?xml version="1.0" encoding="utf-8"?>
<gpx xmlns:xsi="http://www.w3.org/2001/XMLSchema-instance" xmlns:xsd="http://www.w3.org/2001/XMLSchema" version="1.1" creator="Shapelink.com" xmlns="http://www.topografix.com/GPX/1/1" xmlns:gpxtpx="http://www.garmin.com/xmlschemas/TrackPointExtension/v1">
  <metadata>
    <name>Löpning 5.96 km, 2018-01-15</name>
    <desc></desc>
    <author><name>Bengt-Åke Forslund</name></author> 
    <time>2018-01-15T18:05:28Z</time>
  </metadata>
  <trk>
    <name>Löpning 5.96 km, 2018-01-15</name>
    <trkseg>
      <trkpt lat="62.637324809644" lon="17.966014659715">
        <ele>31.4</ele>
        <time>2018-01-15T18:05:28Z</time>
      </trkpt>
      <trkpt lat="62.637331096069" lon="17.965997895915">
        <ele>31.6</ele>
        <time>2018-01-15T18:05:29Z</time>
      </trkpt>
      <trkpt lat="62.63728658818" lon="17.965996051897">
        <ele>31.6</ele>
        <time>2018-01-15T18:05:30Z</time>
      </trkpt>
      <trkpt lat="62.637285498533" lon="17.965998231191">
        <ele>31.4</ele>
        <time>2018-01-15T18:05:31Z</time>
      </trkpt>
      <trkpt lat="62.637290611492" lon="17.966012396602">
        <ele>31.6</ele>
        <time>2018-01-15T18:05:32Z</time>
      </trkpt>
      <trkpt lat="62.637291365863" lon="17.966029998592">
        <ele>31.6</ele>
        <time>2018-01-15T18:05:33Z</time>
      </trkpt>
      <trkpt lat="62.637288683655" lon="17.966022454882">
        <ele>31.6</ele>
        <time>2018-01-15T18:05:34Z</time>
      </trkpt>
      <trkpt lat="62.637343417462" lon="17.966054389921">
        <ele>31.4</ele>
        <time>2018-01-15T18:05:40Z</time>
      </trkpt>
      <trkpt lat="62.637344255652" lon="17.966059838156">
        <ele>31.2</ele>
        <time>2018-01-15T18:05:41Z</time>
      </trkpt>
      <trkpt lat="62.637336628123" lon="17.966050450428">
        <ele>31.2</ele>
        <time>2018-01-15T18:05:42Z</time>
      </trkpt>
      <trkpt lat="62.637348530421" lon="17.966086157322">
        <ele>30.8</ele>
        <time>2018-01-15T18:05:43Z</time>
      </trkpt>
      <trkpt lat="62.637342998367" lon="17.966064448201">
        <ele>30.8</ele>
        <time>2018-01-15T18:05:44Z</time>
      </trkpt>
      <trkpt lat="62.637321875979" lon="17.966054138464">
        <ele>30.8</ele>
        <time>2018-01-15T18:05:45Z</time>
      </trkpt>
      <trkpt lat="62.637309554586" lon="17.966043409632">
        <ele>31</ele>
        <time>2018-01-15T18:05:46Z</time>
      </trkpt>
      <trkpt lat="62.637294886261" lon="17.966034021904">
        <ele>31</ele>
        <time>2018-01-15T18:05:47Z</time>
      </trkpt>
      <trkpt lat="62.637279798841" lon="17.96601507881">
        <ele>31</ele>
        <time>2018-01-15T18:05:48Z</time>
      </trkpt>
      <trkpt lat="62.637268567095" lon="17.965993537327">
        <ele>31</ele>
        <time>2018-01-15T18:05:49Z</time>
      </trkpt>
      <trkpt lat="62.637259849919" lon="17.965965877057">
        <ele>31.2</ele>
        <time>2018-01-15T18:05:50Z</time>
      </trkpt>
      <trkpt lat="62.637254569322" lon="17.965936372769">
        <ele>31.4</ele>
        <time>2018-01-15T18:05:51Z</time>
      </trkpt>
      <trkpt lat="62.637250378372" lon="17.965905695015">
        <ele>31.4</ele>
        <time>2018-01-15T18:05:52Z</time>
      </trkpt>
      <trkpt lat="62.637247612345" lon="17.965883063885">
        <ele>31.4</ele>
        <time>2018-01-15T18:05:53Z</time>
      </trkpt>
      <trkpt lat="62.637244594861" lon="17.965856577081">
        <ele>31.4</ele>
        <time>2018-01-15T18:05:54Z</time>
      </trkpt>
      <trkpt lat="62.637242331748" lon="17.965826988974">
        <ele>31.4</ele>
        <time>2018-01-15T18:05:55Z</time>
      </trkpt>
      <trkpt lat="62.637238308436" lon="17.965796143582">
        <ele>31.4</ele>
        <time>2018-01-15T18:05:56Z</time>
      </trkpt>
      <trkpt lat="62.637233866029" lon="17.965774183004">
        <ele>31.4</ele>
        <time>2018-01-15T18:05:57Z</time>
      </trkpt>
      <trkpt lat="62.637226573776" lon="17.965743756707">
        <ele>31.2</ele>
        <time>2018-01-15T18:05:58Z</time>
      </trkpt>
      <trkpt lat="62.637219952075" lon="17.965716934627">
        <ele>31.2</ele>
        <time>2018-01-15T18:05:59Z</time>
      </trkpt>
      <trkpt lat="62.637211402537" lon="17.965690196366">
        <ele>31.2</ele>
        <time>2018-01-15T18:06:00Z</time>
      </trkpt>
      <trkpt lat="62.637202098628" lon="17.96566052444">
        <ele>31.2</ele>
        <time>2018-01-15T18:06:01Z</time>
      </trkpt>
      <trkpt lat="62.637194974013" lon="17.965640910794">
        <ele>31.2</ele>
        <time>2018-01-15T18:06:02Z</time>
      </trkpt>
      <trkpt lat="62.637188352312" lon="17.965620794234">
        <ele>31.2</ele>
        <time>2018-01-15T18:06:03Z</time>
      </trkpt>
      <trkpt lat="62.63718181443" lon="17.965600342398">
        <ele>31.4</ele>
        <time>2018-01-15T18:06:04Z</time>
      </trkpt>
      <trkpt lat="62.637173683987" lon="17.965582991865">
        <ele>31.6</ele>
        <time>2018-01-15T18:06:05Z</time>
      </trkpt>
      <trkpt lat="62.637164882992" lon="17.965553487577">
        <ele>31.6</ele>
        <time>2018-01-15T18:06:06Z</time>
      </trkpt>
      <trkpt lat="62.637156920187" lon="17.965527000773">
        <ele>31.8</ele>
        <time>2018-01-15T18:06:07Z</time>
      </trkpt>
      <trkpt lat="62.637148035373" lon="17.965499256684">
        <ele>32</ele>
        <time>2018-01-15T18:06:08Z</time>
      </trkpt>
      <trkpt lat="62.637137977093" lon="17.965462879238">
        <ele>32</ele>
        <time>2018-01-15T18:06:09Z</time>
      </trkpt>
      <trkpt lat="62.637129595193" lon="17.965430525104">
        <ele>32.2</ele>
        <time>2018-01-15T18:06:10Z</time>
      </trkpt>
      <trkpt lat="62.637120123646" lon="17.965394315296">
        <ele>32</ele>
        <time>2018-01-15T18:06:11Z</time>
      </trkpt>
      <trkpt lat="62.637110316823" lon="17.965358356945">
        <ele>32</ele>
        <time>2018-01-15T18:06:12Z</time>
      </trkpt>
      <trkpt lat="62.637099755629" lon="17.96530848464">
        <ele>32</ele>
        <time>2018-01-15T18:06:13Z</time>
      </trkpt>
      <trkpt lat="62.637089948806" lon="17.965269257348">
        <ele>32.2</ele>
        <time>2018-01-15T18:06:14Z</time>
      </trkpt>
      <trkpt lat="62.637080644897" lon="17.965232460807">
        <ele>32.2</ele>
        <time>2018-01-15T18:06:15Z</time>
      </trkpt>
      <trkpt lat="62.637069916065" lon="17.965203124157">
        <ele>32.2</ele>
        <time>2018-01-15T18:06:16Z</time>
      </trkpt>
      <trkpt lat="62.637060109242" lon="17.965173452231">
        <ele>32.4</ele>
        <time>2018-01-15T18:06:17Z</time>
      </trkpt>
      <trkpt lat="62.637050050962" lon="17.965147803617">
        <ele>32.2</ele>
        <time>2018-01-15T18:06:18Z</time>
      </trkpt>
      <trkpt lat="62.637039657406" lon="17.965095500561">
        <ele>32.2</ele>
        <time>2018-01-15T18:06:19Z</time>
      </trkpt>
      <trkpt lat="62.637027671289" lon="17.965051914681">
        <ele>32.2</ele>
        <time>2018-01-15T18:06:20Z</time>
      </trkpt>
      <trkpt lat="62.637015601353" lon="17.965009166991">
        <ele>32.2</ele>
        <time>2018-01-15T18:06:21Z</time>
      </trkpt>
      <trkpt lat="62.637005291616" lon="17.96497153226">
        <ele>32.2</ele>
        <time>2018-01-15T18:06:22Z</time>
      </trkpt>
      <trkpt lat="62.636994981879" lon="17.96493716647">
        <ele>32.4</ele>
        <time>2018-01-15T18:06:23Z</time>
      </trkpt>
      <trkpt lat="62.636981906115" lon="17.964900789024">
        <ele>32.4</ele>
        <time>2018-01-15T18:06:24Z</time>
      </trkpt>
      <trkpt lat="62.636968243618" lon="17.964873296392">
        <ele>32.4</ele>
        <time>2018-01-15T18:06:25Z</time>
      </trkpt>
      <trkpt lat="62.636951731275" lon="17.964834991109">
        <ele>32.6</ele>
        <time>2018-01-15T18:06:26Z</time>
      </trkpt>
      <trkpt lat="62.636936727674" lon="17.96479718874">
        <ele>32.4</ele>
        <time>2018-01-15T18:06:27Z</time>
      </trkpt>
      <trkpt lat="62.636921388797" lon="17.964751842661">
        <ele>31.8</ele>
        <time>2018-01-15T18:06:28Z</time>
      </trkpt>
      <trkpt lat="62.636906804291" lon="17.964712447731">
        <ele>31.4</ele>
        <time>2018-01-15T18:06:29Z</time>
      </trkpt>
      <trkpt lat="62.636891633052" lon="17.96467984214">
        <ele>31.2</ele>
        <time>2018-01-15T18:06:30Z</time>
      </trkpt>
      <trkpt lat="62.636874701614" lon="17.964639106106">
        <ele>30.8</ele>
        <time>2018-01-15T18:06:31Z</time>
      </trkpt>
      <trkpt lat="62.636858776004" lon="17.964601555194">
        <ele>30.2</ele>
        <time>2018-01-15T18:06:32Z</time>
      </trkpt>
      <trkpt lat="62.636842934213" lon="17.964557047305">
        <ele>29.8</ele>
        <time>2018-01-15T18:06:33Z</time>
      </trkpt>
      <trkpt lat="62.636830026087" lon="17.964525363723">
        <ele>29.8</ele>
        <time>2018-01-15T18:06:34Z</time>
      </trkpt>
      <trkpt lat="62.636814435753" lon="17.964488986277">
        <ele>29.4</ele>
        <time>2018-01-15T18:06:35Z</time>
      </trkpt>
      <trkpt lat="62.636796917582" lon="17.964442466732">
        <ele>29.4</ele>
        <time>2018-01-15T18:06:36Z</time>
      </trkpt>
      <trkpt lat="62.636783506542" lon="17.964405502553">
        <ele>29.2</ele>
        <time>2018-01-15T18:06:37Z</time>
      </trkpt>
      <trkpt lat="62.636769257312" lon="17.964364263605">
        <ele>29</ele>
        <time>2018-01-15T18:06:38Z</time>
      </trkpt>
      <trkpt lat="62.636754756625" lon="17.964324533399">
        <ele>29.2</ele>
        <time>2018-01-15T18:06:39Z</time>
      </trkpt>
      <trkpt lat="62.636742770508" lon="17.964288994143">
        <ele>29.6</ele>
        <time>2018-01-15T18:06:40Z</time>
      </trkpt>
      <trkpt lat="62.636726928717" lon="17.964240127666">
        <ele>29.8</ele>
        <time>2018-01-15T18:06:41Z</time>
      </trkpt>
      <trkpt lat="62.636713350039" lon="17.964201990021">
        <ele>30.2</ele>
        <time>2018-01-15T18:06:42Z</time>
      </trkpt>
      <trkpt lat="62.636698933171" lon="17.964158739417">
        <ele>30</ele>
        <time>2018-01-15T18:06:43Z</time>
      </trkpt>
      <trkpt lat="62.636686108864" lon="17.964116159365">
        <ele>30</ele>
        <time>2018-01-15T18:06:44Z</time>
      </trkpt>
      <trkpt lat="62.636673955109" lon="17.964080117195">
        <ele>30</ele>
        <time>2018-01-15T18:06:45Z</time>
      </trkpt>
      <trkpt lat="62.636659202965" lon="17.964035860763">
        <ele>30</ele>
        <time>2018-01-15T18:06:46Z</time>
      </trkpt>
      <trkpt lat="62.636645624287" lon="17.963994621815">
        <ele>30</ele>
        <time>2018-01-15T18:06:47Z</time>
      </trkpt>
      <trkpt lat="62.636632380885" lon="17.963955143066">
        <ele>30</ele>
        <time>2018-01-15T18:06:48Z</time>
      </trkpt>
      <trkpt lat="62.636619808035" lon="17.963917173059">
        <ele>30</ele>
        <time>2018-01-15T18:06:49Z</time>
      </trkpt>
      <trkpt lat="62.636606396995" lon="17.963875766473">
        <ele>30.2</ele>
        <time>2018-01-15T18:06:50Z</time>
      </trkpt>
      <trkpt lat="62.63659005229" lon="17.963826648539">
        <ele>30.6</ele>
        <time>2018-01-15T18:06:51Z</time>
      </trkpt>
      <trkpt lat="62.636576725069" lon="17.963787588885">
        <ele>30.6</ele>
        <time>2018-01-15T18:06:52Z</time>
      </trkpt>
      <trkpt lat="62.636562811115" lon="17.963753558371">
        <ele>30.6</ele>
        <time>2018-01-15T18:06:53Z</time>
      </trkpt>
      <trkpt lat="62.636545460582" lon="17.963721707151">
        <ele>30.6</ele>
        <time>2018-01-15T18:06:54Z</time>
      </trkpt>
      <trkpt lat="62.636529115877" lon="17.963708966663">
        <ele>30.6</ele>
        <time>2018-01-15T18:06:55Z</time>
      </trkpt>
      <trkpt lat="62.636508664041" lon="17.96371340907">
        <ele>30.4</ele>
        <time>2018-01-15T18:06:56Z</time>
      </trkpt>
      <trkpt lat="62.636489301852" lon="17.963728664128">
        <ele>30.2</ele>
        <time>2018-01-15T18:06:57Z</time>
      </trkpt>
      <trkpt lat="62.636470694034" lon="17.96375112762">
        <ele>30.2</ele>
        <time>2018-01-15T18:06:58Z</time>
      </trkpt>
      <trkpt lat="62.636450409836" lon="17.963776776234">
        <ele>30.4</ele>
        <time>2018-01-15T18:06:59Z</time>
      </trkpt>
      <trkpt lat="62.636432807846" lon="17.963801502839">
        <ele>30.4</ele>
        <time>2018-01-15T18:07:00Z</time>
      </trkpt>
      <trkpt lat="62.636414535304" lon="17.963829582204">
        <ele>30.6</ele>
        <time>2018-01-15T18:07:01Z</time>
      </trkpt>
      <trkpt lat="62.636397100952" lon="17.963853470619">
        <ele>30.6</ele>
        <time>2018-01-15T18:07:02Z</time>
      </trkpt>
      <trkpt lat="62.636380001876" lon="17.963875431197">
        <ele>30.6</ele>
        <time>2018-01-15T18:07:03Z</time>
      </trkpt>
      <trkpt lat="62.636364746818" lon="17.963897224137">
        <ele>30.6</ele>
        <time>2018-01-15T18:07:04Z</time>
      </trkpt>
      <trkpt lat="62.636345133172" lon="17.963923710941">
        <ele>30.8</ele>
        <time>2018-01-15T18:07:05Z</time>
      </trkpt>
      <trkpt lat="62.636325519526" lon="17.963950197745">
        <ele>30.8</ele>
        <time>2018-01-15T18:07:06Z</time>
      </trkpt>
      <trkpt lat="62.636306492613" lon="17.963972828875">
        <ele>30.6</ele>
        <time>2018-01-15T18:07:07Z</time>
      </trkpt>
      <trkpt lat="62.636287298062" lon="17.963997387842">
        <ele>30.8</ele>
        <time>2018-01-15T18:07:08Z</time>
      </trkpt>
      <trkpt lat="62.636267935873" lon="17.964021527714">
        <ele>30.8</ele>
        <time>2018-01-15T18:07:09Z</time>
      </trkpt>
      <trkpt lat="62.636250501521" lon="17.964041392817">
        <ele>31</ele>
        <time>2018-01-15T18:07:10Z</time>
      </trkpt>
      <trkpt lat="62.636228708581" lon="17.964066203241">
        <ele>31</ele>
        <time>2018-01-15T18:07:11Z</time>
      </trkpt>
      <trkpt lat="62.636207586193" lon="17.964087996181">
        <ele>31.2</ele>
        <time>2018-01-15T18:07:12Z</time>
      </trkpt>
      <trkpt lat="62.636185625615" lon="17.964112136053">
        <ele>31.4</ele>
        <time>2018-01-15T18:07:13Z</time>
      </trkpt>
      <trkpt lat="62.636165509055" lon="17.964134767183">
        <ele>31.4</ele>
        <time>2018-01-15T18:07:14Z</time>
      </trkpt>
      <trkpt lat="62.636145979228" lon="17.964153039725">
        <ele>31.6</ele>
        <time>2018-01-15T18:07:15Z</time>
      </trkpt>
      <trkpt lat="62.636124270107" lon="17.964173910656">
        <ele>31.8</ele>
        <time>2018-01-15T18:07:16Z</time>
      </trkpt>
      <trkpt lat="62.636100884606" lon="17.964197547614">
        <ele>31.8</ele>
        <time>2018-01-15T18:07:17Z</time>
      </trkpt>
      <trkpt lat="62.636078924028" lon="17.964218502364">
        <ele>31.8</ele>
        <time>2018-01-15T18:07:18Z</time>
      </trkpt>
      <trkpt lat="62.636059226563" lon="17.96423727782">
        <ele>31.8</ele>
        <time>2018-01-15T18:07:19Z</time>
      </trkpt>
      <trkpt lat="62.636036176338" lon="17.964261166235">
        <ele>32</ele>
        <time>2018-01-15T18:07:20Z</time>
      </trkpt>
      <trkpt lat="62.63601673033" lon="17.964282204804">
        <ele>32.2</ele>
        <time>2018-01-15T18:07:21Z</time>
      </trkpt>
      <trkpt lat="62.635995440304" lon="17.964299890613">
        <ele>32.2</ele>
        <time>2018-01-15T18:07:22Z</time>
      </trkpt>
      <trkpt lat="62.635973479726" lon="17.96431942044">
        <ele>32.2</ele>
        <time>2018-01-15T18:07:23Z</time>
      </trkpt>
      <trkpt lat="62.635951519148" lon="17.96433786062">
        <ele>32.2</ele>
        <time>2018-01-15T18:07:24Z</time>
      </trkpt>
      <trkpt lat="62.635932827511" lon="17.964358144818">
        <ele>32.2</ele>
        <time>2018-01-15T18:07:25Z</time>
      </trkpt>
      <trkpt lat="62.635912459494" lon="17.964383290518">
        <ele>32.2</ele>
        <time>2018-01-15T18:07:26Z</time>
      </trkpt>
      <trkpt lat="62.635893348762" lon="17.964403993811">
        <ele>32.2</ele>
        <time>2018-01-15T18:07:27Z</time>
      </trkpt>
      <trkpt lat="62.635873735116" lon="17.964424110371">
        <ele>32.2</ele>
        <time>2018-01-15T18:07:28Z</time>
      </trkpt>
      <trkpt lat="62.635853618556" lon="17.964443388741">
        <ele>32.2</ele>
        <time>2018-01-15T18:07:29Z</time>
      </trkpt>
      <trkpt lat="62.635834340186" lon="17.964463672939">
        <ele>32.2</ele>
        <time>2018-01-15T18:07:30Z</time>
      </trkpt>
      <trkpt lat="62.635812463427" lon="17.964484962965">
        <ele>32.2</ele>
        <time>2018-01-15T18:07:31Z</time>
      </trkpt>
      <trkpt lat="62.63578958084" lon="17.964505330982">
        <ele>32</ele>
        <time>2018-01-15T18:07:32Z</time>
      </trkpt>
      <trkpt lat="62.635768206995" lon="17.964520334583">
        <ele>32</ele>
        <time>2018-01-15T18:07:33Z</time>
      </trkpt>
      <trkpt lat="62.635748593349" lon="17.964537685116">
        <ele>32</ele>
        <time>2018-01-15T18:07:34Z</time>
      </trkpt>
      <trkpt lat="62.635725291667" lon="17.964557131124">
        <ele>32.2</ele>
        <time>2018-01-15T18:07:35Z</time>
      </trkpt>
      <trkpt lat="62.6357007327" lon="17.964576158037">
        <ele>32.4</ele>
        <time>2018-01-15T18:07:36Z</time>
      </trkpt>
      <trkpt lat="62.635681286692" lon="17.964592167466">
        <ele>32.6</ele>
        <time>2018-01-15T18:07:37Z</time>
      </trkpt>
      <trkpt lat="62.635660331942" lon="17.964608847447">
        <ele>33</ele>
        <time>2018-01-15T18:07:38Z</time>
      </trkpt>
      <trkpt lat="62.635638958097" lon="17.964628796369">
        <ele>33.2</ele>
        <time>2018-01-15T18:07:39Z</time>
      </trkpt>
      <trkpt lat="62.635617919528" lon="17.964644554341">
        <ele>33</ele>
        <time>2018-01-15T18:07:40Z</time>
      </trkpt>
      <trkpt lat="62.635592857647" lon="17.964661150503">
        <ele>33.2</ele>
        <time>2018-01-15T18:07:41Z</time>
      </trkpt>
      <trkpt lat="62.635572573449" lon="17.964674729181">
        <ele>33.2</ele>
        <time>2018-01-15T18:07:42Z</time>
      </trkpt>
      <trkpt lat="62.635547679206" lon="17.964690822429">
        <ele>33</ele>
        <time>2018-01-15T18:07:43Z</time>
      </trkpt>
      <trkpt lat="62.635524461343" lon="17.964708172962">
        <ele>33.2</ele>
        <time>2018-01-15T18:07:44Z</time>
      </trkpt>
      <trkpt lat="62.635504093326" lon="17.964722170735">
        <ele>33.2</ele>
        <time>2018-01-15T18:07:45Z</time>
      </trkpt>
      <trkpt lat="62.635484731137" lon="17.964734240671">
        <ele>33.2</ele>
        <time>2018-01-15T18:07:46Z</time>
      </trkpt>
      <trkpt lat="62.635457741419" lon="17.964751507385">
        <ele>33.4</ele>
        <time>2018-01-15T18:07:47Z</time>
      </trkpt>
      <trkpt lat="62.635431841348" lon="17.964764164054">
        <ele>33.2</ele>
        <time>2018-01-15T18:07:48Z</time>
      </trkpt>
      <trkpt lat="62.635412311521" lon="17.964771875402">
        <ele>33.2</ele>
        <time>2018-01-15T18:07:49Z</time>
      </trkpt>
      <trkpt lat="62.635386998183" lon="17.964785537899">
        <ele>33.2</ele>
        <time>2018-01-15T18:07:50Z</time>
      </trkpt>
      <trkpt lat="62.635358248266" lon="17.964801044414">
        <ele>33.4</ele>
        <time>2018-01-15T18:07:51Z</time>
      </trkpt>
      <trkpt lat="62.635333856937" lon="17.96481227616">
        <ele>33.2</ele>
        <time>2018-01-15T18:07:52Z</time>
      </trkpt>
      <trkpt lat="62.635307286314" lon="17.964823927001">
        <ele>33</ele>
        <time>2018-01-15T18:07:53Z</time>
      </trkpt>
      <trkpt lat="62.635281218605" lon="17.964838427688">
        <ele>33</ele>
        <time>2018-01-15T18:07:54Z</time>
      </trkpt>
      <trkpt lat="62.635257916923" lon="17.964854604755">
        <ele>33</ele>
        <time>2018-01-15T18:07:55Z</time>
      </trkpt>
      <trkpt lat="62.635230759567" lon="17.96487011127">
        <ele>33</ele>
        <time>2018-01-15T18:07:56Z</time>
      </trkpt>
      <trkpt lat="62.635206032962" lon="17.964882348844">
        <ele>33.2</ele>
        <time>2018-01-15T18:07:57Z</time>
      </trkpt>
      <trkpt lat="62.635179043244" lon="17.964892490943">
        <ele>33</ele>
        <time>2018-01-15T18:07:58Z</time>
      </trkpt>
      <trkpt lat="62.635153226992" lon="17.96490447706">
        <ele>33.4</ele>
        <time>2018-01-15T18:07:59Z</time>
      </trkpt>
      <trkpt lat="62.635129170939" lon="17.964915541168">
        <ele>33.6</ele>
        <time>2018-01-15T18:08:00Z</time>
      </trkpt>
      <trkpt lat="62.635103773782" lon="17.964921827593">
        <ele>33.6</ele>
        <time>2018-01-15T18:08:01Z</time>
      </trkpt>
      <trkpt lat="62.635080388281" lon="17.964928533113">
        <ele>34</ele>
        <time>2018-01-15T18:08:02Z</time>
      </trkpt>
      <trkpt lat="62.635056080771" lon="17.96493213733">
        <ele>34</ele>
        <time>2018-01-15T18:08:03Z</time>
      </trkpt>
      <trkpt lat="62.635035042202" lon="17.964940100135">
        <ele>34</ele>
        <time>2018-01-15T18:08:04Z</time>
      </trkpt>
      <trkpt lat="62.635011405244" lon="17.964951080424">
        <ele>33.8</ele>
        <time>2018-01-15T18:08:05Z</time>
      </trkpt>
      <trkpt lat="62.634982068594" lon="17.964960384333">
        <ele>33.6</ele>
        <time>2018-01-15T18:08:06Z</time>
      </trkpt>
      <trkpt lat="62.634958347817" lon="17.964969269147">
        <ele>33.6</ele>
        <time>2018-01-15T18:08:07Z</time>
      </trkpt>
      <trkpt lat="62.634935129954" lon="17.964979830341">
        <ele>33.4</ele>
        <time>2018-01-15T18:08:08Z</time>
      </trkpt>
      <trkpt lat="62.634910487168" lon="17.964988882793">
        <ele>33.2</ele>
        <time>2018-01-15T18:08:09Z</time>
      </trkpt>
      <trkpt lat="62.634889113323" lon="17.964997683788">
        <ele>33</ele>
        <time>2018-01-15T18:08:10Z</time>
      </trkpt>
      <trkpt lat="62.634863297071" lon="17.965004305489">
        <ele>32.8</ele>
        <time>2018-01-15T18:08:11Z</time>
      </trkpt>
      <trkpt lat="62.634840414484" lon="17.965009083172">
        <ele>33</ele>
        <time>2018-01-15T18:08:12Z</time>
      </trkpt>
      <trkpt lat="62.634813843861" lon="17.96501427995">
        <ele>32.8</ele>
        <time>2018-01-15T18:08:13Z</time>
      </trkpt>
      <trkpt lat="62.634786854143" lon="17.965020566375">
        <ele>33</ele>
        <time>2018-01-15T18:08:14Z</time>
      </trkpt>
      <trkpt lat="62.634763133366" lon="17.965023835316">
        <ele>33.4</ele>
        <time>2018-01-15T18:08:15Z</time>
      </trkpt>
      <trkpt lat="62.634735640734" lon="17.965023332402">
        <ele>33.4</ele>
        <time>2018-01-15T18:08:16Z</time>
      </trkpt>
      <trkpt lat="62.634707561369" lon="17.965027104257">
        <ele>33.8</ele>
        <time>2018-01-15T18:08:17Z</time>
      </trkpt>
      <trkpt lat="62.634681661298" lon="17.965027607171">
        <ele>33.8</ele>
        <time>2018-01-15T18:08:18Z</time>
      </trkpt>
      <trkpt lat="62.634659616901" lon="17.965029283551">
        <ele>33.8</ele>
        <time>2018-01-15T18:08:19Z</time>
      </trkpt>
      <trkpt lat="62.634634722658" lon="17.965034731786">
        <ele>34.2</ele>
        <time>2018-01-15T18:08:20Z</time>
      </trkpt>
      <trkpt lat="62.634608738768" lon="17.965035737614">
        <ele>34.6</ele>
        <time>2018-01-15T18:08:21Z</time>
      </trkpt>
      <trkpt lat="62.634584850353" lon="17.965036659623">
        <ele>34.6</ele>
        <time>2018-01-15T18:08:22Z</time>
      </trkpt>
      <trkpt lat="62.634559034101" lon="17.96504110203">
        <ele>34.6</ele>
        <time>2018-01-15T18:08:23Z</time>
      </trkpt>
      <trkpt lat="62.6345356486" lon="17.965043868057">
        <ele>34.6</ele>
        <time>2018-01-15T18:08:24Z</time>
      </trkpt>
      <trkpt lat="62.634514274755" lon="17.965047975188">
        <ele>34.8</ele>
        <time>2018-01-15T18:08:25Z</time>
      </trkpt>
      <trkpt lat="62.634488290865" lon="17.965055686536">
        <ele>34.8</ele>
        <time>2018-01-15T18:08:26Z</time>
      </trkpt>
      <trkpt lat="62.634464821545" lon="17.965056860002">
        <ele>34.6</ele>
        <time>2018-01-15T18:08:27Z</time>
      </trkpt>
      <trkpt lat="62.634439927302" lon="17.965058871658">
        <ele>35</ele>
        <time>2018-01-15T18:08:28Z</time>
      </trkpt>
      <trkpt lat="62.634414781602" lon="17.96505954221">
        <ele>35</ele>
        <time>2018-01-15T18:08:29Z</time>
      </trkpt>
      <trkpt lat="62.634389887359" lon="17.965060045124">
        <ele>35.4</ele>
        <time>2018-01-15T18:08:30Z</time>
      </trkpt>
      <trkpt lat="62.63436465784" lon="17.965064487531">
        <ele>35.2</ele>
        <time>2018-01-15T18:08:31Z</time>
      </trkpt>
      <trkpt lat="62.634339763597" lon="17.96506540954">
        <ele>35.2</ele>
        <time>2018-01-15T18:08:32Z</time>
      </trkpt>
      <trkpt lat="62.634315875182" lon="17.965064068436">
        <ele>35.8</ele>
        <time>2018-01-15T18:08:33Z</time>
      </trkpt>
      <trkpt lat="62.634295255708" lon="17.96506624773">
        <ele>35.8</ele>
        <time>2018-01-15T18:08:34Z</time>
      </trkpt>
      <trkpt lat="62.634270110008" lon="17.965067756472">
        <ele>36</ele>
        <time>2018-01-15T18:08:35Z</time>
      </trkpt>
      <trkpt lat="62.634244712851" lon="17.965070354861">
        <ele>36.2</ele>
        <time>2018-01-15T18:08:36Z</time>
      </trkpt>
      <trkpt lat="62.634220153884" lon="17.965073959078">
        <ele>36.2</ele>
        <time>2018-01-15T18:08:37Z</time>
      </trkpt>
      <trkpt lat="62.634196516926" lon="17.965077814752">
        <ele>36.4</ele>
        <time>2018-01-15T18:08:38Z</time>
      </trkpt>
      <trkpt lat="62.63417438871" lon="17.965077814752">
        <ele>36.8</ele>
        <time>2018-01-15T18:08:39Z</time>
      </trkpt>
      <trkpt lat="62.634153350141" lon="17.96507462963">
        <ele>36.8</ele>
        <time>2018-01-15T18:08:40Z</time>
      </trkpt>
      <trkpt lat="62.634129210269" lon="17.965073037069">
        <ele>36.8</ele>
        <time>2018-01-15T18:08:41Z</time>
      </trkpt>
      <trkpt lat="62.63410565713" lon="17.965072450336">
        <ele>36.6</ele>
        <time>2018-01-15T18:08:42Z</time>
      </trkpt>
      <trkpt lat="62.634082020172" lon="17.96507630601">
        <ele>36.6</ele>
        <time>2018-01-15T18:08:43Z</time>
      </trkpt>
      <trkpt lat="62.634058215576" lon="17.965079239675">
        <ele>36.2</ele>
        <time>2018-01-15T18:08:44Z</time>
      </trkpt>
      <trkpt lat="62.63403608736" lon="17.965077730933">
        <ele>36</ele>
        <time>2018-01-15T18:08:45Z</time>
      </trkpt>
      <trkpt lat="62.634011863669" lon="17.965074126716">
        <ele>36.2</ele>
        <time>2018-01-15T18:08:46Z</time>
      </trkpt>
      <trkpt lat="62.633988813444" lon="17.965071025413">
        <ele>36.2</ele>
        <time>2018-01-15T18:08:47Z</time>
      </trkpt>
      <trkpt lat="62.6339656794" lon="17.965070271042">
        <ele>36.2</ele>
        <time>2018-01-15T18:08:48Z</time>
      </trkpt>
      <trkpt lat="62.633946484849" lon="17.965065660997">
        <ele>36</ele>
        <time>2018-01-15T18:08:49Z</time>
      </trkpt>
      <trkpt lat="62.633925194823" lon="17.965058536382">
        <ele>36.4</ele>
        <time>2018-01-15T18:08:50Z</time>
      </trkpt>
      <trkpt lat="62.633903904797" lon="17.965057446735">
        <ele>36.6</ele>
        <time>2018-01-15T18:08:51Z</time>
      </trkpt>
      <trkpt lat="62.633885045522" lon="17.965060296581">
        <ele>36.6</ele>
        <time>2018-01-15T18:08:52Z</time>
      </trkpt>
      <trkpt lat="62.633866437704" lon="17.965067588834">
        <ele>36.6</ele>
        <time>2018-01-15T18:08:53Z</time>
      </trkpt>
      <trkpt lat="62.633854032492" lon="17.965086196652">
        <ele>36.6</ele>
        <time>2018-01-15T18:08:54Z</time>
      </trkpt>
      <trkpt lat="62.63384498004" lon="17.965114527474">
        <ele>36.8</ele>
        <time>2018-01-15T18:08:55Z</time>
      </trkpt>
      <trkpt lat="62.633836430502" lon="17.965152497481">
        <ele>37.2</ele>
        <time>2018-01-15T18:08:56Z</time>
      </trkpt>
      <trkpt lat="62.633830395534" lon="17.965186779452">
        <ele>37.2</ele>
        <time>2018-01-15T18:08:57Z</time>
      </trkpt>
      <trkpt lat="62.63382570167" lon="17.965227515486">
        <ele>37.2</ele>
        <time>2018-01-15T18:08:58Z</time>
      </trkpt>
      <trkpt lat="62.633822013634" lon="17.965269005891">
        <ele>37.8</ele>
        <time>2018-01-15T18:08:59Z</time>
      </trkpt>
      <trkpt lat="62.633821259263" lon="17.96530764645">
        <ele>38</ele>
        <time>2018-01-15T18:09:00Z</time>
      </trkpt>
      <trkpt lat="62.633821091625" lon="17.965351986701">
        <ele>38.2</ele>
        <time>2018-01-15T18:09:01Z</time>
      </trkpt>
      <trkpt lat="62.633822516548" lon="17.965388615604">
        <ele>38.6</ele>
        <time>2018-01-15T18:09:02Z</time>
      </trkpt>
      <trkpt lat="62.633823522376" lon="17.965433710226">
        <ele>38.8</ele>
        <time>2018-01-15T18:09:03Z</time>
      </trkpt>
      <trkpt lat="62.63382486348" lon="17.965473524251">
        <ele>38.8</ele>
        <time>2018-01-15T18:09:04Z</time>
      </trkpt>
      <trkpt lat="62.633826791317" lon="17.965517529226">
        <ele>38.8</ele>
        <time>2018-01-15T18:09:05Z</time>
      </trkpt>
      <trkpt lat="62.633827461869" lon="17.96556999992">
        <ele>38.8</ele>
        <time>2018-01-15T18:09:06Z</time>
      </trkpt>
      <trkpt lat="62.633826036946" lon="17.965611490325">
        <ele>38.8</ele>
        <time>2018-01-15T18:09:07Z</time>
      </trkpt>
      <trkpt lat="62.633823773833" lon="17.965656752585">
        <ele>39</ele>
        <time>2018-01-15T18:09:08Z</time>
      </trkpt>
      <trkpt lat="62.633820169616" lon="17.965702266302">
        <ele>39</ele>
        <time>2018-01-15T18:09:09Z</time>
      </trkpt>
      <trkpt lat="62.633817403589" lon="17.965737889377">
        <ele>39.2</ele>
        <time>2018-01-15T18:09:10Z</time>
      </trkpt>
      <trkpt lat="62.633812542087" lon="17.965784744198">
        <ele>39.2</ele>
        <time>2018-01-15T18:09:11Z</time>
      </trkpt>
      <trkpt lat="62.633809524603" lon="17.965825815508">
        <ele>39.2</ele>
        <time>2018-01-15T18:09:12Z</time>
      </trkpt>
      <trkpt lat="62.633807093852" lon="17.965866467723">
        <ele>39.4</ele>
        <time>2018-01-15T18:09:13Z</time>
      </trkpt>
      <trkpt lat="62.633805166015" lon="17.965912232897">
        <ele>39.8</ele>
        <time>2018-01-15T18:09:14Z</time>
      </trkpt>
      <trkpt lat="62.63380474692" lon="17.965955315863">
        <ele>40</ele>
        <time>2018-01-15T18:09:15Z</time>
      </trkpt>
      <trkpt lat="62.633804160187" lon="17.966005355806">
        <ele>40.2</ele>
        <time>2018-01-15T18:09:16Z</time>
      </trkpt>
      <trkpt lat="62.63380139416" lon="17.966052378265">
        <ele>40.4</ele>
        <time>2018-01-15T18:09:17Z</time>
      </trkpt>
      <trkpt lat="62.633798628133" lon="17.966094455403">
        <ele>40.6</ele>
        <time>2018-01-15T18:09:18Z</time>
      </trkpt>
      <trkpt lat="62.633794353364" lon="17.96613493998">
        <ele>41</ele>
        <time>2018-01-15T18:09:19Z</time>
      </trkpt>
      <trkpt lat="62.633791000604" lon="17.966177603851">
        <ele>41.2</ele>
        <time>2018-01-15T18:09:20Z</time>
      </trkpt>
      <trkpt lat="62.633784378903" lon="17.966221189731">
        <ele>41.2</ele>
        <time>2018-01-15T18:09:21Z</time>
      </trkpt>
      <trkpt lat="62.633773398614" lon="17.966258740643">
        <ele>41.4</ele>
        <time>2018-01-15T18:09:22Z</time>
      </trkpt>
      <trkpt lat="62.633760490488" lon="17.966290927139">
        <ele>41.4</ele>
        <time>2018-01-15T18:09:23Z</time>
      </trkpt>
      <trkpt lat="62.633742804679" lon="17.966316072839">
        <ele>41.8</ele>
        <time>2018-01-15T18:09:24Z</time>
      </trkpt>
      <trkpt lat="62.633721682291" lon="17.966335183571">
        <ele>42.2</ele>
        <time>2018-01-15T18:09:25Z</time>
      </trkpt>
      <trkpt lat="62.633695363125" lon="17.966355300131">
        <ele>42.6</ele>
        <time>2018-01-15T18:09:26Z</time>
      </trkpt>
      <trkpt lat="62.633673318728" lon="17.966357814701">
        <ele>42.8</ele>
        <time>2018-01-15T18:09:27Z</time>
      </trkpt>
      <trkpt lat="62.633650268503" lon="17.966348091697">
        <ele>42.8</ele>
        <time>2018-01-15T18:09:28Z</time>
      </trkpt>
      <trkpt lat="62.63362956521" lon="17.96634784024">
        <ele>43</ele>
        <time>2018-01-15T18:09:29Z</time>
      </trkpt>
      <trkpt lat="62.633608191365" lon="17.966349181344">
        <ele>43</ele>
        <time>2018-01-15T18:09:30Z</time>
      </trkpt>
      <trkpt lat="62.633583800036" lon="17.966349013706">
        <ele>42.8</ele>
        <time>2018-01-15T18:09:31Z</time>
      </trkpt>
      <trkpt lat="62.633561923277" lon="17.966351947371">
        <ele>42.8</ele>
        <time>2018-01-15T18:09:32Z</time>
      </trkpt>
      <trkpt lat="62.633537867224" lon="17.966351276819">
        <ele>42.8</ele>
        <time>2018-01-15T18:09:33Z</time>
      </trkpt>
      <trkpt lat="62.633516158103" lon="17.966351109181">
        <ele>42.6</ele>
        <time>2018-01-15T18:09:34Z</time>
      </trkpt>
      <trkpt lat="62.633495706267" lon="17.966351947371">
        <ele>42.6</ele>
        <time>2018-01-15T18:09:35Z</time>
      </trkpt>
      <trkpt lat="62.633468968006" lon="17.966348594611">
        <ele>42.6</ele>
        <time>2018-01-15T18:09:36Z</time>
      </trkpt>
      <trkpt lat="62.633445331048" lon="17.966349097525">
        <ele>42.2</ele>
        <time>2018-01-15T18:09:37Z</time>
      </trkpt>
      <trkpt lat="62.633421610271" lon="17.96634784024">
        <ele>42.2</ele>
        <time>2018-01-15T18:09:38Z</time>
      </trkpt>
      <trkpt lat="62.633397889494" lon="17.966346918231">
        <ele>42.2</ele>
        <time>2018-01-15T18:09:39Z</time>
      </trkpt>
      <trkpt lat="62.633377437658" lon="17.966348929887">
        <ele>42.2</ele>
        <time>2018-01-15T18:09:40Z</time>
      </trkpt>
      <trkpt lat="62.633349861207" lon="17.96635286938">
        <ele>42.2</ele>
        <time>2018-01-15T18:09:41Z</time>
      </trkpt>
      <trkpt lat="62.633327397715" lon="17.966351360638">
        <ele>42.4</ele>
        <time>2018-01-15T18:09:42Z</time>
      </trkpt>
      <trkpt lat="62.633302168196" lon="17.966352366466">
        <ele>42.6</ele>
        <time>2018-01-15T18:09:43Z</time>
      </trkpt>
      <trkpt lat="62.633276771039" lon="17.966358904348">
        <ele>42.4</ele>
        <time>2018-01-15T18:09:44Z</time>
      </trkpt>
      <trkpt lat="62.633254307547" lon="17.966356641235">
        <ele>42.6</ele>
        <time>2018-01-15T18:09:45Z</time>
      </trkpt>
      <trkpt lat="62.633230502951" lon="17.966354881036">
        <ele>42.6</ele>
        <time>2018-01-15T18:09:46Z</time>
      </trkpt>
      <trkpt lat="62.633206446898" lon="17.966355467769">
        <ele>41.8</ele>
        <time>2018-01-15T18:09:47Z</time>
      </trkpt>
      <trkpt lat="62.633181217379" lon="17.966354126665">
        <ele>41.2</ele>
        <time>2018-01-15T18:09:48Z</time>
      </trkpt>
      <trkpt lat="62.633159089163" lon="17.966358401434">
        <ele>40.8</ele>
        <time>2018-01-15T18:09:49Z</time>
      </trkpt>
      <trkpt lat="62.633133608187" lon="17.966367537705">
        <ele>40.6</ele>
        <time>2018-01-15T18:09:50Z</time>
      </trkpt>
      <trkpt lat="62.633104690632" lon="17.966374410863">
        <ele>40.2</ele>
        <time>2018-01-15T18:09:51Z</time>
      </trkpt>
      <trkpt lat="62.633079880208" lon="17.966380194374">
        <ele>40.2</ele>
        <time>2018-01-15T18:09:52Z</time>
      </trkpt>
      <trkpt lat="62.633053561042" lon="17.966375081415">
        <ele>40.2</ele>
        <time>2018-01-15T18:09:53Z</time>
      </trkpt>
      <trkpt lat="62.633030007903" lon="17.966367370067">
        <ele>40.8</ele>
        <time>2018-01-15T18:09:54Z</time>
      </trkpt>
      <trkpt lat="62.633010729533" lon="17.966362592384">
        <ele>41.2</ele>
        <time>2018-01-15T18:09:55Z</time>
      </trkpt>
      <trkpt lat="62.632984829462" lon="17.966353288475">
        <ele>41.6</ele>
        <time>2018-01-15T18:09:56Z</time>
      </trkpt>
      <trkpt lat="62.632962030694" lon="17.966345912403">
        <ele>41.6</ele>
        <time>2018-01-15T18:09:57Z</time>
      </trkpt>
      <trkpt lat="62.632939148107" lon="17.966344738937">
        <ele>41.4</ele>
        <time>2018-01-15T18:09:58Z</time>
      </trkpt>
      <trkpt lat="62.632913248036" lon="17.966343733109">
        <ele>41.6</ele>
        <time>2018-01-15T18:09:59Z</time>
      </trkpt>
      <trkpt lat="62.632888353793" lon="17.966345158032">
        <ele>41.4</ele>
        <time>2018-01-15T18:10:00Z</time>
      </trkpt>
      <trkpt lat="62.632860777342" lon="17.966349013706">
        <ele>41.2</ele>
        <time>2018-01-15T18:10:01Z</time>
      </trkpt>
      <trkpt lat="62.632834625814" lon="17.966353791389">
        <ele>41.4</ele>
        <time>2018-01-15T18:10:02Z</time>
      </trkpt>
      <trkpt lat="62.63280981539" lon="17.966363346755">
        <ele>41</ele>
        <time>2018-01-15T18:10:03Z</time>
      </trkpt>
      <trkpt lat="62.632788693002" lon="17.966373656492">
        <ele>40.8</ele>
        <time>2018-01-15T18:10:04Z</time>
      </trkpt>
      <trkpt lat="62.632764720768" lon="17.966384217686">
        <ele>40.8</ele>
        <time>2018-01-15T18:10:05Z</time>
      </trkpt>
      <trkpt lat="62.632736222308" lon="17.966395868527">
        <ele>40.8</ele>
        <time>2018-01-15T18:10:06Z</time>
      </trkpt>
      <trkpt lat="62.63271007078" lon="17.966395030337">
        <ele>40.4</ele>
        <time>2018-01-15T18:10:07Z</time>
      </trkpt>
      <trkpt lat="62.632684841261" lon="17.966394192147">
        <ele>40.4</ele>
        <time>2018-01-15T18:10:08Z</time>
      </trkpt>
      <trkpt lat="62.632659947018" lon="17.966398466916">
        <ele>40.2</ele>
        <time>2018-01-15T18:10:09Z</time>
      </trkpt>
      <trkpt lat="62.632638070259" lon="17.966401065305">
        <ele>40.2</ele>
        <time>2018-01-15T18:10:10Z</time>
      </trkpt>
      <trkpt lat="62.632608398333" lon="17.966405507712">
        <ele>40.2</ele>
        <time>2018-01-15T18:10:11Z</time>
      </trkpt>
      <trkpt lat="62.632582833538" lon="17.966402154952">
        <ele>40</ele>
        <time>2018-01-15T18:10:12Z</time>
      </trkpt>
      <trkpt lat="62.632557017286" lon="17.966400981486">
        <ele>40</ele>
        <time>2018-01-15T18:10:13Z</time>
      </trkpt>
      <trkpt lat="62.632532206862" lon="17.966404920979">
        <ele>40</ele>
        <time>2018-01-15T18:10:14Z</time>
      </trkpt>
      <trkpt lat="62.63250974337" lon="17.966402490228">
        <ele>40</ele>
        <time>2018-01-15T18:10:15Z</time>
      </trkpt>
      <trkpt lat="62.632483256566" lon="17.966396706717">
        <ele>40</ele>
        <time>2018-01-15T18:10:16Z</time>
      </trkpt>
      <trkpt lat="62.632457943228" lon="17.966392515767">
        <ele>39.8</ele>
        <time>2018-01-15T18:10:17Z</time>
      </trkpt>
      <trkpt lat="62.632433132804" lon="17.966385223514">
        <ele>39.8</ele>
        <time>2018-01-15T18:10:18Z</time>
      </trkpt>
      <trkpt lat="62.632411172226" lon="17.966380781107">
        <ele>39.8</ele>
        <time>2018-01-15T18:10:19Z</time>
      </trkpt>
      <trkpt lat="62.632387619087" lon="17.966375584329">
        <ele>39.6</ele>
        <time>2018-01-15T18:10:20Z</time>
      </trkpt>
      <trkpt lat="62.632360126455" lon="17.966367537705">
        <ele>39.8</ele>
        <time>2018-01-15T18:10:21Z</time>
      </trkpt>
      <trkpt lat="62.632336992411" lon="17.966362005651">
        <ele>39.8</ele>
        <time>2018-01-15T18:10:22Z</time>
      </trkpt>
      <trkpt lat="62.632314193643" lon="17.966357311787">
        <ele>39.4</ele>
        <time>2018-01-15T18:10:23Z</time>
      </trkpt>
      <trkpt lat="62.632287120106" lon="17.966352785561">
        <ele>39.6</ele>
        <time>2018-01-15T18:10:24Z</time>
      </trkpt>
      <trkpt lat="62.632262142044" lon="17.966348762249">
        <ele>39.6</ele>
        <time>2018-01-15T18:10:25Z</time>
      </trkpt>
      <trkpt lat="62.632239427095" lon="17.966356305959">
        <ele>39.6</ele>
        <time>2018-01-15T18:10:26Z</time>
      </trkpt>
      <trkpt lat="62.632215454861" lon="17.966361670375">
        <ele>39.4</ele>
        <time>2018-01-15T18:10:27Z</time>
      </trkpt>
      <trkpt lat="62.632191398808" lon="17.966367034791">
        <ele>39.4</ele>
        <time>2018-01-15T18:10:28Z</time>
      </trkpt>
      <trkpt lat="62.632195170663" lon="17.966435012">
        <ele>39.2</ele>
        <time>2018-01-15T18:10:29Z</time>
      </trkpt>
      <trkpt lat="62.63219039298" lon="17.966474993663">
        <ele>39.2</ele>
        <time>2018-01-15T18:10:30Z</time>
      </trkpt>
      <trkpt lat="62.632187962229" lon="17.96652050738">
        <ele>39</ele>
        <time>2018-01-15T18:10:31Z</time>
      </trkpt>
      <trkpt lat="62.632184358012" lon="17.966565266726">
        <ele>38.8</ele>
        <time>2018-01-15T18:10:32Z</time>
      </trkpt>
      <trkpt lat="62.632181759623" lon="17.966604996932">
        <ele>39</ele>
        <time>2018-01-15T18:10:33Z</time>
      </trkpt>
      <trkpt lat="62.632177484854" lon="17.9666613233">
        <ele>39</ele>
        <time>2018-01-15T18:10:34Z</time>
      </trkpt>
      <trkpt lat="62.632174635008" lon="17.966692587787">
        <ele>39</ele>
        <time>2018-01-15T18:10:35Z</time>
      </trkpt>
      <trkpt lat="62.632172036619" lon="17.966730306337">
        <ele>39</ele>
        <time>2018-01-15T18:10:36Z</time>
      </trkpt>
      <trkpt lat="62.632168432402" lon="17.966779088995">
        <ele>39.2</ele>
        <time>2018-01-15T18:10:37Z</time>
      </trkpt>
      <trkpt lat="62.632165079642" lon="17.966818651563">
        <ele>39.4</ele>
        <time>2018-01-15T18:10:38Z</time>
      </trkpt>
      <trkpt lat="62.632161140149" lon="17.966858884683">
        <ele>39.6</ele>
        <time>2018-01-15T18:10:39Z</time>
      </trkpt>
      <trkpt lat="62.632157200656" lon="17.966894591577">
        <ele>39.8</ele>
        <time>2018-01-15T18:10:40Z</time>
      </trkpt>
      <trkpt lat="62.632153764077" lon="17.966940189113">
        <ele>39.8</ele>
        <time>2018-01-15T18:10:41Z</time>
      </trkpt>
      <trkpt lat="62.632149489308" lon="17.966981847156">
        <ele>40</ele>
        <time>2018-01-15T18:10:42Z</time>
      </trkpt>
      <trkpt lat="62.63214429253" lon="17.967023924294">
        <ele>40.2</ele>
        <time>2018-01-15T18:10:43Z</time>
      </trkpt>
      <trkpt lat="62.632142029417" lon="17.967060888473">
        <ele>40.2</ele>
        <time>2018-01-15T18:10:44Z</time>
      </trkpt>
      <trkpt lat="62.63213674882" lon="17.967100451041">
        <ele>40.2</ele>
        <time>2018-01-15T18:10:45Z</time>
      </trkpt>
      <trkpt lat="62.632132809327" lon="17.967129787691">
        <ele>40.4</ele>
        <time>2018-01-15T18:10:46Z</time>
      </trkpt>
      <trkpt lat="62.63212417597" lon="17.96718351567">
        <ele>40.6</ele>
        <time>2018-01-15T18:10:47Z</time>
      </trkpt>
      <trkpt lat="62.632116129346" lon="17.967223916428">
        <ele>40.6</ele>
        <time>2018-01-15T18:10:48Z</time>
      </trkpt>
      <trkpt lat="62.632108501817" lon="17.967263814272">
        <ele>40.8</ele>
        <time>2018-01-15T18:10:49Z</time>
      </trkpt>
      <trkpt lat="62.632100036098" lon="17.967300946089">
        <ele>40.6</ele>
        <time>2018-01-15T18:10:50Z</time>
      </trkpt>
      <trkpt lat="62.632090732189" lon="17.967344867245">
        <ele>40.6</ele>
        <time>2018-01-15T18:10:51Z</time>
      </trkpt>
      <trkpt lat="62.632080338633" lon="17.967380406501">
        <ele>41</ele>
        <time>2018-01-15T18:10:52Z</time>
      </trkpt>
      <trkpt lat="62.632073549294" lon="17.967408402047">
        <ele>41.2</ele>
        <time>2018-01-15T18:10:53Z</time>
      </trkpt>
      <trkpt lat="62.632067598145" lon="17.967438157792">
        <ele>41.4</ele>
        <time>2018-01-15T18:10:54Z</time>
      </trkpt>
      <trkpt lat="62.632057791322" lon="17.967469589917">
        <ele>41.4</ele>
        <time>2018-01-15T18:10:55Z</time>
      </trkpt>
      <trkpt lat="62.6320462243" lon="17.967506302639">
        <ele>41.8</ele>
        <time>2018-01-15T18:10:56Z</time>
      </trkpt>
      <trkpt lat="62.632034573459" lon="17.967542931542">
        <ele>41.8</ele>
        <time>2018-01-15T18:10:57Z</time>
      </trkpt>
      <trkpt lat="62.632018815487" lon="17.967578554617">
        <ele>42</ele>
        <time>2018-01-15T18:10:58Z</time>
      </trkpt>
      <trkpt lat="62.632008254293" lon="17.967614177692">
        <ele>42.2</ele>
        <time>2018-01-15T18:10:59Z</time>
      </trkpt>
      <trkpt lat="62.631996519633" lon="17.967652734432">
        <ele>42.4</ele>
        <time>2018-01-15T18:11:00Z</time>
      </trkpt>
      <trkpt lat="62.631982689498" lon="17.967696571769">
        <ele>42.8</ele>
        <time>2018-01-15T18:11:01Z</time>
      </trkpt>
      <trkpt lat="62.631970871019" lon="17.967736050518">
        <ele>43</ele>
        <time>2018-01-15T18:11:02Z</time>
      </trkpt>
      <trkpt lat="62.631957795255" lon="17.967777038009">
        <ele>43.6</ele>
        <time>2018-01-15T18:11:03Z</time>
      </trkpt>
      <trkpt lat="62.63194983245" lon="17.967806123202">
        <ele>44</ele>
        <time>2018-01-15T18:11:04Z</time>
      </trkpt>
      <trkpt lat="62.631937511057" lon="17.967844931399">
        <ele>44.2</ele>
        <time>2018-01-15T18:11:05Z</time>
      </trkpt>
      <trkpt lat="62.63192301037" lon="17.967889858383">
        <ele>44.4</ele>
        <time>2018-01-15T18:11:06Z</time>
      </trkpt>
      <trkpt lat="62.631913706461" lon="17.967925397639">
        <ele>44.4</ele>
        <time>2018-01-15T18:11:07Z</time>
      </trkpt>
      <trkpt lat="62.631901971801" lon="17.967964373474">
        <ele>44.4</ele>
        <time>2018-01-15T18:11:08Z</time>
      </trkpt>
      <trkpt lat="62.631890404779" lon="17.967999409816">
        <ele>44.6</ele>
        <time>2018-01-15T18:11:09Z</time>
      </trkpt>
      <trkpt lat="62.631879592128" lon="17.968031847769">
        <ele>44.6</ele>
        <time>2018-01-15T18:11:10Z</time>
      </trkpt>
      <trkpt lat="62.631864839984" lon="17.968074176364">
        <ele>44.8</ele>
        <time>2018-01-15T18:11:11Z</time>
      </trkpt>
      <trkpt lat="62.631852937686" lon="17.968113403656">
        <ele>44.8</ele>
        <time>2018-01-15T18:11:12Z</time>
      </trkpt>
      <trkpt lat="62.631841203026" lon="17.968147350351">
        <ele>44.8</ele>
        <time>2018-01-15T18:11:13Z</time>
      </trkpt>
      <trkpt lat="62.631828043443" lon="17.968183727797">
        <ele>45</ele>
        <time>2018-01-15T18:11:14Z</time>
      </trkpt>
      <trkpt lat="62.631817733706" lon="17.968217506854">
        <ele>45.2</ele>
        <time>2018-01-15T18:11:15Z</time>
      </trkpt>
      <trkpt lat="62.63180650196" lon="17.968245921495">
        <ele>45.4</ele>
        <time>2018-01-15T18:11:16Z</time>
      </trkpt>
      <trkpt lat="62.631787810323" lon="17.968293782144">
        <ele>45.4</ele>
        <time>2018-01-15T18:11:17Z</time>
      </trkpt>
      <trkpt lat="62.631771968532" lon="17.968337451843">
        <ele>45.6</ele>
        <time>2018-01-15T18:11:18Z</time>
      </trkpt>
      <trkpt lat="62.63176040151" lon="17.968371733814">
        <ele>45.8</ele>
        <time>2018-01-15T18:11:19Z</time>
      </trkpt>
      <trkpt lat="62.631749840316" lon="17.968407692165">
        <ele>46.2</ele>
        <time>2018-01-15T18:11:20Z</time>
      </trkpt>
      <trkpt lat="62.631737016009" lon="17.968446751819">
        <ele>46.4</ele>
        <time>2018-01-15T18:11:21Z</time>
      </trkpt>
      <trkpt lat="62.631727376824" lon="17.968480279419">
        <ele>46.4</ele>
        <time>2018-01-15T18:11:22Z</time>
      </trkpt>
      <trkpt lat="62.631717402363" lon="17.968515986313">
        <ele>46.6</ele>
        <time>2018-01-15T18:11:23Z</time>
      </trkpt>
      <trkpt lat="62.631704075142" lon="17.968557979632">
        <ele>46.6</ele>
        <time>2018-01-15T18:11:24Z</time>
      </trkpt>
      <trkpt lat="62.631697453441" lon="17.968591591051">
        <ele>47</ele>
        <time>2018-01-15T18:11:25Z</time>
      </trkpt>
      <trkpt lat="62.631689574455" lon="17.96863777532">
        <ele>47</ele>
        <time>2018-01-15T18:11:26Z</time>
      </trkpt>
      <trkpt lat="62.63168328803" lon="17.968677589345">
        <ele>47.4</ele>
        <time>2018-01-15T18:11:27Z</time>
      </trkpt>
      <trkpt lat="62.631678761804" lon="17.968716648999">
        <ele>47.6</ele>
        <time>2018-01-15T18:11:28Z</time>
      </trkpt>
      <trkpt lat="62.631674570854" lon="17.968761240707">
        <ele>47.8</ele>
        <time>2018-01-15T18:11:29Z</time>
      </trkpt>
      <trkpt lat="62.631671972465" lon="17.968804910406">
        <ele>48.2</ele>
        <time>2018-01-15T18:11:30Z</time>
      </trkpt>
      <trkpt lat="62.631672475379" lon="17.968851346132">
        <ele>48.2</ele>
        <time>2018-01-15T18:11:31Z</time>
      </trkpt>
      <trkpt lat="62.631671637189" lon="17.968897530401">
        <ele>48.4</ele>
        <time>2018-01-15T18:11:32Z</time>
      </trkpt>
      <trkpt lat="62.631674989949" lon="17.96894455286">
        <ele>48.4</ele>
        <time>2018-01-15T18:11:33Z</time>
      </trkpt>
      <trkpt lat="62.631679432356" lon="17.968986881455">
        <ele>48.4</ele>
        <time>2018-01-15T18:11:34Z</time>
      </trkpt>
      <trkpt lat="62.631684545315" lon="17.969026444023">
        <ele>48.4</ele>
        <time>2018-01-15T18:11:35Z</time>
      </trkpt>
      <trkpt lat="62.631694100681" lon="17.969073717939">
        <ele>48.8</ele>
        <time>2018-01-15T18:11:36Z</time>
      </trkpt>
      <trkpt lat="62.631700722382" lon="17.969120321303">
        <ele>49</ele>
        <time>2018-01-15T18:11:37Z</time>
      </trkpt>
      <trkpt lat="62.631708517549" lon="17.969163488088">
        <ele>49.2</ele>
        <time>2018-01-15T18:11:38Z</time>
      </trkpt>
      <trkpt lat="62.631717234725" lon="17.969203637389">
        <ele>49.6</ele>
        <time>2018-01-15T18:11:39Z</time>
      </trkpt>
      <trkpt lat="62.631723940245" lon="17.969244289604">
        <ele>50</ele>
        <time>2018-01-15T18:11:40Z</time>
      </trkpt>
      <trkpt lat="62.631734501439" lon="17.969293407538">
        <ele>50.4</ele>
        <time>2018-01-15T18:11:41Z</time>
      </trkpt>
      <trkpt lat="62.631747744841" lon="17.969338753617">
        <ele>50.6</ele>
        <time>2018-01-15T18:11:42Z</time>
      </trkpt>
      <trkpt lat="62.631759060406" lon="17.96938124985">
        <ele>51.2</ele>
        <time>2018-01-15T18:11:43Z</time>
      </trkpt>
      <trkpt lat="62.63177297436" lon="17.96941561564">
        <ele>51.4</ele>
        <time>2018-01-15T18:11:44Z</time>
      </trkpt>
      <trkpt lat="62.631790408712" lon="17.969446544851">
        <ele>51.6</ele>
        <time>2018-01-15T18:11:45Z</time>
      </trkpt>
      <trkpt lat="62.631809100349" lon="17.96947428894">
        <ele>51.6</ele>
        <time>2018-01-15T18:11:46Z</time>
      </trkpt>
      <trkpt lat="62.631827708167" lon="17.969494154043">
        <ele>51.8</ele>
        <time>2018-01-15T18:11:47Z</time>
      </trkpt>
      <trkpt lat="62.631847405632" lon="17.969519635019">
        <ele>52</ele>
        <time>2018-01-15T18:11:48Z</time>
      </trkpt>
      <trkpt lat="62.631865342898" lon="17.969536566457">
        <ele>52.2</ele>
        <time>2018-01-15T18:11:49Z</time>
      </trkpt>
      <trkpt lat="62.631887135838" lon="17.969550228954">
        <ele>52</ele>
        <time>2018-01-15T18:11:50Z</time>
      </trkpt>
      <trkpt lat="62.631912365357" lon="17.96955978432">
        <ele>52.2</ele>
        <time>2018-01-15T18:11:51Z</time>
      </trkpt>
      <trkpt lat="62.631933320107" lon="17.9695614607">
        <ele>52.2</ele>
        <time>2018-01-15T18:11:52Z</time>
      </trkpt>
      <trkpt lat="62.631955029228" lon="17.969557688845">
        <ele>52.2</ele>
        <time>2018-01-15T18:11:53Z</time>
      </trkpt>
      <trkpt lat="62.631979252919" lon="17.969554671361">
        <ele>52.4</ele>
        <time>2018-01-15T18:11:54Z</time>
      </trkpt>
      <trkpt lat="62.631999201841" lon="17.96955224061">
        <ele>52.4</ele>
        <time>2018-01-15T18:11:55Z</time>
      </trkpt>
      <trkpt lat="62.632022503523" lon="17.969545199814">
        <ele>52.4</ele>
        <time>2018-01-15T18:11:56Z</time>
      </trkpt>
      <trkpt lat="62.632046391938" lon="17.96954050595">
        <ele>52.6</ele>
        <time>2018-01-15T18:11:57Z</time>
      </trkpt>
      <trkpt lat="62.632068436335" lon="17.969535392991">
        <ele>52.6</ele>
        <time>2018-01-15T18:11:58Z</time>
      </trkpt>
      <trkpt lat="62.632090229275" lon="17.969528938928">
        <ele>52.6</ele>
        <time>2018-01-15T18:11:59Z</time>
      </trkpt>
      <trkpt lat="62.632113782414" lon="17.969523323055">
        <ele>52.8</ele>
        <time>2018-01-15T18:12:00Z</time>
      </trkpt>
      <trkpt lat="62.632139850123" lon="17.969516617535">
        <ele>52.8</ele>
        <time>2018-01-15T18:12:01Z</time>
      </trkpt>
      <trkpt lat="62.632164157633" lon="17.969508403273">
        <ele>52.8</ele>
        <time>2018-01-15T18:12:02Z</time>
      </trkpt>
      <trkpt lat="62.632188297505" lon="17.969501781572">
        <ele>52.8</ele>
        <time>2018-01-15T18:12:03Z</time>
      </trkpt>
      <trkpt lat="62.632206905323" lon="17.969494321681">
        <ele>53</ele>
        <time>2018-01-15T18:12:04Z</time>
      </trkpt>
      <trkpt lat="62.632229536453" lon="17.969484598677">
        <ele>53.2</ele>
        <time>2018-01-15T18:12:05Z</time>
      </trkpt>
      <trkpt lat="62.632258370189" lon="17.969478228433">
        <ele>53.2</ele>
        <time>2018-01-15T18:12:06Z</time>
      </trkpt>
      <trkpt lat="62.632280582224" lon="17.969471690551">
        <ele>53.4</ele>
        <time>2018-01-15T18:12:07Z</time>
      </trkpt>
      <trkpt lat="62.632304638277" lon="17.969466829049">
        <ele>53.4</ele>
        <time>2018-01-15T18:12:08Z</time>
      </trkpt>
      <trkpt lat="62.632328778149" lon="17.969466326135">
        <ele>53.6</ele>
        <time>2018-01-15T18:12:09Z</time>
      </trkpt>
      <trkpt lat="62.632348978528" lon="17.969463476289">
        <ele>53.6</ele>
        <time>2018-01-15T18:12:10Z</time>
      </trkpt>
      <trkpt lat="62.632374375685" lon="17.969460374986">
        <ele>53.6</ele>
        <time>2018-01-15T18:12:11Z</time>
      </trkpt>
      <trkpt lat="62.632401030127" lon="17.96945668695">
        <ele>53.6</ele>
        <time>2018-01-15T18:12:12Z</time>
      </trkpt>
      <trkpt lat="62.632422403972" lon="17.969452747457">
        <ele>53.8</ele>
        <time>2018-01-15T18:12:13Z</time>
      </trkpt>
      <trkpt lat="62.632448387862" lon="17.96945165781">
        <ele>53.8</ele>
        <time>2018-01-15T18:12:14Z</time>
      </trkpt>
      <trkpt lat="62.632470432259" lon="17.969451322534">
        <ele>53.8</ele>
        <time>2018-01-15T18:12:15Z</time>
      </trkpt>
      <trkpt lat="62.632493398665" lon="17.969447718317">
        <ele>54</ele>
        <time>2018-01-15T18:12:16Z</time>
      </trkpt>
      <trkpt lat="62.632520220745" lon="17.969443862643">
        <ele>54.2</ele>
        <time>2018-01-15T18:12:17Z</time>
      </trkpt>
      <trkpt lat="62.632544528255" lon="17.969443695005">
        <ele>54.2</ele>
        <time>2018-01-15T18:12:18Z</time>
      </trkpt>
      <trkpt lat="62.632566237376" lon="17.96944662867">
        <ele>54.4</ele>
        <time>2018-01-15T18:12:19Z</time>
      </trkpt>
      <trkpt lat="62.632591969809" lon="17.969452412181">
        <ele>54.4</ele>
        <time>2018-01-15T18:12:20Z</time>
      </trkpt>
      <trkpt lat="62.632615522948" lon="17.96945920152">
        <ele>54.4</ele>
        <time>2018-01-15T18:12:21Z</time>
      </trkpt>
      <trkpt lat="62.632638656992" lon="17.969460794081">
        <ele>54.4</ele>
        <time>2018-01-15T18:12:22Z</time>
      </trkpt>
      <trkpt lat="62.632663718873" lon="17.969465655583">
        <ele>54.4</ele>
        <time>2018-01-15T18:12:23Z</time>
      </trkpt>
      <trkpt lat="62.632687355831" lon="17.969467918696">
        <ele>54.2</ele>
        <time>2018-01-15T18:12:24Z</time>
      </trkpt>
      <trkpt lat="62.632707472391" lon="17.969472780198">
        <ele>54.4</ele>
        <time>2018-01-15T18:12:25Z</time>
      </trkpt>
      <trkpt lat="62.632732450453" lon="17.969480407727">
        <ele>54.2</ele>
        <time>2018-01-15T18:12:26Z</time>
      </trkpt>
      <trkpt lat="62.632753991936" lon="17.969484598677">
        <ele>54.2</ele>
        <time>2018-01-15T18:12:27Z</time>
      </trkpt>
      <trkpt lat="62.632778299446" lon="17.969491555654">
        <ele>54.2</ele>
        <time>2018-01-15T18:12:28Z</time>
      </trkpt>
      <trkpt lat="62.632801098214" lon="17.969492058568">
        <ele>54.2</ele>
        <time>2018-01-15T18:12:29Z</time>
      </trkpt>
      <trkpt lat="62.632824986629" lon="17.96949356731">
        <ele>54.2</ele>
        <time>2018-01-15T18:12:30Z</time>
      </trkpt>
      <trkpt lat="62.632851054338" lon="17.969499853735">
        <ele>54.2</ele>
        <time>2018-01-15T18:12:31Z</time>
      </trkpt>
      <trkpt lat="62.632872931097" lon="17.969507229807">
        <ele>54.2</ele>
        <time>2018-01-15T18:12:32Z</time>
      </trkpt>
      <trkpt lat="62.632894807856" lon="17.969509409101">
        <ele>54.2</ele>
        <time>2018-01-15T18:12:33Z</time>
      </trkpt>
      <trkpt lat="62.632915008235" lon="17.969513767689">
        <ele>54.4</ele>
        <time>2018-01-15T18:12:34Z</time>
      </trkpt>
      <trkpt lat="62.632940321573" lon="17.969520724666">
        <ele>54.4</ele>
        <time>2018-01-15T18:12:35Z</time>
      </trkpt>
      <trkpt lat="62.632968736214" lon="17.969525502349">
        <ele>54.6</ele>
        <time>2018-01-15T18:12:36Z</time>
      </trkpt>
      <trkpt lat="62.632995390656" lon="17.969534973896">
        <ele>54.6</ele>
        <time>2018-01-15T18:12:37Z</time>
      </trkpt>
      <trkpt lat="62.633020955451" lon="17.969539164846">
        <ele>54.6</ele>
        <time>2018-01-15T18:12:38Z</time>
      </trkpt>
      <trkpt lat="62.63304450859" lon="17.96954050595">
        <ele>54.6</ele>
        <time>2018-01-15T18:12:39Z</time>
      </trkpt>
      <trkpt lat="62.633067055901" lon="17.969545367452">
        <ele>54.8</ele>
        <time>2018-01-15T18:12:40Z</time>
      </trkpt>
      <trkpt lat="62.633092453058" lon="17.969554252266">
        <ele>54.8</ele>
        <time>2018-01-15T18:12:41Z</time>
      </trkpt>
      <trkpt lat="62.633119358957" lon="17.969563220899">
        <ele>54.8</ele>
        <time>2018-01-15T18:12:42Z</time>
      </trkpt>
      <trkpt lat="62.633146181037" lon="17.969581074346">
        <ele>55</ele>
        <time>2018-01-15T18:12:43Z</time>
      </trkpt>
      <trkpt lat="62.633169817995" lon="17.969596077947">
        <ele>54.8</ele>
        <time>2018-01-15T18:12:44Z</time>
      </trkpt>
      <trkpt lat="62.633194125505" lon="17.969610662453">
        <ele>54.8</ele>
        <time>2018-01-15T18:12:45Z</time>
      </trkpt>
      <trkpt lat="62.633219522662" lon="17.969627845348">
        <ele>55</ele>
        <time>2018-01-15T18:12:46Z</time>
      </trkpt>
      <trkpt lat="62.633241567059" lon="17.96964276513">
        <ele>55</ele>
        <time>2018-01-15T18:12:47Z</time>
      </trkpt>
      <trkpt lat="62.633266126026" lon="17.969659109835">
        <ele>54.8</ele>
        <time>2018-01-15T18:12:48Z</time>
      </trkpt>
      <trkpt lat="62.633285320577" lon="17.96967545454">
        <ele>55</ele>
        <time>2018-01-15T18:12:49Z</time>
      </trkpt>
      <trkpt lat="62.633308035526" lon="17.969697750394">
        <ele>54.8</ele>
        <time>2018-01-15T18:12:50Z</time>
      </trkpt>
      <trkpt lat="62.633330079923" lon="17.969734463116">
        <ele>55</ele>
        <time>2018-01-15T18:12:51Z</time>
      </trkpt>
      <trkpt lat="62.633346508447" lon="17.969773941865">
        <ele>55</ele>
        <time>2018-01-15T18:12:52Z</time>
      </trkpt>
      <trkpt lat="62.633357488736" lon="17.969819707039">
        <ele>55</ele>
        <time>2018-01-15T18:12:53Z</time>
      </trkpt>
      <trkpt lat="62.633360422401" lon="17.969874776122">
        <ele>55.2</ele>
        <time>2018-01-15T18:12:54Z</time>
      </trkpt>
      <trkpt lat="62.63336134441" lon="17.969920122201">
        <ele>55.4</ele>
        <time>2018-01-15T18:12:55Z</time>
      </trkpt>
      <trkpt lat="62.633361763505" lon="17.969974436913">
        <ele>55.4</ele>
        <time>2018-01-15T18:12:56Z</time>
      </trkpt>
      <trkpt lat="62.633364026618" lon="17.970027159064">
        <ele>55.6</ele>
        <time>2018-01-15T18:12:57Z</time>
      </trkpt>
      <trkpt lat="62.633367127921" lon="17.970075019713">
        <ele>55.6</ele>
        <time>2018-01-15T18:12:58Z</time>
      </trkpt>
      <trkpt lat="62.633371235052" lon="17.97012556257">
        <ele>55.6</ele>
        <time>2018-01-15T18:12:59Z</time>
      </trkpt>
      <trkpt lat="62.633375258364" lon="17.970177614169">
        <ele>55.6</ele>
        <time>2018-01-15T18:13:00Z</time>
      </trkpt>
      <trkpt lat="62.633380119866" lon="17.970225642456">
        <ele>55.8</ele>
        <time>2018-01-15T18:13:01Z</time>
      </trkpt>
      <trkpt lat="62.633384729911" lon="17.970281801186">
        <ele>55.6</ele>
        <time>2018-01-15T18:13:02Z</time>
      </trkpt>
      <trkpt lat="62.633389423775" lon="17.970327147265">
        <ele>55.8</ele>
        <time>2018-01-15T18:13:03Z</time>
      </trkpt>
      <trkpt lat="62.633392608897" lon="17.970366793652">
        <ele>55.8</ele>
        <time>2018-01-15T18:13:04Z</time>
      </trkpt>
      <trkpt lat="62.633394285277" lon="17.970418426156">
        <ele>55.8</ele>
        <time>2018-01-15T18:13:05Z</time>
      </trkpt>
      <trkpt lat="62.633398560046" lon="17.970477518551">
        <ele>56</ele>
        <time>2018-01-15T18:13:06Z</time>
      </trkpt>
      <trkpt lat="62.633401158435" lon="17.970530156883">
        <ele>56.2</ele>
        <time>2018-01-15T18:13:07Z</time>
      </trkpt>
      <trkpt lat="62.633405014109" lon="17.970581873206">
        <ele>56.6</ele>
        <time>2018-01-15T18:13:08Z</time>
      </trkpt>
      <trkpt lat="62.633408702145" lon="17.97062931476">
        <ele>56.6</ele>
        <time>2018-01-15T18:13:09Z</time>
      </trkpt>
      <trkpt lat="62.633412809276" lon="17.970674325563">
        <ele>56.8</ele>
        <time>2018-01-15T18:13:10Z</time>
      </trkpt>
      <trkpt lat="62.633419766253" lon="17.970730819569">
        <ele>57.2</ele>
        <time>2018-01-15T18:13:11Z</time>
      </trkpt>
      <trkpt lat="62.63342504685" lon="17.970780524236">
        <ele>57.4</ele>
        <time>2018-01-15T18:13:12Z</time>
      </trkpt>
      <trkpt lat="62.6334292378" lon="17.970839784269">
        <ele>57.6</ele>
        <time>2018-01-15T18:13:13Z</time>
      </trkpt>
      <trkpt lat="62.633430243628" lon="17.970892254963">
        <ele>57.4</ele>
        <time>2018-01-15T18:13:14Z</time>
      </trkpt>
      <trkpt lat="62.633430830361" lon="17.97093776868">
        <ele>57.4</ele>
        <time>2018-01-15T18:13:15Z</time>
      </trkpt>
      <trkpt lat="62.633430411266" lon="17.970998285998">
        <ele>57.6</ele>
        <time>2018-01-15T18:13:16Z</time>
      </trkpt>
      <trkpt lat="62.633432339103" lon="17.971050840511">
        <ele>57.8</ele>
        <time>2018-01-15T18:13:17Z</time>
      </trkpt>
      <trkpt lat="62.633432171465" lon="17.971108172707">
        <ele>57.6</ele>
        <time>2018-01-15T18:13:18Z</time>
      </trkpt>
      <trkpt lat="62.633432422922" lon="17.971154692252">
        <ele>57.6</ele>
        <time>2018-01-15T18:13:19Z</time>
      </trkpt>
      <trkpt lat="62.633431417094" lon="17.971209593697">
        <ele>57.4</ele>
        <time>2018-01-15T18:13:20Z</time>
      </trkpt>
      <trkpt lat="62.633429070162" lon="17.9712713683">
        <ele>57.4</ele>
        <time>2018-01-15T18:13:21Z</time>
      </trkpt>
      <trkpt lat="62.63342672323" lon="17.971323922813">
        <ele>57.4</ele>
        <time>2018-01-15T18:13:22Z</time>
      </trkpt>
      <trkpt lat="62.633423454289" lon="17.971374549489">
        <ele>57.6</ele>
        <time>2018-01-15T18:13:23Z</time>
      </trkpt>
      <trkpt lat="62.633419263339" lon="17.971437749015">
        <ele>57.6</ele>
        <time>2018-01-15T18:13:24Z</time>
      </trkpt>
      <trkpt lat="62.633417167864" lon="17.971480831981">
        <ele>57.6</ele>
        <time>2018-01-15T18:13:25Z</time>
      </trkpt>
      <trkpt lat="62.633414066561" lon="17.971540175833">
        <ele>57.6</ele>
        <time>2018-01-15T18:13:26Z</time>
      </trkpt>
      <trkpt lat="62.633409288878" lon="17.971595161097">
        <ele>57.8</ele>
        <time>2018-01-15T18:13:27Z</time>
      </trkpt>
      <trkpt lat="62.633405852299" lon="17.971645787773">
        <ele>57.8</ele>
        <time>2018-01-15T18:13:28Z</time>
      </trkpt>
      <trkpt lat="62.63339990115" lon="17.971700270123">
        <ele>58</ele>
        <time>2018-01-15T18:13:29Z</time>
      </trkpt>
      <trkpt lat="62.633397302761" lon="17.971748885143">
        <ele>58</ele>
        <time>2018-01-15T18:13:30Z</time>
      </trkpt>
      <trkpt lat="62.633393111811" lon="17.971803535131">
        <ele>58</ele>
        <time>2018-01-15T18:13:31Z</time>
      </trkpt>
      <trkpt lat="62.633387831214" lon="17.971860280594">
        <ele>58.2</ele>
        <time>2018-01-15T18:13:32Z</time>
      </trkpt>
      <trkpt lat="62.633383891721" lon="17.971913673297">
        <ele>58.4</ele>
        <time>2018-01-15T18:13:33Z</time>
      </trkpt>
      <trkpt lat="62.633380455142" lon="17.97195700772">
        <ele>58.6</ele>
        <time>2018-01-15T18:13:34Z</time>
      </trkpt>
      <trkpt lat="62.633375006907" lon="17.97201232826">
        <ele>58.8</ele>
        <time>2018-01-15T18:13:35Z</time>
      </trkpt>
      <trkpt lat="62.63336804993" lon="17.97207770708">
        <ele>59.2</ele>
        <time>2018-01-15T18:13:36Z</time>
      </trkpt>
      <trkpt lat="62.633360757677" lon="17.972133111439">
        <ele>59.2</ele>
        <time>2018-01-15T18:13:37Z</time>
      </trkpt>
      <trkpt lat="62.63335212432" lon="17.972185749771">
        <ele>59.2</ele>
        <time>2018-01-15T18:13:38Z</time>
      </trkpt>
      <trkpt lat="62.633345334981" lon="17.97223361042">
        <ele>59.4</ele>
        <time>2018-01-15T18:13:39Z</time>
      </trkpt>
      <trkpt lat="62.633337204538" lon="17.972278369766">
        <ele>59.4</ele>
        <time>2018-01-15T18:13:40Z</time>
      </trkpt>
      <trkpt lat="62.633328319724" lon="17.972325392225">
        <ele>59.6</ele>
        <time>2018-01-15T18:13:41Z</time>
      </trkpt>
      <trkpt lat="62.633310969191" lon="17.97243477602">
        <ele>59.6</ele>
        <time>2018-01-15T18:13:43Z</time>
      </trkpt>
      <trkpt lat="62.633303257843" lon="17.972483558678">
        <ele>59.8</ele>
        <time>2018-01-15T18:13:44Z</time>
      </trkpt>
      <trkpt lat="62.633294959762" lon="17.972534772087">
        <ele>59.8</ele>
        <time>2018-01-15T18:13:45Z</time>
      </trkpt>
      <trkpt lat="62.633284901482" lon="17.972586739867">
        <ele>60</ele>
        <time>2018-01-15T18:13:46Z</time>
      </trkpt>
      <trkpt lat="62.633274591745" lon="17.972641054579">
        <ele>60.2</ele>
        <time>2018-01-15T18:13:47Z</time>
      </trkpt>
      <trkpt lat="62.633264030551" lon="17.97269377673">
        <ele>60.4</ele>
        <time>2018-01-15T18:13:48Z</time>
      </trkpt>
      <trkpt lat="62.633255564832" lon="17.972734512764">
        <ele>60.6</ele>
        <time>2018-01-15T18:13:49Z</time>
      </trkpt>
      <trkpt lat="62.633245841828" lon="17.972782373413">
        <ele>60.8</ele>
        <time>2018-01-15T18:13:50Z</time>
      </trkpt>
      <trkpt lat="62.633232346969" lon="17.972838699781">
        <ele>61</ele>
        <time>2018-01-15T18:13:51Z</time>
      </trkpt>
      <trkpt lat="62.633224803259" lon="17.972888907362">
        <ele>61.2</ele>
        <time>2018-01-15T18:13:52Z</time>
      </trkpt>
      <trkpt lat="62.633213403875" lon="17.972941378056">
        <ele>61.2</ele>
        <time>2018-01-15T18:13:53Z</time>
      </trkpt>
      <trkpt lat="62.633203848509" lon="17.972994016388">
        <ele>61.4</ele>
        <time>2018-01-15T18:13:54Z</time>
      </trkpt>
      <trkpt lat="62.633195047514" lon="17.973038775734">
        <ele>61.6</ele>
        <time>2018-01-15T18:13:55Z</time>
      </trkpt>
      <trkpt lat="62.633183480492" lon="17.973096610844">
        <ele>61.6</ele>
        <time>2018-01-15T18:13:56Z</time>
      </trkpt>
      <trkpt lat="62.633174679497" lon="17.973147740434">
        <ele>61.6</ele>
        <time>2018-01-15T18:13:57Z</time>
      </trkpt>
      <trkpt lat="62.633165878502" lon="17.973195181988">
        <ele>61.8</ele>
        <time>2018-01-15T18:13:58Z</time>
      </trkpt>
      <trkpt lat="62.633154814394" lon="17.973243964646">
        <ele>61.8</ele>
        <time>2018-01-15T18:13:59Z</time>
      </trkpt>
      <trkpt lat="62.63314509139" lon="17.973293585494">
        <ele>62</ele>
        <time>2018-01-15T18:14:00Z</time>
      </trkpt>
      <trkpt lat="62.633132015626" lon="17.973344128351">
        <ele>62</ele>
        <time>2018-01-15T18:14:01Z</time>
      </trkpt>
      <trkpt lat="62.633119610414" lon="17.973389893525">
        <ele>62</ele>
        <time>2018-01-15T18:14:02Z</time>
      </trkpt>
      <trkpt lat="62.633110306505" lon="17.973433647043">
        <ele>62</ele>
        <time>2018-01-15T18:14:03Z</time>
      </trkpt>
      <trkpt lat="62.633100332044" lon="17.973476310914">
        <ele>61.8</ele>
        <time>2018-01-15T18:14:04Z</time>
      </trkpt>
      <trkpt lat="62.633089351755" lon="17.973521237898">
        <ele>61.8</ele>
        <time>2018-01-15T18:14:05Z</time>
      </trkpt>
      <trkpt lat="62.633077868552" lon="17.97357890537">
        <ele>61.8</ele>
        <time>2018-01-15T18:14:06Z</time>
      </trkpt>
      <trkpt lat="62.633068313186" lon="17.973627604209">
        <ele>62</ele>
        <time>2018-01-15T18:14:07Z</time>
      </trkpt>
      <trkpt lat="62.633057751992" lon="17.97367948817">
        <ele>62</ele>
        <time>2018-01-15T18:14:08Z</time>
      </trkpt>
      <trkpt lat="62.633047526074" lon="17.973732629416">
        <ele>62.6</ele>
        <time>2018-01-15T18:14:09Z</time>
      </trkpt>
      <trkpt lat="62.633036881061" lon="17.973780238608">
        <ele>62.6</ele>
        <time>2018-01-15T18:14:10Z</time>
      </trkpt>
      <trkpt lat="62.633026152229" lon="17.973831703474">
        <ele>62.8</ele>
        <time>2018-01-15T18:14:11Z</time>
      </trkpt>
      <trkpt lat="62.633012322094" lon="17.973892472249">
        <ele>63</ele>
        <time>2018-01-15T18:14:12Z</time>
      </trkpt>
      <trkpt lat="62.633001928538" lon="17.973943685658">
        <ele>63.2</ele>
        <time>2018-01-15T18:14:13Z</time>
      </trkpt>
      <trkpt lat="62.632989439507" lon="17.973996072533">
        <ele>63</ele>
        <time>2018-01-15T18:14:14Z</time>
      </trkpt>
      <trkpt lat="62.632977704847" lon="17.974043178811">
        <ele>63</ele>
        <time>2018-01-15T18:14:15Z</time>
      </trkpt>
      <trkpt lat="62.632971669879" lon="17.974078634248">
        <ele>63</ele>
        <time>2018-01-15T18:14:16Z</time>
      </trkpt>
      <trkpt lat="62.632957672106" lon="17.97414384543">
        <ele>62.6</ele>
        <time>2018-01-15T18:14:17Z</time>
      </trkpt>
      <trkpt lat="62.632944009609" lon="17.974193214821">
        <ele>62.8</ele>
        <time>2018-01-15T18:14:18Z</time>
      </trkpt>
      <trkpt lat="62.632934538062" lon="17.974235459597">
        <ele>62.8</ele>
        <time>2018-01-15T18:14:19Z</time>
      </trkpt>
      <trkpt lat="62.632924479782" lon="17.974283404065">
        <ele>62.8</ele>
        <time>2018-01-15T18:14:20Z</time>
      </trkpt>
      <trkpt lat="62.632910649647" lon="17.974338221691">
        <ele>62.8</ele>
        <time>2018-01-15T18:14:21Z</time>
      </trkpt>
      <trkpt lat="62.632900759005" lon="17.974377365164">
        <ele>62.8</ele>
        <time>2018-01-15T18:14:22Z</time>
      </trkpt>
      <trkpt lat="62.632881732092" lon="17.974422459786">
        <ele>62.8</ele>
        <time>2018-01-15T18:14:23Z</time>
      </trkpt>
      <trkpt lat="62.632860442066" lon="17.974451125884">
        <ele>63</ele>
        <time>2018-01-15T18:14:24Z</time>
      </trkpt>
      <trkpt lat="62.632837810936" lon="17.97447660686">
        <ele>63.2</ele>
        <time>2018-01-15T18:14:25Z</time>
      </trkpt>
      <trkpt lat="62.632809144838" lon="17.974491359004">
        <ele>63.2</ele>
        <time>2018-01-15T18:14:26Z</time>
      </trkpt>
      <trkpt lat="62.632784753509" lon="17.974490520814">
        <ele>63</ele>
        <time>2018-01-15T18:14:27Z</time>
      </trkpt>
      <trkpt lat="62.632758434343" lon="17.974483815294">
        <ele>63.2</ele>
        <time>2018-01-15T18:14:28Z</time>
      </trkpt>
      <trkpt lat="62.632732953367" lon="17.974464285467">
        <ele>63.4</ele>
        <time>2018-01-15T18:14:29Z</time>
      </trkpt>
      <trkpt lat="62.632713758816" lon="17.974452215531">
        <ele>63.6</ele>
        <time>2018-01-15T18:14:30Z</time>
      </trkpt>
      <trkpt lat="62.63268660146" lon="17.974436792835">
        <ele>63.8</ele>
        <time>2018-01-15T18:14:31Z</time>
      </trkpt>
      <trkpt lat="62.63266480852" lon="17.974412736782">
        <ele>64.2</ele>
        <time>2018-01-15T18:14:32Z</time>
      </trkpt>
      <trkpt lat="62.632642345028" lon="17.974388345453">
        <ele>64</ele>
        <time>2018-01-15T18:14:33Z</time>
      </trkpt>
      <trkpt lat="62.632623988667" lon="17.974375102051">
        <ele>64.4</ele>
        <time>2018-01-15T18:14:34Z</time>
      </trkpt>
      <trkpt lat="62.632600938442" lon="17.974359008803">
        <ele>64.6</ele>
        <time>2018-01-15T18:14:35Z</time>
      </trkpt>
      <trkpt lat="62.632573948724" lon="17.974340149528">
        <ele>64.4</ele>
        <time>2018-01-15T18:14:36Z</time>
      </trkpt>
      <trkpt lat="62.632552071965" lon="17.974322044624">
        <ele>64.6</ele>
        <time>2018-01-15T18:14:37Z</time>
      </trkpt>
      <trkpt lat="62.632528351188" lon="17.9742972342">
        <ele>64.4</ele>
        <time>2018-01-15T18:14:38Z</time>
      </trkpt>
      <trkpt lat="62.632508737542" lon="17.974272507595">
        <ele>64.2</ele>
        <time>2018-01-15T18:14:39Z</time>
      </trkpt>
      <trkpt lat="62.632488034249" lon="17.974254235053">
        <ele>64</ele>
        <time>2018-01-15T18:14:40Z</time>
      </trkpt>
      <trkpt lat="62.632466325128" lon="17.974231436285">
        <ele>64</ele>
        <time>2018-01-15T18:14:41Z</time>
      </trkpt>
      <trkpt lat="62.632443442541" lon="17.974206374404">
        <ele>63.8</ele>
        <time>2018-01-15T18:14:42Z</time>
      </trkpt>
      <trkpt lat="62.632423493619" lon="17.974188604776">
        <ele>63.6</ele>
        <time>2018-01-15T18:14:43Z</time>
      </trkpt>
      <trkpt lat="62.632399269928" lon="17.974171757157">
        <ele>63.6</ele>
        <time>2018-01-15T18:14:44Z</time>
      </trkpt>
      <trkpt lat="62.632378566635" lon="17.974148371656">
        <ele>63.4</ele>
        <time>2018-01-15T18:14:45Z</time>
      </trkpt>
      <trkpt lat="62.632356270781" lon="17.974120962843">
        <ele>63.4</ele>
        <time>2018-01-15T18:14:46Z</time>
      </trkpt>
      <trkpt lat="62.6323312089" lon="17.974095900962">
        <ele>63.6</ele>
        <time>2018-01-15T18:14:47Z</time>
      </trkpt>
      <trkpt lat="62.632307320485" lon="17.974073605108">
        <ele>63.6</ele>
        <time>2018-01-15T18:14:48Z</time>
      </trkpt>
      <trkpt lat="62.632285611364" lon="17.974056506032">
        <ele>63.8</ele>
        <time>2018-01-15T18:14:49Z</time>
      </trkpt>
      <trkpt lat="62.632259376017" lon="17.974041418612">
        <ele>64</ele>
        <time>2018-01-15T18:14:50Z</time>
      </trkpt>
      <trkpt lat="62.632233224489" lon="17.97402146969">
        <ele>64</ele>
        <time>2018-01-15T18:14:51Z</time>
      </trkpt>
      <trkpt lat="62.632209503712" lon="17.974002442777">
        <ele>64</ele>
        <time>2018-01-15T18:14:52Z</time>
      </trkpt>
      <trkpt lat="62.632184777107" lon="17.973978386724">
        <ele>64.2</ele>
        <time>2018-01-15T18:14:53Z</time>
      </trkpt>
      <trkpt lat="62.63216273271" lon="17.973955671775">
        <ele>64</ele>
        <time>2018-01-15T18:14:54Z</time>
      </trkpt>
      <trkpt lat="62.632143035245" lon="17.973936309586">
        <ele>64</ele>
        <time>2018-01-15T18:14:55Z</time>
      </trkpt>
      <trkpt lat="62.632112608948" lon="17.973909738963">
        <ele>64</ele>
        <time>2018-01-15T18:14:56Z</time>
      </trkpt>
      <trkpt lat="62.632088301438" lon="17.973884509444">
        <ele>63.8</ele>
        <time>2018-01-15T18:14:57Z</time>
      </trkpt>
      <trkpt lat="62.63206885543" lon="17.973862800323">
        <ele>64</ele>
        <time>2018-01-15T18:14:58Z</time>
      </trkpt>
      <trkpt lat="62.632045889024" lon="17.973830194732">
        <ele>63.8</ele>
        <time>2018-01-15T18:14:59Z</time>
      </trkpt>
      <trkpt lat="62.632023509351" lon="17.973803959385">
        <ele>64.2</ele>
        <time>2018-01-15T18:15:00Z</time>
      </trkpt>
      <trkpt lat="62.631999788574" lon="17.973772862536">
        <ele>64.2</ele>
        <time>2018-01-15T18:15:01Z</time>
      </trkpt>
      <trkpt lat="62.63197497815" lon="17.973742184782">
        <ele>64.2</ele>
        <time>2018-01-15T18:15:02Z</time>
      </trkpt>
      <trkpt lat="62.631952766115" lon="17.973719469833">
        <ele>64</ele>
        <time>2018-01-15T18:15:03Z</time>
      </trkpt>
      <trkpt lat="62.631931308451" lon="17.973697006341">
        <ele>63.8</ele>
        <time>2018-01-15T18:15:04Z</time>
      </trkpt>
      <trkpt lat="62.631906833303" lon="17.973668675519">
        <ele>63.8</ele>
        <time>2018-01-15T18:15:05Z</time>
      </trkpt>
      <trkpt lat="62.631880514137" lon="17.97364176962">
        <ele>63.6</ele>
        <time>2018-01-15T18:15:06Z</time>
      </trkpt>
      <trkpt lat="62.63185763155" lon="17.973617545929">
        <ele>63.2</ele>
        <time>2018-01-15T18:15:07Z</time>
      </trkpt>
      <trkpt lat="62.631833994592" lon="17.973590891487">
        <ele>63.2</ele>
        <time>2018-01-15T18:15:08Z</time>
      </trkpt>
      <trkpt lat="62.631810273815" lon="17.973564488502">
        <ele>63</ele>
        <time>2018-01-15T18:15:09Z</time>
      </trkpt>
      <trkpt lat="62.631789235246" lon="17.973536660594">
        <ele>62.8</ele>
        <time>2018-01-15T18:15:10Z</time>
      </trkpt>
      <trkpt lat="62.63176710703" lon="17.973503049175">
        <ele>63</ele>
        <time>2018-01-15T18:15:11Z</time>
      </trkpt>
      <trkpt lat="62.631742715701" lon="17.973470946498">
        <ele>63.2</ele>
        <time>2018-01-15T18:15:12Z</time>
      </trkpt>
      <trkpt lat="62.631723102055" lon="17.973443034771">
        <ele>62.8</ele>
        <time>2018-01-15T18:15:13Z</time>
      </trkpt>
      <trkpt lat="62.631696112337" lon="17.973404645669">
        <ele>62.8</ele>
        <time>2018-01-15T18:15:14Z</time>
      </trkpt>
      <trkpt lat="62.631674570854" lon="17.973376817761">
        <ele>62.8</ele>
        <time>2018-01-15T18:15:15Z</time>
      </trkpt>
      <trkpt lat="62.631650011887" lon="17.973343793075">
        <ele>62.6</ele>
        <time>2018-01-15T18:15:16Z</time>
      </trkpt>
      <trkpt lat="62.631627799852" lon="17.973303727593">
        <ele>62.6</ele>
        <time>2018-01-15T18:15:17Z</time>
      </trkpt>
      <trkpt lat="62.631606677464" lon="17.973269864717">
        <ele>62.4</ele>
        <time>2018-01-15T18:15:18Z</time>
      </trkpt>
      <trkpt lat="62.63158773437" lon="17.973236253298">
        <ele>62.2</ele>
        <time>2018-01-15T18:15:19Z</time>
      </trkpt>
      <trkpt lat="62.631566276706" lon="17.973194930531">
        <ele>62</ele>
        <time>2018-01-15T18:15:20Z</time>
      </trkpt>
      <trkpt lat="62.631543142662" lon="17.973146818425">
        <ele>62</ele>
        <time>2018-01-15T18:15:21Z</time>
      </trkpt>
      <trkpt lat="62.631523445197" lon="17.973108848418">
        <ele>62</ele>
        <time>2018-01-15T18:15:22Z</time>
      </trkpt>
      <trkpt lat="62.631503244818" lon="17.973062747968">
        <ele>61.8</ele>
        <time>2018-01-15T18:15:23Z</time>
      </trkpt>
      <trkpt lat="62.631485559009" lon="17.973018575355">
        <ele>61.8</ele>
        <time>2018-01-15T18:15:24Z</time>
      </trkpt>
      <trkpt lat="62.631469046666" lon="17.972976917312">
        <ele>61.8</ele>
        <time>2018-01-15T18:15:25Z</time>
      </trkpt>
      <trkpt lat="62.631455467988" lon="17.97293769002">
        <ele>61.8</ele>
        <time>2018-01-15T18:15:26Z</time>
      </trkpt>
      <trkpt lat="62.631432417763" lon="17.972880441643">
        <ele>61.6</ele>
        <time>2018-01-15T18:15:27Z</time>
      </trkpt>
      <trkpt lat="62.631414480497" lon="17.972836855763">
        <ele>61.4</ele>
        <time>2018-01-15T18:15:28Z</time>
      </trkpt>
      <trkpt lat="62.631377683956" lon="17.972733590755">
        <ele>61.2</ele>
        <time>2018-01-15T18:15:30Z</time>
      </trkpt>
      <trkpt lat="62.63135974669" lon="17.972680952423">
        <ele>61</ele>
        <time>2018-01-15T18:15:31Z</time>
      </trkpt>
      <trkpt lat="62.631341725605" lon="17.972629068462">
        <ele>61</ele>
        <time>2018-01-15T18:15:32Z</time>
      </trkpt>
      <trkpt lat="62.631321944321" lon="17.972579028519">
        <ele>60.8</ele>
        <time>2018-01-15T18:15:33Z</time>
      </trkpt>
      <trkpt lat="62.631307695091" lon="17.97254038796">
        <ele>60.6</ele>
        <time>2018-01-15T18:15:34Z</time>
      </trkpt>
      <trkpt lat="62.631289590187" lon="17.97249261113">
        <ele>60.6</ele>
        <time>2018-01-15T18:15:35Z</time>
      </trkpt>
      <trkpt lat="62.631269557446" lon="17.972435111296">
        <ele>60.6</ele>
        <time>2018-01-15T18:15:36Z</time>
      </trkpt>
      <trkpt lat="62.631253380379" lon="17.972388591751">
        <ele>60.4</ele>
        <time>2018-01-15T18:15:37Z</time>
      </trkpt>
      <trkpt lat="62.631237454769" lon="17.972339054722">
        <ele>60.2</ele>
        <time>2018-01-15T18:15:38Z</time>
      </trkpt>
      <trkpt lat="62.631221780616" lon="17.972286332571">
        <ele>60.2</ele>
        <time>2018-01-15T18:15:39Z</time>
      </trkpt>
      <trkpt lat="62.631207531386" lon="17.972242746691">
        <ele>60</ele>
        <time>2018-01-15T18:15:40Z</time>
      </trkpt>
      <trkpt lat="62.631191521957" lon="17.972188096703">
        <ele>60</ele>
        <time>2018-01-15T18:15:41Z</time>
      </trkpt>
      <trkpt lat="62.631173417053" lon="17.972127495566">
        <ele>59.8</ele>
        <time>2018-01-15T18:15:42Z</time>
      </trkpt>
      <trkpt lat="62.63115858109" lon="17.972076365976">
        <ele>59.8</ele>
        <time>2018-01-15T18:15:43Z</time>
      </trkpt>
      <trkpt lat="62.631143577489" lon="17.972019452875">
        <ele>59.8</ele>
        <time>2018-01-15T18:15:44Z</time>
      </trkpt>
      <trkpt lat="62.631129160621" lon="17.971969999665">
        <ele>59.8</ele>
        <time>2018-01-15T18:15:45Z</time>
      </trkpt>
      <trkpt lat="62.631113905563" lon="17.971913924754">
        <ele>59.8</ele>
        <time>2018-01-15T18:15:46Z</time>
      </trkpt>
      <trkpt lat="62.631097644677" lon="17.971853575074">
        <ele>60</ele>
        <time>2018-01-15T18:15:47Z</time>
      </trkpt>
      <trkpt lat="62.631081132334" lon="17.971797583982">
        <ele>60</ele>
        <time>2018-01-15T18:15:48Z</time>
      </trkpt>
      <trkpt lat="62.631067972751" lon="17.971744191279">
        <ele>59.8</ele>
        <time>2018-01-15T18:15:49Z</time>
      </trkpt>
      <trkpt lat="62.631055399901" lon="17.971680656477">
        <ele>59.6</ele>
        <time>2018-01-15T18:15:50Z</time>
      </trkpt>
      <trkpt lat="62.631042240318" lon="17.971623743376">
        <ele>59.6</ele>
        <time>2018-01-15T18:15:51Z</time>
      </trkpt>
      <trkpt lat="62.631029080735" lon="17.971568590474">
        <ele>59.6</ele>
        <time>2018-01-15T18:15:52Z</time>
      </trkpt>
      <trkpt lat="62.631018268084" lon="17.971509581898">
        <ele>59.4</ele>
        <time>2018-01-15T18:15:53Z</time>
      </trkpt>
      <trkpt lat="62.631007623071" lon="17.971451327693">
        <ele>59.4</ele>
        <time>2018-01-15T18:15:54Z</time>
      </trkpt>
      <trkpt lat="62.630997732429" lon="17.971401120112">
        <ele>59.4</ele>
        <time>2018-01-15T18:15:55Z</time>
      </trkpt>
      <trkpt lat="62.630988847615" lon="17.971344207011">
        <ele>59.4</ele>
        <time>2018-01-15T18:15:56Z</time>
      </trkpt>
      <trkpt lat="62.630975520394" lon="17.971278660553">
        <ele>59.2</ele>
        <time>2018-01-15T18:15:57Z</time>
      </trkpt>
      <trkpt lat="62.630965462114" lon="17.971222920918">
        <ele>58.8</ele>
        <time>2018-01-15T18:15:58Z</time>
      </trkpt>
      <trkpt lat="62.630958337499" lon="17.971165421084">
        <ele>58.8</ele>
        <time>2018-01-15T18:15:59Z</time>
      </trkpt>
      <trkpt lat="62.630952134893" lon="17.971107585974">
        <ele>58.6</ele>
        <time>2018-01-15T18:16:00Z</time>
      </trkpt>
      <trkpt lat="62.630947692486" lon="17.971051930158">
        <ele>58.4</ele>
        <time>2018-01-15T18:16:01Z</time>
      </trkpt>
      <trkpt lat="62.630944255907" lon="17.970995017057">
        <ele>58.2</ele>
        <time>2018-01-15T18:16:02Z</time>
      </trkpt>
      <trkpt lat="62.630939729681" lon="17.970943300734">
        <ele>58</ele>
        <time>2018-01-15T18:16:03Z</time>
      </trkpt>
      <trkpt lat="62.630934365265" lon="17.970897200284">
        <ele>58</ele>
        <time>2018-01-15T18:16:04Z</time>
      </trkpt>
      <trkpt lat="62.630927911202" lon="17.970842550296">
        <ele>58</ele>
        <time>2018-01-15T18:16:05Z</time>
      </trkpt>
      <trkpt lat="62.630919110207" lon="17.970775746553">
        <ele>58</ele>
        <time>2018-01-15T18:16:06Z</time>
      </trkpt>
      <trkpt lat="62.630910225393" lon="17.970718330538">
        <ele>58</ele>
        <time>2018-01-15T18:16:07Z</time>
      </trkpt>
      <trkpt lat="62.630901843493" lon="17.970654292822">
        <ele>57.8</ele>
        <time>2018-01-15T18:16:08Z</time>
      </trkpt>
      <trkpt lat="62.630894802697" lon="17.970597547359">
        <ele>57.8</ele>
        <time>2018-01-15T18:16:09Z</time>
      </trkpt>
      <trkpt lat="62.630890025014" lon="17.970550021986">
        <ele>57.6</ele>
        <time>2018-01-15T18:16:10Z</time>
      </trkpt>
      <trkpt lat="62.63088365477" lon="17.970489839944">
        <ele>57.6</ele>
        <time>2018-01-15T18:16:11Z</time>
      </trkpt>
      <trkpt lat="62.630875105232" lon="17.970422030373">
        <ele>57.6</ele>
        <time>2018-01-15T18:16:12Z</time>
      </trkpt>
      <trkpt lat="62.630868986445" lon="17.970367128928">
        <ele>57.6</ele>
        <time>2018-01-15T18:16:13Z</time>
      </trkpt>
      <trkpt lat="62.63086353821" lon="17.970313149492">
        <ele>57.6</ele>
        <time>2018-01-15T18:16:14Z</time>
      </trkpt>
      <trkpt lat="62.630853060835" lon="17.970269060698">
        <ele>57.8</ele>
        <time>2018-01-15T18:16:15Z</time>
      </trkpt>
      <trkpt lat="62.630834117741" lon="17.970237712392">
        <ele>57.8</ele>
        <time>2018-01-15T18:16:16Z</time>
      </trkpt>
      <trkpt lat="62.630811402792" lon="17.970219775126">
        <ele>57.6</ele>
        <time>2018-01-15T18:16:17Z</time>
      </trkpt>
      <trkpt lat="62.630789190757" lon="17.970210974131">
        <ele>57.6</ele>
        <time>2018-01-15T18:16:18Z</time>
      </trkpt>
      <trkpt lat="62.630767481636" lon="17.970218266384">
        <ele>57.6</ele>
        <time>2018-01-15T18:16:19Z</time>
      </trkpt>
      <trkpt lat="62.63074200066" lon="17.970223044067">
        <ele>57.4</ele>
        <time>2018-01-15T18:16:20Z</time>
      </trkpt>
      <trkpt lat="62.630718782797" lon="17.970230839234">
        <ele>57.2</ele>
        <time>2018-01-15T18:16:21Z</time>
      </trkpt>
      <trkpt lat="62.630697995685" lon="17.970239304953">
        <ele>57</ele>
        <time>2018-01-15T18:16:22Z</time>
      </trkpt>
      <trkpt lat="62.630674777822" lon="17.970245004645">
        <ele>56.8</ele>
        <time>2018-01-15T18:16:23Z</time>
      </trkpt>
      <trkpt lat="62.630652901063" lon="17.970259840608">
        <ele>56.4</ele>
        <time>2018-01-15T18:16:24Z</time>
      </trkpt>
      <trkpt lat="62.630634041788" lon="17.970277023503">
        <ele>56.2</ele>
        <time>2018-01-15T18:16:25Z</time>
      </trkpt>
      <trkpt lat="62.630610488649" lon="17.970286411231">
        <ele>56.2</ele>
        <time>2018-01-15T18:16:26Z</time>
      </trkpt>
      <trkpt lat="62.63058861189" lon="17.970301247194">
        <ele>55.8</ele>
        <time>2018-01-15T18:16:27Z</time>
      </trkpt>
      <trkpt lat="62.630566232217" lon="17.970301833927">
        <ele>55.8</ele>
        <time>2018-01-15T18:16:28Z</time>
      </trkpt>
      <trkpt lat="62.630544355458" lon="17.970285321584">
        <ele>55.6</ele>
        <time>2018-01-15T18:16:29Z</time>
      </trkpt>
      <trkpt lat="62.630524657993" lon="17.970257074581">
        <ele>55.6</ele>
        <time>2018-01-15T18:16:30Z</time>
      </trkpt>
      <trkpt lat="62.630511666048" lon="17.970213404882">
        <ele>55.8</ele>
        <time>2018-01-15T18:16:31Z</time>
      </trkpt>
      <trkpt lat="62.630505295804" lon="17.970169399907">
        <ele>56</ele>
        <time>2018-01-15T18:16:32Z</time>
      </trkpt>
      <trkpt lat="62.630501859225" lon="17.97012388619">
        <ele>56.2</ele>
        <time>2018-01-15T18:16:33Z</time>
      </trkpt>
      <trkpt lat="62.630499679931" lon="17.970080887043">
        <ele>56.6</ele>
        <time>2018-01-15T18:16:34Z</time>
      </trkpt>
      <trkpt lat="62.630494231696" lon="17.970037217344">
        <ele>57</ele>
        <time>2018-01-15T18:16:35Z</time>
      </trkpt>
      <trkpt lat="62.630487107081" lon="17.969987847953">
        <ele>57.4</ele>
        <time>2018-01-15T18:16:36Z</time>
      </trkpt>
      <trkpt lat="62.63047797081" lon="17.969951386688">
        <ele>57.8</ele>
        <time>2018-01-15T18:16:37Z</time>
      </trkpt>
      <trkpt lat="62.630474366593" lon="17.969926827721">
        <ele>58</ele>
        <time>2018-01-15T18:16:38Z</time>
      </trkpt>
      <trkpt lat="62.630473612222" lon="17.969912159396">
        <ele>58</ele>
        <time>2018-01-15T18:16:39Z</time>
      </trkpt>
      <trkpt lat="62.630474450412" lon="17.969920038382">
        <ele>58</ele>
        <time>2018-01-15T18:16:40Z</time>
      </trkpt>
      <trkpt lat="62.63047377986" lon="17.969918278183">
        <ele>58</ele>
        <time>2018-01-15T18:16:41Z</time>
      </trkpt>
      <trkpt lat="62.630571764271" lon="17.970274592752">
        <ele>58.2</ele>
        <time>2018-01-15T18:17:27Z</time>
      </trkpt>
      <trkpt lat="62.630591880831" lon="17.970279118978">
        <ele>58.2</ele>
        <time>2018-01-15T18:17:28Z</time>
      </trkpt>
      <trkpt lat="62.630617780902" lon="17.970274508933">
        <ele>58.4</ele>
        <time>2018-01-15T18:17:29Z</time>
      </trkpt>
      <trkpt lat="62.630638232738" lon="17.970257074581">
        <ele>58.2</ele>
        <time>2018-01-15T18:17:30Z</time>
      </trkpt>
      <trkpt lat="62.630666144465" lon="17.970244166455">
        <ele>58.2</ele>
        <time>2018-01-15T18:17:31Z</time>
      </trkpt>
      <trkpt lat="62.630689446147" lon="17.970232934709">
        <ele>58</ele>
        <time>2018-01-15T18:17:32Z</time>
      </trkpt>
      <trkpt lat="62.630714508028" lon="17.970217679651">
        <ele>57.6</ele>
        <time>2018-01-15T18:17:33Z</time>
      </trkpt>
      <trkpt lat="62.630729260172" lon="17.97020938157">
        <ele>57.2</ele>
        <time>2018-01-15T18:17:34Z</time>
      </trkpt>
      <trkpt lat="62.630752142759" lon="17.970196473444">
        <ele>57</ele>
        <time>2018-01-15T18:17:35Z</time>
      </trkpt>
      <trkpt lat="62.630775444441" lon="17.970178703816">
        <ele>57</ele>
        <time>2018-01-15T18:17:36Z</time>
      </trkpt>
      <trkpt lat="62.630798578485" lon="17.970168645536">
        <ele>57</ele>
        <time>2018-01-15T18:17:37Z</time>
      </trkpt>
      <trkpt lat="62.63081827595" lon="17.970160095998">
        <ele>57.2</ele>
        <time>2018-01-15T18:17:38Z</time>
      </trkpt>
      <trkpt lat="62.630832441361" lon="17.970153641935">
        <ele>57.4</ele>
        <time>2018-01-15T18:17:39Z</time>
      </trkpt>
      <trkpt lat="62.630844762754" lon="17.97014316456">
        <ele>57.6</ele>
        <time>2018-01-15T18:17:40Z</time>
      </trkpt>
      <trkpt lat="62.630853563749" lon="17.970134447384">
        <ele>57.6</ele>
        <time>2018-01-15T18:17:41Z</time>
      </trkpt>
      <trkpt lat="62.630859682536" lon="17.970126065484">
        <ele>57.4</ele>
        <time>2018-01-15T18:17:42Z</time>
      </trkpt>
      <trkpt lat="62.630864627857" lon="17.970122880362">
        <ele>57.4</ele>
        <time>2018-01-15T18:17:43Z</time>
      </trkpt>
      <trkpt lat="62.630860856002" lon="17.970114163186">
        <ele>57.2</ele>
        <time>2018-01-15T18:17:44Z</time>
      </trkpt>
      <trkpt lat="62.631187582464" lon="17.969972089981">
        <ele>56</ele>
        <time>2018-01-15T18:20:15Z</time>
      </trkpt>
      <trkpt lat="62.631220104236" lon="17.969954655629">
        <ele>56</ele>
        <time>2018-01-15T18:20:16Z</time>
      </trkpt>
      <trkpt lat="62.631250614352" lon="17.969938227105">
        <ele>55.8</ele>
        <time>2018-01-15T18:20:17Z</time>
      </trkpt>
      <trkpt lat="62.631280537735" lon="17.96992272059">
        <ele>55.4</ele>
        <time>2018-01-15T18:20:18Z</time>
      </trkpt>
      <trkpt lat="62.631307862729" lon="17.969908555179">
        <ele>55.2</ele>
        <time>2018-01-15T18:20:19Z</time>
      </trkpt>
      <trkpt lat="62.631337869931" lon="17.969891623741">
        <ele>55</ele>
        <time>2018-01-15T18:20:20Z</time>
      </trkpt>
      <trkpt lat="62.631366619848" lon="17.969874608484">
        <ele>54.8</ele>
        <time>2018-01-15T18:20:21Z</time>
      </trkpt>
      <trkpt lat="62.631396207955" lon="17.969857593227">
        <ele>54.4</ele>
        <time>2018-01-15T18:20:22Z</time>
      </trkpt>
      <trkpt lat="62.631425376967" lon="17.969841499979">
        <ele>54.2</ele>
        <time>2018-01-15T18:20:23Z</time>
      </trkpt>
      <trkpt lat="62.631455551807" lon="17.969826747835">
        <ele>54.2</ele>
        <time>2018-01-15T18:20:24Z</time>
      </trkpt>
      <trkpt lat="62.631484217905" lon="17.969813001519">
        <ele>54</ele>
        <time>2018-01-15T18:20:25Z</time>
      </trkpt>
      <trkpt lat="62.631512381089" lon="17.969799171384">
        <ele>54</ele>
        <time>2018-01-15T18:20:26Z</time>
      </trkpt>
      <trkpt lat="62.631546160146" lon="17.969781569394">
        <ele>53.8</ele>
        <time>2018-01-15T18:20:27Z</time>
      </trkpt>
      <trkpt lat="62.631568791276" lon="17.969768912725">
        <ele>53.8</ele>
        <time>2018-01-15T18:20:28Z</time>
      </trkpt>
      <trkpt lat="62.631598547021" lon="17.969751394554">
        <ele>53.6</ele>
        <time>2018-01-15T18:20:29Z</time>
      </trkpt>
      <trkpt lat="62.631623441264" lon="17.969732702917">
        <ele>53.8</ele>
        <time>2018-01-15T18:20:30Z</time>
      </trkpt>
      <trkpt lat="62.631658645244" lon="17.969705545561">
        <ele>53.8</ele>
        <time>2018-01-15T18:20:31Z</time>
      </trkpt>
      <trkpt lat="62.631685634962" lon="17.969678220567">
        <ele>53.8</ele>
        <time>2018-01-15T18:20:32Z</time>
      </trkpt>
      <trkpt lat="62.631711954128" lon="17.969648800098">
        <ele>53.8</ele>
        <time>2018-01-15T18:20:33Z</time>
      </trkpt>
      <trkpt lat="62.631738524751" lon="17.96962097219">
        <ele>53.8</ele>
        <time>2018-01-15T18:20:34Z</time>
      </trkpt>
      <trkpt lat="62.631768364315" lon="17.969591384083">
        <ele>53.8</ele>
        <time>2018-01-15T18:20:35Z</time>
      </trkpt>
      <trkpt lat="62.631805412313" lon="17.969563807632">
        <ele>54.2</ele>
        <time>2018-01-15T18:20:36Z</time>
      </trkpt>
      <trkpt lat="62.631831480022" lon="17.969551486239">
        <ele>54.4</ele>
        <time>2018-01-15T18:20:37Z</time>
      </trkpt>
      <trkpt lat="62.63186266069" lon="17.969555928646">
        <ele>54.4</ele>
        <time>2018-01-15T18:20:38Z</time>
      </trkpt>
      <trkpt lat="62.631886297648" lon="17.969559700501">
        <ele>54.2</ele>
        <time>2018-01-15T18:20:39Z</time>
      </trkpt>
      <trkpt lat="62.63190876114" lon="17.969570429333">
        <ele>54.2</ele>
        <time>2018-01-15T18:20:40Z</time>
      </trkpt>
      <trkpt lat="62.631937511057" lon="17.969572860084">
        <ele>54.2</ele>
        <time>2018-01-15T18:20:41Z</time>
      </trkpt>
      <trkpt lat="62.631971206295" lon="17.969567998582">
        <ele>54.4</ele>
        <time>2018-01-15T18:20:42Z</time>
      </trkpt>
      <trkpt lat="62.632001129678" lon="17.969562717985">
        <ele>54.4</ele>
        <time>2018-01-15T18:20:43Z</time>
      </trkpt>
      <trkpt lat="62.632029795776" lon="17.969557605026">
        <ele>54.4</ele>
        <time>2018-01-15T18:20:44Z</time>
      </trkpt>
      <trkpt lat="62.63205544439" lon="17.969556515379">
        <ele>54.4</ele>
        <time>2018-01-15T18:20:45Z</time>
      </trkpt>
      <trkpt lat="62.632081931194" lon="17.96955140242">
        <ele>54.4</ele>
        <time>2018-01-15T18:20:46Z</time>
      </trkpt>
      <trkpt lat="62.632116045527" lon="17.969537320828">
        <ele>54.6</ele>
        <time>2018-01-15T18:20:47Z</time>
      </trkpt>
      <trkpt lat="62.632148818756" lon="17.96952709491">
        <ele>54.6</ele>
        <time>2018-01-15T18:20:48Z</time>
      </trkpt>
      <trkpt lat="62.632177987768" lon="17.969526340539">
        <ele>54.8</ele>
        <time>2018-01-15T18:20:49Z</time>
      </trkpt>
      <trkpt lat="62.632204223115" lon="17.969515527888">
        <ele>54.6</ele>
        <time>2018-01-15T18:20:50Z</time>
      </trkpt>
      <trkpt lat="62.632231883385" lon="17.969512510404">
        <ele>54.6</ele>
        <time>2018-01-15T18:20:51Z</time>
      </trkpt>
      <trkpt lat="62.632266081537" lon="17.969507229807">
        <ele>54.6</ele>
        <time>2018-01-15T18:20:52Z</time>
      </trkpt>
      <trkpt lat="62.632291059599" lon="17.969505218151">
        <ele>54.6</ele>
        <time>2018-01-15T18:20:53Z</time>
      </trkpt>
      <trkpt lat="62.632321569715" lon="17.969497590622">
        <ele>54.6</ele>
        <time>2018-01-15T18:20:54Z</time>
      </trkpt>
      <trkpt lat="62.632350235813" lon="17.969499015545">
        <ele>54.6</ele>
        <time>2018-01-15T18:20:55Z</time>
      </trkpt>
      <trkpt lat="62.632388457277" lon="17.969502284486">
        <ele>54.6</ele>
        <time>2018-01-15T18:20:56Z</time>
      </trkpt>
      <trkpt lat="62.632419302669" lon="17.969495578966">
        <ele>54.6</ele>
        <time>2018-01-15T18:20:57Z</time>
      </trkpt>
      <trkpt lat="62.632448304043" lon="17.969493483491">
        <ele>54.4</ele>
        <time>2018-01-15T18:20:58Z</time>
      </trkpt>
      <trkpt lat="62.632477556874" lon="17.969492645301">
        <ele>54.4</ele>
        <time>2018-01-15T18:20:59Z</time>
      </trkpt>
      <trkpt lat="62.632504965687" lon="17.969497506803">
        <ele>54.4</ele>
        <time>2018-01-15T18:21:00Z</time>
      </trkpt>
      <trkpt lat="62.632530949577" lon="17.969499602278">
        <ele>54.4</ele>
        <time>2018-01-15T18:21:01Z</time>
      </trkpt>
      <trkpt lat="62.6325659021" lon="17.969504547599">
        <ele>54.4</ele>
        <time>2018-01-15T18:21:02Z</time>
      </trkpt>
      <trkpt lat="62.632592137447" lon="17.969511001662">
        <ele>54.4</ele>
        <time>2018-01-15T18:21:03Z</time>
      </trkpt>
      <trkpt lat="62.632620049174" lon="17.969517539544">
        <ele>54.4</ele>
        <time>2018-01-15T18:21:04Z</time>
      </trkpt>
      <trkpt lat="62.632646116883" lon="17.969529944756">
        <ele>54.4</ele>
        <time>2018-01-15T18:21:05Z</time>
      </trkpt>
      <trkpt lat="62.63267989594" lon="17.969540757407">
        <ele>54.6</ele>
        <time>2018-01-15T18:21:06Z</time>
      </trkpt>
      <trkpt lat="62.632711998617" lon="17.969544864538">
        <ele>54.8</ele>
        <time>2018-01-15T18:21:07Z</time>
      </trkpt>
      <trkpt lat="62.632735467937" lon="17.969549223126">
        <ele>54.8</ele>
        <time>2018-01-15T18:21:08Z</time>
      </trkpt>
      <trkpt lat="62.632763463483" lon="17.969559616682">
        <ele>54.8</ele>
        <time>2018-01-15T18:21:09Z</time>
      </trkpt>
      <trkpt lat="62.632783328586" lon="17.96956565165">
        <ele>55.2</ele>
        <time>2018-01-15T18:21:10Z</time>
      </trkpt>
      <trkpt lat="62.632814257797" lon="17.969570094057">
        <ele>55.4</ele>
        <time>2018-01-15T18:21:11Z</time>
      </trkpt>
      <trkpt lat="62.632840409325" lon="17.969562969442">
        <ele>55.6</ele>
        <time>2018-01-15T18:21:12Z</time>
      </trkpt>
      <trkpt lat="62.632871422355" lon="17.96956900441">
        <ele>55.6</ele>
        <time>2018-01-15T18:21:13Z</time>
      </trkpt>
      <trkpt lat="62.632901932471" lon="17.969575207016">
        <ele>55.8</ele>
        <time>2018-01-15T18:21:14Z</time>
      </trkpt>
      <trkpt lat="62.632921378479" lon="17.969579397966">
        <ele>55.8</ele>
        <time>2018-01-15T18:21:15Z</time>
      </trkpt>
      <trkpt lat="62.632955911907" lon="17.969589875341">
        <ele>56</ele>
        <time>2018-01-15T18:21:16Z</time>
      </trkpt>
      <trkpt lat="62.6329849971" lon="17.969596832318">
        <ele>56.2</ele>
        <time>2018-01-15T18:21:17Z</time>
      </trkpt>
      <trkpt lat="62.633012992646" lon="17.969603034924">
        <ele>56.2</ele>
        <time>2018-01-15T18:21:18Z</time>
      </trkpt>
      <trkpt lat="62.633041323468" lon="17.969615272498">
        <ele>56.2</ele>
        <time>2018-01-15T18:21:19Z</time>
      </trkpt>
      <trkpt lat="62.633072252679" lon="17.969616697421">
        <ele>56</ele>
        <time>2018-01-15T18:21:20Z</time>
      </trkpt>
      <trkpt lat="62.633100834958" lon="17.969625414597">
        <ele>56</ele>
        <time>2018-01-15T18:21:21Z</time>
      </trkpt>
      <trkpt lat="62.633128746685" lon="17.969634718506">
        <ele>56</ele>
        <time>2018-01-15T18:21:22Z</time>
      </trkpt>
      <trkpt lat="62.633152048367" lon="17.96963773599">
        <ele>56</ele>
        <time>2018-01-15T18:21:23Z</time>
      </trkpt>
      <trkpt lat="62.633187671442" lon="17.969649219193">
        <ele>56</ele>
        <time>2018-01-15T18:21:24Z</time>
      </trkpt>
      <trkpt lat="62.633212649504" lon="17.969654164514">
        <ele>56</ele>
        <time>2018-01-15T18:21:25Z</time>
      </trkpt>
      <trkpt lat="62.63324315962" lon="17.969670006305">
        <ele>56.2</ele>
        <time>2018-01-15T18:21:26Z</time>
      </trkpt>
      <trkpt lat="62.633268724415" lon="17.969684171716">
        <ele>56.4</ele>
        <time>2018-01-15T18:21:27Z</time>
      </trkpt>
      <trkpt lat="62.633284147111" lon="17.969690122865">
        <ele>56.4</ele>
        <time>2018-01-15T18:21:28Z</time>
      </trkpt>
      <trkpt lat="62.633313232304" lon="17.969717196402">
        <ele>56.6</ele>
        <time>2018-01-15T18:21:29Z</time>
      </trkpt>
      <trkpt lat="62.633338880918" lon="17.96975508259">
        <ele>56.6</ele>
        <time>2018-01-15T18:21:30Z</time>
      </trkpt>
      <trkpt lat="62.633350615578" lon="17.969816438098">
        <ele>56.4</ele>
        <time>2018-01-15T18:21:31Z</time>
      </trkpt>
      <trkpt lat="62.633357321098" lon="17.969882738927">
        <ele>56.6</ele>
        <time>2018-01-15T18:21:32Z</time>
      </trkpt>
      <trkpt lat="62.633359500392" lon="17.969936466906">
        <ele>57</ele>
        <time>2018-01-15T18:21:33Z</time>
      </trkpt>
      <trkpt lat="62.63336302079" lon="17.969992122722">
        <ele>57</ele>
        <time>2018-01-15T18:21:34Z</time>
      </trkpt>
      <trkpt lat="62.633363523704" lon="17.970040737742">
        <ele>57</ele>
        <time>2018-01-15T18:21:35Z</time>
      </trkpt>
      <trkpt lat="62.633363523704" lon="17.970109217865">
        <ele>57</ele>
        <time>2018-01-15T18:21:36Z</time>
      </trkpt>
      <trkpt lat="62.633367966111" lon="17.970153390478">
        <ele>57.2</ele>
        <time>2018-01-15T18:21:37Z</time>
      </trkpt>
      <trkpt lat="62.633371989423" lon="17.970210638855">
        <ele>57.2</ele>
        <time>2018-01-15T18:21:38Z</time>
      </trkpt>
      <trkpt lat="62.633377353839" lon="17.97026637849">
        <ele>57.4</ele>
        <time>2018-01-15T18:21:39Z</time>
      </trkpt>
      <trkpt lat="62.633379952228" lon="17.970305689601">
        <ele>57.4</ele>
        <time>2018-01-15T18:21:40Z</time>
      </trkpt>
      <trkpt lat="62.633384226997" lon="17.970371571335">
        <ele>57.6</ele>
        <time>2018-01-15T18:21:41Z</time>
      </trkpt>
      <trkpt lat="62.633386406291" lon="17.970420773088">
        <ele>57.8</ele>
        <time>2018-01-15T18:21:42Z</time>
      </trkpt>
      <trkpt lat="62.633390429603" lon="17.970480368397">
        <ele>58</ele>
        <time>2018-01-15T18:21:43Z</time>
      </trkpt>
      <trkpt lat="62.633391770707" lon="17.970537532955">
        <ele>57.8</ele>
        <time>2018-01-15T18:21:44Z</time>
      </trkpt>
      <trkpt lat="62.633394285277" lon="17.970586064156">
        <ele>58</ele>
        <time>2018-01-15T18:21:45Z</time>
      </trkpt>
      <trkpt lat="62.633397638037" lon="17.970646162379">
        <ele>57.8</ele>
        <time>2018-01-15T18:21:46Z</time>
      </trkpt>
      <trkpt lat="62.633401242254" lon="17.970700393272">
        <ele>58</ele>
        <time>2018-01-15T18:21:47Z</time>
      </trkpt>
      <trkpt lat="62.633408534507" lon="17.970760323857">
        <ele>58.2</ele>
        <time>2018-01-15T18:21:48Z</time>
      </trkpt>
      <trkpt lat="62.633414904751" lon="17.970805669936">
        <ele>58.2</ele>
        <time>2018-01-15T18:21:49Z</time>
      </trkpt>
      <trkpt lat="62.633417586959" lon="17.970859984648">
        <ele>58.4</ele>
        <time>2018-01-15T18:21:50Z</time>
      </trkpt>
      <trkpt lat="62.633415407665" lon="17.970925866382">
        <ele>58.6</ele>
        <time>2018-01-15T18:21:51Z</time>
      </trkpt>
      <trkpt lat="62.633418173692" lon="17.970974146126">
        <ele>58.6</ele>
        <time>2018-01-15T18:21:52Z</time>
      </trkpt>
      <trkpt lat="62.633417335502" lon="17.971041117507">
        <ele>58.6</ele>
        <time>2018-01-15T18:21:53Z</time>
      </trkpt>
      <trkpt lat="62.633417335502" lon="17.971100042264">
        <ele>58.8</ele>
        <time>2018-01-15T18:21:54Z</time>
      </trkpt>
      <trkpt lat="62.633417084045" lon="17.971147232361">
        <ele>58.8</ele>
        <time>2018-01-15T18:21:55Z</time>
      </trkpt>
      <trkpt lat="62.633413898923" lon="17.971218227054">
        <ele>58.6</ele>
        <time>2018-01-15T18:21:56Z</time>
      </trkpt>
      <trkpt lat="62.633413815104" lon="17.971270194834">
        <ele>58.4</ele>
        <time>2018-01-15T18:21:57Z</time>
      </trkpt>
      <trkpt lat="62.633411887267" lon="17.971326940297">
        <ele>58.4</ele>
        <time>2018-01-15T18:21:58Z</time>
      </trkpt>
      <trkpt lat="62.633410210887" lon="17.971377650792">
        <ele>58.4</ele>
        <time>2018-01-15T18:21:59Z</time>
      </trkpt>
      <trkpt lat="62.633409288878" lon="17.97144068268">
        <ele>58.6</ele>
        <time>2018-01-15T18:22:00Z</time>
      </trkpt>
      <trkpt lat="62.633405014109" lon="17.971496925229">
        <ele>58.6</ele>
        <time>2018-01-15T18:22:01Z</time>
      </trkpt>
      <trkpt lat="62.63340325391" lon="17.971560208574">
        <ele>58.6</ele>
        <time>2018-01-15T18:22:02Z</time>
      </trkpt>
      <trkpt lat="62.633398392408" lon="17.971621815539">
        <ele>58.6</ele>
        <time>2018-01-15T18:22:03Z</time>
      </trkpt>
      <trkpt lat="62.6333957102" lon="17.97167034674">
        <ele>58.6</ele>
        <time>2018-01-15T18:22:04Z</time>
      </trkpt>
      <trkpt lat="62.633390010508" lon="17.97172231452">
        <ele>58.6</ele>
        <time>2018-01-15T18:22:05Z</time>
      </trkpt>
      <trkpt lat="62.633383472626" lon="17.971787022788">
        <ele>58.8</ele>
        <time>2018-01-15T18:22:06Z</time>
      </trkpt>
      <trkpt lat="62.6333789464" lon="17.971841840414">
        <ele>58.6</ele>
        <time>2018-01-15T18:22:07Z</time>
      </trkpt>
      <trkpt lat="62.633373162889" lon="17.971906045768">
        <ele>59</ele>
        <time>2018-01-15T18:22:08Z</time>
      </trkpt>
      <trkpt lat="62.633367966111" lon="17.971966311629">
        <ele>59.2</ele>
        <time>2018-01-15T18:22:09Z</time>
      </trkpt>
      <trkpt lat="62.633359500392" lon="17.972016938305">
        <ele>59.2</ele>
        <time>2018-01-15T18:22:10Z</time>
      </trkpt>
      <trkpt lat="62.633349442112" lon="17.97207686889">
        <ele>59.4</ele>
        <time>2018-01-15T18:22:11Z</time>
      </trkpt>
      <trkpt lat="62.633343239506" lon="17.972140655149">
        <ele>59.8</ele>
        <time>2018-01-15T18:22:12Z</time>
      </trkpt>
      <trkpt lat="62.633334941425" lon="17.972205698693">
        <ele>60</ele>
        <time>2018-01-15T18:22:13Z</time>
      </trkpt>
      <trkpt lat="62.633328403543" lon="17.972256995921">
        <ele>60</ele>
        <time>2018-01-15T18:22:14Z</time>
      </trkpt>
      <trkpt lat="62.633322200937" lon="17.972308963701">
        <ele>60.2</ele>
        <time>2018-01-15T18:22:15Z</time>
      </trkpt>
      <trkpt lat="62.633313148485" lon="17.972359422739">
        <ele>60.2</ele>
        <time>2018-01-15T18:22:16Z</time>
      </trkpt>
      <trkpt lat="62.63330183292" lon="17.972421448799">
        <ele>60.4</ele>
        <time>2018-01-15T18:22:17Z</time>
      </trkpt>
      <trkpt lat="62.633290601174" lon="17.97247752371">
        <ele>60.6</ele>
        <time>2018-01-15T18:22:18Z</time>
      </trkpt>
      <trkpt lat="62.633282386912" lon="17.97253619701">
        <ele>60.8</ele>
        <time>2018-01-15T18:22:19Z</time>
      </trkpt>
      <trkpt lat="62.633270568433" lon="17.972586739867">
        <ele>60.8</ele>
        <time>2018-01-15T18:22:20Z</time>
      </trkpt>
      <trkpt lat="62.633261096886" lon="17.97264851447">
        <ele>61</ele>
        <time>2018-01-15T18:22:21Z</time>
      </trkpt>
      <trkpt lat="62.63325237971" lon="17.972707942141">
        <ele>61.2</ele>
        <time>2018-01-15T18:22:22Z</time>
      </trkpt>
      <trkpt lat="62.633241818516" lon="17.972760580473">
        <ele>61.4</ele>
        <time>2018-01-15T18:22:23Z</time>
      </trkpt>
      <trkpt lat="62.633233688073" lon="17.972822187438">
        <ele>61.4</ele>
        <time>2018-01-15T18:22:24Z</time>
      </trkpt>
      <trkpt lat="62.633219271205" lon="17.972867868793">
        <ele>61.6</ele>
        <time>2018-01-15T18:22:25Z</time>
      </trkpt>
      <trkpt lat="62.63320795564" lon="17.972924614256">
        <ele>61.8</ele>
        <time>2018-01-15T18:22:26Z</time>
      </trkpt>
      <trkpt lat="62.63319622098" lon="17.972984041927">
        <ele>61.8</ele>
        <time>2018-01-15T18:22:27Z</time>
      </trkpt>
      <trkpt lat="62.633187503804" lon="17.973030393834">
        <ele>62</ele>
        <time>2018-01-15T18:22:28Z</time>
      </trkpt>
      <trkpt lat="62.633178702809" lon="17.97308102051">
        <ele>62.2</ele>
        <time>2018-01-15T18:22:29Z</time>
      </trkpt>
      <trkpt lat="62.633165124131" lon="17.97313634105">
        <ele>62.2</ele>
        <time>2018-01-15T18:22:30Z</time>
      </trkpt>
      <trkpt lat="62.633157915697" lon="17.973183698785">
        <ele>62.4</ele>
        <time>2018-01-15T18:22:31Z</time>
      </trkpt>
      <trkpt lat="62.633139643155" lon="17.973248323234">
        <ele>62.4</ele>
        <time>2018-01-15T18:22:32Z</time>
      </trkpt>
      <trkpt lat="62.633133440549" lon="17.973300039557">
        <ele>62.4</ele>
        <time>2018-01-15T18:22:33Z</time>
      </trkpt>
      <trkpt lat="62.633120280966" lon="17.973356449744">
        <ele>62.4</ele>
        <time>2018-01-15T18:22:34Z</time>
      </trkpt>
      <trkpt lat="62.633106869926" lon="17.973411602646">
        <ele>62.4</ele>
        <time>2018-01-15T18:22:35Z</time>
      </trkpt>
      <trkpt lat="62.633093542705" lon="17.973460385304">
        <ele>62.4</ele>
        <time>2018-01-15T18:22:36Z</time>
      </trkpt>
      <trkpt lat="62.633082562416" lon="17.973511514894">
        <ele>62.2</ele>
        <time>2018-01-15T18:22:37Z</time>
      </trkpt>
      <trkpt lat="62.633073761421" lon="17.973558956448">
        <ele>62.2</ele>
        <time>2018-01-15T18:22:38Z</time>
      </trkpt>
      <trkpt lat="62.633061691485" lon="17.973611175685">
        <ele>62.4</ele>
        <time>2018-01-15T18:22:39Z</time>
      </trkpt>
      <trkpt lat="62.633048448083" lon="17.973653085185">
        <ele>62.6</ele>
        <time>2018-01-15T18:22:40Z</time>
      </trkpt>
      <trkpt lat="62.633036461966" lon="17.973702873671">
        <ele>62.6</ele>
        <time>2018-01-15T18:22:41Z</time>
      </trkpt>
      <trkpt lat="62.633023637659" lon="17.973767246663">
        <ele>62.8</ele>
        <time>2018-01-15T18:22:42Z</time>
      </trkpt>
      <trkpt lat="62.633016345406" lon="17.973820890823">
        <ele>62.8</ele>
        <time>2018-01-15T18:22:43Z</time>
      </trkpt>
      <trkpt lat="62.633000838891" lon="17.973875792268">
        <ele>63.2</ele>
        <time>2018-01-15T18:22:44Z</time>
      </trkpt>
      <trkpt lat="62.632988685136" lon="17.973923736736">
        <ele>63.6</ele>
        <time>2018-01-15T18:22:45Z</time>
      </trkpt>
      <trkpt lat="62.632973513897" lon="17.973990205203">
        <ele>63.8</ele>
        <time>2018-01-15T18:22:46Z</time>
      </trkpt>
      <trkpt lat="62.632960521952" lon="17.974051979806">
        <ele>64</ele>
        <time>2018-01-15T18:22:47Z</time>
      </trkpt>
      <trkpt lat="62.632948032921" lon="17.974110988382">
        <ele>64</ele>
        <time>2018-01-15T18:22:48Z</time>
      </trkpt>
      <trkpt lat="62.632934957157" lon="17.974168907311">
        <ele>64</ele>
        <time>2018-01-15T18:22:49Z</time>
      </trkpt>
      <trkpt lat="62.632921965212" lon="17.974225652774">
        <ele>64.2</ele>
        <time>2018-01-15T18:22:50Z</time>
      </trkpt>
      <trkpt lat="62.632908470353" lon="17.974285331902">
        <ele>64.2</ele>
        <time>2018-01-15T18:22:51Z</time>
      </trkpt>
      <trkpt lat="62.632893047657" lon="17.974345094849">
        <ele>64.2</ele>
        <time>2018-01-15T18:22:52Z</time>
      </trkpt>
      <trkpt lat="62.632883911386" lon="17.97437015673">
        <ele>64</ele>
        <time>2018-01-15T18:22:53Z</time>
      </trkpt>
      <trkpt lat="62.632854658555" lon="17.974433188618">
        <ele>64</ele>
        <time>2018-01-15T18:22:54Z</time>
      </trkpt>
      <trkpt lat="62.63282238824" lon="17.974459926879">
        <ele>64.2</ele>
        <time>2018-01-15T18:22:55Z</time>
      </trkpt>
      <trkpt lat="62.632792883952" lon="17.974473673195">
        <ele>64.2</ele>
        <time>2018-01-15T18:22:56Z</time>
      </trkpt>
      <trkpt lat="62.63276539132" lon="17.974472918824">
        <ele>64.2</ele>
        <time>2018-01-15T18:22:57Z</time>
      </trkpt>
      <trkpt lat="62.632739910344" lon="17.974467219132">
        <ele>64</ele>
        <time>2018-01-15T18:22:58Z</time>
      </trkpt>
      <trkpt lat="62.632718704137" lon="17.974427488926">
        <ele>64.2</ele>
        <time>2018-01-15T18:22:59Z</time>
      </trkpt>
      <trkpt lat="62.632698084663" lon="17.974398487552">
        <ele>64.2</ele>
        <time>2018-01-15T18:23:00Z</time>
      </trkpt>
      <trkpt lat="62.632663635054" lon="17.974380885562">
        <ele>64.4</ele>
        <time>2018-01-15T18:23:01Z</time>
      </trkpt>
      <trkpt lat="62.632637567345" lon="17.974361858649">
        <ele>64.2</ele>
        <time>2018-01-15T18:23:02Z</time>
      </trkpt>
      <trkpt lat="62.632614936215" lon="17.974341574451">
        <ele>64.2</ele>
        <time>2018-01-15T18:23:03Z</time>
      </trkpt>
      <trkpt lat="62.632592053628" lon="17.974315758199">
        <ele>64</ele>
        <time>2018-01-15T18:23:04Z</time>
      </trkpt>
      <trkpt lat="62.632565231548" lon="17.974290025766">
        <ele>64</ele>
        <time>2018-01-15T18:23:05Z</time>
      </trkpt>
      <trkpt lat="62.632539834391" lon="17.974268987197">
        <ele>64.2</ele>
        <time>2018-01-15T18:23:06Z</time>
      </trkpt>
      <trkpt lat="62.63251393432" lon="17.974246188429">
        <ele>63.8</ele>
        <time>2018-01-15T18:23:07Z</time>
      </trkpt>
      <trkpt lat="62.632490884095" lon="17.974222551471">
        <ele>64.2</ele>
        <time>2018-01-15T18:23:08Z</time>
      </trkpt>
      <trkpt lat="62.632471773363" lon="17.974200590893">
        <ele>64</ele>
        <time>2018-01-15T18:23:09Z</time>
      </trkpt>
      <trkpt lat="62.632451992079" lon="17.974172679166">
        <ele>64.2</ele>
        <time>2018-01-15T18:23:10Z</time>
      </trkpt>
      <trkpt lat="62.632421146687" lon="17.974143593973">
        <ele>64.2</ele>
        <time>2018-01-15T18:23:11Z</time>
      </trkpt>
      <trkpt lat="62.632397258272" lon="17.974116855712">
        <ele>64.2</ele>
        <time>2018-01-15T18:23:12Z</time>
      </trkpt>
      <trkpt lat="62.632375465332" lon="17.974089949813">
        <ele>64.4</ele>
        <time>2018-01-15T18:23:13Z</time>
      </trkpt>
      <trkpt lat="62.632357025152" lon="17.974065642303">
        <ele>64.6</ele>
        <time>2018-01-15T18:23:14Z</time>
      </trkpt>
      <trkpt lat="62.632332550004" lon="17.974040915698">
        <ele>64.4</ele>
        <time>2018-01-15T18:23:15Z</time>
      </trkpt>
      <trkpt lat="62.632309499779" lon="17.974013423066">
        <ele>64.4</ele>
        <time>2018-01-15T18:23:16Z</time>
      </trkpt>
      <trkpt lat="62.632283180613" lon="17.973988528823">
        <ele>64.4</ele>
        <time>2018-01-15T18:23:17Z</time>
      </trkpt>
      <trkpt lat="62.632248395728" lon="17.973959611268">
        <ele>64.4</ele>
        <time>2018-01-15T18:23:18Z</time>
      </trkpt>
      <trkpt lat="62.63222559696" lon="17.973935806672">
        <ele>64.2</ele>
        <time>2018-01-15T18:23:19Z</time>
      </trkpt>
      <trkpt lat="62.632194835387" lon="17.973913846094">
        <ele>63.8</ele>
        <time>2018-01-15T18:23:20Z</time>
      </trkpt>
      <trkpt lat="62.632171785162" lon="17.973885934367">
        <ele>63.6</ele>
        <time>2018-01-15T18:23:21Z</time>
      </trkpt>
      <trkpt lat="62.63214764529" lon="17.973867745644">
        <ele>63.4</ele>
        <time>2018-01-15T18:23:22Z</time>
      </trkpt>
      <trkpt lat="62.632114704423" lon="17.973842348487">
        <ele>63.4</ele>
        <time>2018-01-15T18:23:23Z</time>
      </trkpt>
      <trkpt lat="62.632092073293" lon="17.973811503095">
        <ele>63.2</ele>
        <time>2018-01-15T18:23:24Z</time>
      </trkpt>
      <trkpt lat="62.632065335032" lon="17.973789961612">
        <ele>63</ele>
        <time>2018-01-15T18:23:25Z</time>
      </trkpt>
      <trkpt lat="62.63204035697" lon="17.973761714609">
        <ele>63.2</ele>
        <time>2018-01-15T18:23:26Z</time>
      </trkpt>
      <trkpt lat="62.632017809659" lon="17.97373229414">
        <ele>63</ele>
        <time>2018-01-15T18:23:27Z</time>
      </trkpt>
      <trkpt lat="62.631989646475" lon="17.973701197291">
        <ele>63</ele>
        <time>2018-01-15T18:23:28Z</time>
      </trkpt>
      <trkpt lat="62.63196575806" lon="17.973679739627">
        <ele>63</ele>
        <time>2018-01-15T18:23:29Z</time>
      </trkpt>
      <trkpt lat="62.631941115274" lon="17.973655013022">
        <ele>63</ele>
        <time>2018-01-15T18:23:30Z</time>
      </trkpt>
      <trkpt lat="62.631908090588" lon="17.9736183003">
        <ele>63</ele>
        <time>2018-01-15T18:23:31Z</time>
      </trkpt>
      <trkpt lat="62.631883783078" lon="17.973588293098">
        <ele>62.8</ele>
        <time>2018-01-15T18:23:32Z</time>
      </trkpt>
      <trkpt lat="62.631857799188" lon="17.973556441878">
        <ele>63</ele>
        <time>2018-01-15T18:23:33Z</time>
      </trkpt>
      <trkpt lat="62.631833407859" lon="17.973524255382">
        <ele>63</ele>
        <time>2018-01-15T18:23:34Z</time>
      </trkpt>
      <trkpt lat="62.631807088693" lon="17.973492739438">
        <ele>62.8</ele>
        <time>2018-01-15T18:23:35Z</time>
      </trkpt>
      <trkpt lat="62.631781859174" lon="17.973461642589">
        <ele>63</ele>
        <time>2018-01-15T18:23:36Z</time>
      </trkpt>
      <trkpt lat="62.63175788694" lon="17.973432557396">
        <ele>62.8</ele>
        <time>2018-01-15T18:23:37Z</time>
      </trkpt>
      <trkpt lat="62.631733327973" lon="17.973402382556">
        <ele>62.8</ele>
        <time>2018-01-15T18:23:38Z</time>
      </trkpt>
      <trkpt lat="62.631709607196" lon="17.973371704802">
        <ele>63</ele>
        <time>2018-01-15T18:23:39Z</time>
      </trkpt>
      <trkpt lat="62.631692172844" lon="17.973351420604">
        <ele>62.6</ele>
        <time>2018-01-15T18:23:40Z</time>
      </trkpt>
      <trkpt lat="62.631662836194" lon="17.973307247991">
        <ele>62.4</ele>
        <time>2018-01-15T18:23:41Z</time>
      </trkpt>
      <trkpt lat="62.6316438931" lon="17.973266763414">
        <ele>62.2</ele>
        <time>2018-01-15T18:23:42Z</time>
      </trkpt>
      <trkpt lat="62.631622267798" lon="17.973226278837">
        <ele>62.2</ele>
        <time>2018-01-15T18:23:43Z</time>
      </trkpt>
      <trkpt lat="62.631600893953" lon="17.973188979382">
        <ele>62.2</ele>
        <time>2018-01-15T18:23:44Z</time>
      </trkpt>
      <trkpt lat="62.631587231456" lon="17.973138436525">
        <ele>62.4</ele>
        <time>2018-01-15T18:23:45Z</time>
      </trkpt>
      <trkpt lat="62.631564348869" lon="17.973091330247">
        <ele>62.4</ele>
        <time>2018-01-15T18:23:46Z</time>
      </trkpt>
      <trkpt lat="62.631543813214" lon="17.973045313616">
        <ele>62.8</ele>
        <time>2018-01-15T18:23:47Z</time>
      </trkpt>
      <trkpt lat="62.63152319374" lon="17.973001057184">
        <ele>62.8</ele>
        <time>2018-01-15T18:23:48Z</time>
      </trkpt>
      <trkpt lat="62.631504837379" lon="17.972957471304">
        <ele>63</ele>
        <time>2018-01-15T18:23:49Z</time>
      </trkpt>
      <trkpt lat="62.631481787154" lon="17.972904665334">
        <ele>62.6</ele>
        <time>2018-01-15T18:23:50Z</time>
      </trkpt>
      <trkpt lat="62.63146200587" lon="17.972858648703">
        <ele>62.4</ele>
        <time>2018-01-15T18:23:51Z</time>
      </trkpt>
      <trkpt lat="62.631440883482" lon="17.972809698407">
        <ele>62.2</ele>
        <time>2018-01-15T18:23:52Z</time>
      </trkpt>
      <trkpt lat="62.631420012551" lon="17.972757898265">
        <ele>62.4</ele>
        <time>2018-01-15T18:23:53Z</time>
      </trkpt>
      <trkpt lat="62.631399728353" lon="17.972709534702">
        <ele>62.2</ele>
        <time>2018-01-15T18:23:54Z</time>
      </trkpt>
      <trkpt lat="62.631377767775" lon="17.972656477275">
        <ele>61.8</ele>
        <time>2018-01-15T18:23:55Z</time>
      </trkpt>
      <trkpt lat="62.631358489405" lon="17.972610712101">
        <ele>61.8</ele>
        <time>2018-01-15T18:23:56Z</time>
      </trkpt>
      <trkpt lat="62.631338540483" lon="17.972566036574">
        <ele>61.6</ele>
        <time>2018-01-15T18:23:57Z</time>
      </trkpt>
      <trkpt lat="62.631318591561" lon="17.972520439038">
        <ele>61.2</ele>
        <time>2018-01-15T18:23:58Z</time>
      </trkpt>
      <trkpt lat="62.631300654295" lon="17.972478445719">
        <ele>61</ele>
        <time>2018-01-15T18:23:59Z</time>
      </trkpt>
      <trkpt lat="62.631283722857" lon="17.972430165975">
        <ele>60.8</ele>
        <time>2018-01-15T18:24:00Z</time>
      </trkpt>
      <trkpt lat="62.631266288505" lon="17.972364451879">
        <ele>60.8</ele>
        <time>2018-01-15T18:24:01Z</time>
      </trkpt>
      <trkpt lat="62.631248686515" lon="17.972311226814">
        <ele>60.6</ele>
        <time>2018-01-15T18:24:02Z</time>
      </trkpt>
      <trkpt lat="62.631230833068" lon="17.972259510491">
        <ele>60.6</ele>
        <time>2018-01-15T18:24:03Z</time>
      </trkpt>
      <trkpt lat="62.631213231078" lon="17.972209889643">
        <ele>60.4</ele>
        <time>2018-01-15T18:24:04Z</time>
      </trkpt>
      <trkpt lat="62.63119797602" lon="17.972155910207">
        <ele>60</ele>
        <time>2018-01-15T18:24:05Z</time>
      </trkpt>
      <trkpt lat="62.631182218048" lon="17.972100757305">
        <ele>59.8</ele>
        <time>2018-01-15T18:24:06Z</time>
      </trkpt>
      <trkpt lat="62.631169142284" lon="17.972048035154">
        <ele>59.6</ele>
        <time>2018-01-15T18:24:07Z</time>
      </trkpt>
      <trkpt lat="62.631156150339" lon="17.971991960243">
        <ele>59.2</ele>
        <time>2018-01-15T18:24:08Z</time>
      </trkpt>
      <trkpt lat="62.631143745127" lon="17.971934460409">
        <ele>59.2</ele>
        <time>2018-01-15T18:24:09Z</time>
      </trkpt>
      <trkpt lat="62.631130417906" lon="17.971875451833">
        <ele>59</ele>
        <time>2018-01-15T18:24:10Z</time>
      </trkpt>
      <trkpt lat="62.631116503952" lon="17.97181451542">
        <ele>59</ele>
        <time>2018-01-15T18:24:11Z</time>
      </trkpt>
      <trkpt lat="62.63110326055" lon="17.971754668654">
        <ele>59</ele>
        <time>2018-01-15T18:24:12Z</time>
      </trkpt>
      <trkpt lat="62.631089598053" lon="17.971695827716">
        <ele>59</ele>
        <time>2018-01-15T18:24:13Z</time>
      </trkpt>
      <trkpt lat="62.631076187013" lon="17.971639920443">
        <ele>59</ele>
        <time>2018-01-15T18:24:14Z</time>
      </trkpt>
      <trkpt lat="62.631062440697" lon="17.97158485136">
        <ele>58.8</ele>
        <time>2018-01-15T18:24:15Z</time>
      </trkpt>
      <trkpt lat="62.631050873675" lon="17.971550234113">
        <ele>58.8</ele>
        <time>2018-01-15T18:24:16Z</time>
      </trkpt>
      <trkpt lat="62.631032182038" lon="17.971463481448">
        <ele>58.8</ele>
        <time>2018-01-15T18:24:17Z</time>
      </trkpt>
      <trkpt lat="62.631020950292" lon="17.971404724329">
        <ele>59</ele>
        <time>2018-01-15T18:24:18Z</time>
      </trkpt>
      <trkpt lat="62.63101022146" lon="17.971348314142">
        <ele>59.2</ele>
        <time>2018-01-15T18:24:19Z</time>
      </trkpt>
      <trkpt lat="62.631002845388" lon="17.97128142658">
        <ele>59.2</ele>
        <time>2018-01-15T18:24:20Z</time>
      </trkpt>
      <trkpt lat="62.630992954746" lon="17.971220154891">
        <ele>59</ele>
        <time>2018-01-15T18:24:21Z</time>
      </trkpt>
      <trkpt lat="62.630982393552" lon="17.97115485989">
        <ele>59</ele>
        <time>2018-01-15T18:24:22Z</time>
      </trkpt>
      <trkpt lat="62.630972335272" lon="17.971090654536">
        <ele>59</ele>
        <time>2018-01-15T18:24:23Z</time>
      </trkpt>
      <trkpt lat="62.630962612268" lon="17.971032148874">
        <ele>59</ele>
        <time>2018-01-15T18:24:24Z</time>
      </trkpt>
      <trkpt lat="62.630954230368" lon="17.970962998199">
        <ele>58.4</ele>
        <time>2018-01-15T18:24:25Z</time>
      </trkpt>
      <trkpt lat="62.630946099925" lon="17.970898792845">
        <ele>58</ele>
        <time>2018-01-15T18:24:26Z</time>
      </trkpt>
      <trkpt lat="62.630938723853" lon="17.970834922767">
        <ele>57.8</ele>
        <time>2018-01-15T18:24:27Z</time>
      </trkpt>
      <trkpt lat="62.630932688885" lon="17.970768957214">
        <ele>57.6</ele>
        <time>2018-01-15T18:24:28Z</time>
      </trkpt>
      <trkpt lat="62.630927156831" lon="17.970706763516">
        <ele>57.4</ele>
        <time>2018-01-15T18:24:29Z</time>
      </trkpt>
      <trkpt lat="62.630917433827" lon="17.970647000569">
        <ele>57.4</ele>
        <time>2018-01-15T18:24:30Z</time>
      </trkpt>
      <trkpt lat="62.630907794642" lon="17.970579526274">
        <ele>57.2</ele>
        <time>2018-01-15T18:24:31Z</time>
      </trkpt>
      <trkpt lat="62.630900586208" lon="17.970510710875">
        <ele>57.4</ele>
        <time>2018-01-15T18:24:32Z</time>
      </trkpt>
      <trkpt lat="62.630897484905" lon="17.970443068942">
        <ele>57.6</ele>
        <time>2018-01-15T18:24:33Z</time>
      </trkpt>
      <trkpt lat="62.630896059982" lon="17.970377271027">
        <ele>57.6</ele>
        <time>2018-01-15T18:24:34Z</time>
      </trkpt>
      <trkpt lat="62.63089119848" lon="17.970271072354">
        <ele>57.8</ele>
        <time>2018-01-15T18:24:36Z</time>
      </trkpt>
      <trkpt lat="62.63089203667" lon="17.970233605261">
        <ele>58</ele>
        <time>2018-01-15T18:24:37Z</time>
      </trkpt>
      <trkpt lat="62.630891366118" lon="17.970204771525">
        <ele>58</ele>
        <time>2018-01-15T18:24:38Z</time>
      </trkpt>
      <trkpt lat="62.630891030842" lon="17.970182224214">
        <ele>58</ele>
        <time>2018-01-15T18:24:39Z</time>
      </trkpt>
      <trkpt lat="62.630894383602" lon="17.970161520921">
        <ele>58.2</ele>
        <time>2018-01-15T18:24:40Z</time>
      </trkpt>
      <trkpt lat="62.630901843493" lon="17.970140147076">
        <ele>58.2</ele>
        <time>2018-01-15T18:24:41Z</time>
      </trkpt>
      <trkpt lat="62.630909135746" lon="17.970131010805">
        <ele>58.2</ele>
        <time>2018-01-15T18:24:42Z</time>
      </trkpt>
      <trkpt lat="62.630905280072" lon="17.970147858424">
        <ele>58</ele>
        <time>2018-01-15T18:24:43Z</time>
      </trkpt>
      <trkpt lat="62.630908884289" lon="17.970150540632">
        <ele>57.8</ele>
        <time>2018-01-15T18:24:44Z</time>
      </trkpt>
      <trkpt lat="62.630912404687" lon="17.970156910876">
        <ele>57.6</ele>
        <time>2018-01-15T18:24:45Z</time>
      </trkpt>
      <trkpt lat="62.630913075239" lon="17.970164454586">
        <ele>57.6</ele>
        <time>2018-01-15T18:24:46Z</time>
      </trkpt>
      <trkpt lat="62.631179787297" lon="17.970013664205">
        <ele>56.6</ele>
        <time>2018-01-15T18:25:34Z</time>
      </trkpt>
      <trkpt lat="62.631200993504" lon="17.969999917889">
        <ele>56.6</ele>
        <time>2018-01-15T18:25:35Z</time>
      </trkpt>
      <trkpt lat="62.631242903004" lon="17.96997887932">
        <ele>56.4</ele>
        <time>2018-01-15T18:25:36Z</time>
      </trkpt>
      <trkpt lat="62.631271904378" lon="17.969957421656">
        <ele>56.2</ele>
        <time>2018-01-15T18:25:37Z</time>
      </trkpt>
      <trkpt lat="62.631298642639" lon="17.969939652028">
        <ele>56</ele>
        <time>2018-01-15T18:25:38Z</time>
      </trkpt>
      <trkpt lat="62.631330912954" lon="17.96992272059">
        <ele>55.6</ele>
        <time>2018-01-15T18:25:39Z</time>
      </trkpt>
      <trkpt lat="62.631355052826" lon="17.96990595679">
        <ele>55.6</ele>
        <time>2018-01-15T18:25:40Z</time>
      </trkpt>
      <trkpt lat="62.631391094996" lon="17.969886259325">
        <ele>56</ele>
        <time>2018-01-15T18:25:41Z</time>
      </trkpt>
      <trkpt lat="62.631420599284" lon="17.969868322059">
        <ele>56.2</ele>
        <time>2018-01-15T18:25:42Z</time>
      </trkpt>
      <trkpt lat="62.631452534323" lon="17.969843511635">
        <ele>56.2</ele>
        <time>2018-01-15T18:25:43Z</time>
      </trkpt>
      <trkpt lat="62.631481451878" lon="17.969827502206">
        <ele>56.4</ele>
        <time>2018-01-15T18:25:44Z</time>
      </trkpt>
      <trkpt lat="62.631510453252" lon="17.969811408958">
        <ele>56.4</ele>
        <time>2018-01-15T18:25:45Z</time>
      </trkpt>
      <trkpt lat="62.631539035531" lon="17.969793304054">
        <ele>56.4</ele>
        <time>2018-01-15T18:25:46Z</time>
      </trkpt>
      <trkpt lat="62.631571724941" lon="17.969774193322">
        <ele>56.6</ele>
        <time>2018-01-15T18:25:47Z</time>
      </trkpt>
      <trkpt lat="62.631603911437" lon="17.969754831133">
        <ele>56.6</ele>
        <time>2018-01-15T18:25:48Z</time>
      </trkpt>
      <trkpt lat="62.631634756829" lon="17.969732954374">
        <ele>56.6</ele>
        <time>2018-01-15T18:25:49Z</time>
      </trkpt>
      <trkpt lat="62.631663842022" lon="17.969712921633">
        <ele>56.6</ele>
        <time>2018-01-15T18:25:50Z</time>
      </trkpt>
      <trkpt lat="62.631692591939" lon="17.969682411517">
        <ele>56.8</ele>
        <time>2018-01-15T18:25:51Z</time>
      </trkpt>
      <trkpt lat="62.63172016839" lon="17.969649722107">
        <ele>56.6</ele>
        <time>2018-01-15T18:25:52Z</time>
      </trkpt>
      <trkpt lat="62.63174699047" lon="17.969613177023">
        <ele>56.6</ele>
        <time>2018-01-15T18:25:53Z</time>
      </trkpt>
      <trkpt lat="62.631774566921" lon="17.969589540065">
        <ele>56.6</ele>
        <time>2018-01-15T18:25:54Z</time>
      </trkpt>
      <trkpt lat="62.631802562467" lon="17.969574704102">
        <ele>56.4</ele>
        <time>2018-01-15T18:25:55Z</time>
      </trkpt>
      <trkpt lat="62.631831060927" lon="17.969564394365">
        <ele>56.2</ele>
        <time>2018-01-15T18:25:56Z</time>
      </trkpt>
      <trkpt lat="62.631859727025" lon="17.969567998582">
        <ele>55.8</ele>
        <time>2018-01-15T18:25:57Z</time>
      </trkpt>
      <trkpt lat="62.631885124182" lon="17.969561209243">
        <ele>55.6</ele>
        <time>2018-01-15T18:25:58Z</time>
      </trkpt>
      <trkpt lat="62.631915382841" lon="17.969561293062">
        <ele>55.4</ele>
        <time>2018-01-15T18:25:59Z</time>
      </trkpt>
      <trkpt lat="62.631942456378" lon="17.969560119596">
        <ele>55.2</ele>
        <time>2018-01-15T18:26:00Z</time>
      </trkpt>
      <trkpt lat="62.631972379761" lon="17.96955894613">
        <ele>55</ele>
        <time>2018-01-15T18:26:01Z</time>
      </trkpt>
      <trkpt lat="62.63200515299" lon="17.969555509551">
        <ele>55.2</ele>
        <time>2018-01-15T18:26:02Z</time>
      </trkpt>
      <trkpt lat="62.632032226527" lon="17.969554168447">
        <ele>55.4</ele>
        <time>2018-01-15T18:26:03Z</time>
      </trkpt>
      <trkpt lat="62.63206131172" lon="17.969541092683">
        <ele>55.6</ele>
        <time>2018-01-15T18:26:04Z</time>
      </trkpt>
      <trkpt lat="62.632086541239" lon="17.969539500122">
        <ele>55.6</ele>
        <time>2018-01-15T18:26:05Z</time>
      </trkpt>
      <trkpt lat="62.632121326124" lon="17.969533465154">
        <ele>55.8</ele>
        <time>2018-01-15T18:26:06Z</time>
      </trkpt>
      <trkpt lat="62.632152758249" lon="17.969524664159">
        <ele>56</ele>
        <time>2018-01-15T18:26:07Z</time>
      </trkpt>
      <trkpt lat="62.632181089071" lon="17.969518042458">
        <ele>55.8</ele>
        <time>2018-01-15T18:26:08Z</time>
      </trkpt>
      <trkpt lat="62.63221218592" lon="17.969506307798">
        <ele>56</ele>
        <time>2018-01-15T18:26:09Z</time>
      </trkpt>
      <trkpt lat="62.632238588905" lon="17.969499015545">
        <ele>56</ele>
        <time>2018-01-15T18:26:10Z</time>
      </trkpt>
      <trkpt lat="62.632270188668" lon="17.969487448523">
        <ele>56.2</ele>
        <time>2018-01-15T18:26:11Z</time>
      </trkpt>
      <trkpt lat="62.632302878078" lon="17.969485353048">
        <ele>56.2</ele>
        <time>2018-01-15T18:26:12Z</time>
      </trkpt>
      <trkpt lat="62.632330203072" lon="17.96947680351">
        <ele>56</ele>
        <time>2018-01-15T18:26:13Z</time>
      </trkpt>
      <trkpt lat="62.632361551378" lon="17.969476132958">
        <ele>56.2</ele>
        <time>2018-01-15T18:26:14Z</time>
      </trkpt>
      <trkpt lat="62.632390217476" lon="17.969478312252">
        <ele>56.2</ele>
        <time>2018-01-15T18:26:15Z</time>
      </trkpt>
      <trkpt lat="62.632415614633" lon="17.969478060795">
        <ele>56.2</ele>
        <time>2018-01-15T18:26:16Z</time>
      </trkpt>
      <trkpt lat="62.632452830269" lon="17.96947931808">
        <ele>56.2</ele>
        <time>2018-01-15T18:26:17Z</time>
      </trkpt>
      <trkpt lat="62.632482586014" lon="17.969478898985">
        <ele>56.2</ele>
        <time>2018-01-15T18:26:18Z</time>
      </trkpt>
      <trkpt lat="62.632515359243" lon="17.969479820994">
        <ele>56.2</ele>
        <time>2018-01-15T18:26:19Z</time>
      </trkpt>
      <trkpt lat="62.632542265142" lon="17.969480826822">
        <ele>56.4</ele>
        <time>2018-01-15T18:26:20Z</time>
      </trkpt>
      <trkpt lat="62.632575206009" lon="17.969486526514">
        <ele>56.4</ele>
        <time>2018-01-15T18:26:21Z</time>
      </trkpt>
      <trkpt lat="62.632604961754" lon="17.96949356731">
        <ele>56.2</ele>
        <time>2018-01-15T18:26:22Z</time>
      </trkpt>
      <trkpt lat="62.632635723327" lon="17.969499183183">
        <ele>56.4</ele>
        <time>2018-01-15T18:26:23Z</time>
      </trkpt>
      <trkpt lat="62.632667742185" lon="17.969505721065">
        <ele>56.2</ele>
        <time>2018-01-15T18:26:24Z</time>
      </trkpt>
      <trkpt lat="62.632694480446" lon="17.969511588395">
        <ele>56</ele>
        <time>2018-01-15T18:26:25Z</time>
      </trkpt>
      <trkpt lat="62.632725744933" lon="17.969519299743">
        <ele>55.8</ele>
        <time>2018-01-15T18:26:26Z</time>
      </trkpt>
      <trkpt lat="62.632754746307" lon="17.969527178729">
        <ele>55.8</ele>
        <time>2018-01-15T18:26:27Z</time>
      </trkpt>
      <trkpt lat="62.632781652206" lon="17.969538410475">
        <ele>55.8</ele>
        <time>2018-01-15T18:26:28Z</time>
      </trkpt>
      <trkpt lat="62.632810318304" lon="17.969546205642">
        <ele>55.8</ele>
        <time>2018-01-15T18:26:29Z</time>
      </trkpt>
      <trkpt lat="62.632838900583" lon="17.969554587542">
        <ele>56</ele>
        <time>2018-01-15T18:26:30Z</time>
      </trkpt>
      <trkpt lat="62.632870500346" lon="17.969564981098">
        <ele>56</ele>
        <time>2018-01-15T18:26:31Z</time>
      </trkpt>
      <trkpt lat="62.632900004634" lon="17.969571351342">
        <ele>56.2</ele>
        <time>2018-01-15T18:26:32Z</time>
      </trkpt>
      <trkpt lat="62.632930179474" lon="17.969579733242">
        <ele>56.2</ele>
        <time>2018-01-15T18:26:33Z</time>
      </trkpt>
      <trkpt lat="62.632958761753" lon="17.969586522581">
        <ele>56.6</ele>
        <time>2018-01-15T18:26:34Z</time>
      </trkpt>
      <trkpt lat="62.632984745643" lon="17.969590629712">
        <ele>56.6</ele>
        <time>2018-01-15T18:26:35Z</time>
      </trkpt>
      <trkpt lat="62.633018859976" lon="17.969599430707">
        <ele>56.8</ele>
        <time>2018-01-15T18:26:36Z</time>
      </trkpt>
      <trkpt lat="62.633046436427" lon="17.969608566978">
        <ele>56.8</ele>
        <time>2018-01-15T18:26:37Z</time>
      </trkpt>
      <trkpt lat="62.633075940715" lon="17.969616445964">
        <ele>57</ele>
        <time>2018-01-15T18:26:38Z</time>
      </trkpt>
      <trkpt lat="62.633103349528" lon="17.969618038525">
        <ele>57.2</ele>
        <time>2018-01-15T18:26:39Z</time>
      </trkpt>
      <trkpt lat="62.63312916578" lon="17.969621139828">
        <ele>57.2</ele>
        <time>2018-01-15T18:26:40Z</time>
      </trkpt>
      <trkpt lat="62.633161017" lon="17.969633042126">
        <ele>57.2</ele>
        <time>2018-01-15T18:26:41Z</time>
      </trkpt>
      <trkpt lat="62.633190186012" lon="17.96964192694">
        <ele>57.2</ele>
        <time>2018-01-15T18:26:42Z</time>
      </trkpt>
      <trkpt lat="62.633220947585" lon="17.96965617617">
        <ele>57.2</ele>
        <time>2018-01-15T18:26:43Z</time>
      </trkpt>
      <trkpt lat="62.633247434389" lon="17.9696788073">
        <ele>57.2</ele>
        <time>2018-01-15T18:26:44Z</time>
      </trkpt>
      <trkpt lat="62.63327165808" lon="17.969704372095">
        <ele>57.2</ele>
        <time>2018-01-15T18:26:45Z</time>
      </trkpt>
      <trkpt lat="62.633295211219" lon="17.969733373469">
        <ele>57.4</ele>
        <time>2018-01-15T18:26:46Z</time>
      </trkpt>
      <trkpt lat="62.633320105462" lon="17.969766565793">
        <ele>57.6</ele>
        <time>2018-01-15T18:26:47Z</time>
      </trkpt>
      <trkpt lat="62.633340976393" lon="17.969807637103">
        <ele>57.4</ele>
        <time>2018-01-15T18:26:48Z</time>
      </trkpt>
      <trkpt lat="62.633352878691" lon="17.969850300974">
        <ele>57.6</ele>
        <time>2018-01-15T18:26:49Z</time>
      </trkpt>
      <trkpt lat="62.633364194256" lon="17.969898832175">
        <ele>57.8</ele>
        <time>2018-01-15T18:26:50Z</time>
      </trkpt>
      <trkpt lat="62.633375928916" lon="17.969953063068">
        <ele>58</ele>
        <time>2018-01-15T18:26:51Z</time>
      </trkpt>
      <trkpt lat="62.633386071015" lon="17.970002683916">
        <ele>57.8</ele>
        <time>2018-01-15T18:26:52Z</time>
      </trkpt>
      <trkpt lat="62.633390597241" lon="17.970058675008">
        <ele>58</ele>
        <time>2018-01-15T18:26:53Z</time>
      </trkpt>
      <trkpt lat="62.633394536734" lon="17.970110810426">
        <ele>58</ele>
        <time>2018-01-15T18:26:54Z</time>
      </trkpt>
      <trkpt lat="62.633395794019" lon="17.970165208957">
        <ele>58.2</ele>
        <time>2018-01-15T18:26:55Z</time>
      </trkpt>
      <trkpt lat="62.633397554218" lon="17.970225055723">
        <ele>58.2</ele>
        <time>2018-01-15T18:26:56Z</time>
      </trkpt>
      <trkpt lat="62.633398979141" lon="17.970279035159">
        <ele>58.4</ele>
        <time>2018-01-15T18:26:57Z</time>
      </trkpt>
      <trkpt lat="62.633403086272" lon="17.97033175731">
        <ele>58.4</ele>
        <time>2018-01-15T18:26:58Z</time>
      </trkpt>
      <trkpt lat="62.633405265566" lon="17.970371236059">
        <ele>58.4</ele>
        <time>2018-01-15T18:26:59Z</time>
      </trkpt>
      <trkpt lat="62.633408953602" lon="17.970437704526">
        <ele>58.4</ele>
        <time>2018-01-15T18:27:00Z</time>
      </trkpt>
      <trkpt lat="62.633408450688" lon="17.970495371998">
        <ele>58.6</ele>
        <time>2018-01-15T18:27:01Z</time>
      </trkpt>
      <trkpt lat="62.633411887267" lon="17.970550776357">
        <ele>58.6</ele>
        <time>2018-01-15T18:27:02Z</time>
      </trkpt>
      <trkpt lat="62.633412976914" lon="17.970611964227">
        <ele>58.6</ele>
        <time>2018-01-15T18:27:03Z</time>
      </trkpt>
      <trkpt lat="62.633417000226" lon="17.970662087989">
        <ele>58.6</ele>
        <time>2018-01-15T18:27:04Z</time>
      </trkpt>
      <trkpt lat="62.633419766253" lon="17.970716067425">
        <ele>58.8</ele>
        <time>2018-01-15T18:27:05Z</time>
      </trkpt>
      <trkpt lat="62.633423119013" lon="17.970784882824">
        <ele>59</ele>
        <time>2018-01-15T18:27:06Z</time>
      </trkpt>
      <trkpt lat="62.633423873384" lon="17.970836263871">
        <ele>59.2</ele>
        <time>2018-01-15T18:27:07Z</time>
      </trkpt>
      <trkpt lat="62.633423621927" lon="17.970895942999">
        <ele>59.4</ele>
        <time>2018-01-15T18:27:08Z</time>
      </trkpt>
      <trkpt lat="62.63342253228" lon="17.970955873584">
        <ele>59.6</ele>
        <time>2018-01-15T18:27:09Z</time>
      </trkpt>
      <trkpt lat="62.633422616099" lon="17.971000046197">
        <ele>59.6</ele>
        <time>2018-01-15T18:27:10Z</time>
      </trkpt>
      <trkpt lat="62.633421442633" lon="17.971068861596">
        <ele>59.6</ele>
        <time>2018-01-15T18:27:11Z</time>
      </trkpt>
      <trkpt lat="62.633422364642" lon="17.971125607059">
        <ele>59.8</ele>
        <time>2018-01-15T18:27:12Z</time>
      </trkpt>
      <trkpt lat="62.633422113185" lon="17.97118587292">
        <ele>60</ele>
        <time>2018-01-15T18:27:13Z</time>
      </trkpt>
      <trkpt lat="62.633420772081" lon="17.971243959487">
        <ele>60</ele>
        <time>2018-01-15T18:27:14Z</time>
      </trkpt>
      <trkpt lat="62.633421191176" lon="17.971292825964">
        <ele>60.2</ele>
        <time>2018-01-15T18:27:15Z</time>
      </trkpt>
      <trkpt lat="62.633419682434" lon="17.971344542287">
        <ele>60.2</ele>
        <time>2018-01-15T18:27:16Z</time>
      </trkpt>
      <trkpt lat="62.633416748769" lon="17.971397264438">
        <ele>60.4</ele>
        <time>2018-01-15T18:27:17Z</time>
      </trkpt>
      <trkpt lat="62.633413479828" lon="17.971450657141">
        <ele>60.4</ele>
        <time>2018-01-15T18:27:18Z</time>
      </trkpt>
      <trkpt lat="62.633412054905" lon="17.971509078984">
        <ele>60.6</ele>
        <time>2018-01-15T18:27:19Z</time>
      </trkpt>
      <trkpt lat="62.633410043249" lon="17.971571943234">
        <ele>60.6</ele>
        <time>2018-01-15T18:27:20Z</time>
      </trkpt>
      <trkpt lat="62.633406941946" lon="17.971637322054">
        <ele>60.6</ele>
        <time>2018-01-15T18:27:21Z</time>
      </trkpt>
      <trkpt lat="62.633402583358" lon="17.971690379481">
        <ele>60.6</ele>
        <time>2018-01-15T18:27:22Z</time>
      </trkpt>
      <trkpt lat="62.633397218942" lon="17.971750561523">
        <ele>60.6</ele>
        <time>2018-01-15T18:27:23Z</time>
      </trkpt>
      <trkpt lat="62.633391770707" lon="17.971813006678">
        <ele>60.6</ele>
        <time>2018-01-15T18:27:24Z</time>
      </trkpt>
      <trkpt lat="62.633386573929" lon="17.971862040793">
        <ele>60.8</ele>
        <time>2018-01-15T18:27:25Z</time>
      </trkpt>
      <trkpt lat="62.633380958056" lon="17.971924485948">
        <ele>61</ele>
        <time>2018-01-15T18:27:26Z</time>
      </trkpt>
      <trkpt lat="62.633375258364" lon="17.97197963885">
        <ele>61</ele>
        <time>2018-01-15T18:27:27Z</time>
      </trkpt>
      <trkpt lat="62.633367379378" lon="17.972032109544">
        <ele>61.2</ele>
        <time>2018-01-15T18:27:28Z</time>
      </trkpt>
      <trkpt lat="62.633360338582" lon="17.972089525559">
        <ele>61.4</ele>
        <time>2018-01-15T18:27:29Z</time>
      </trkpt>
      <trkpt lat="62.633350783216" lon="17.972143002081">
        <ele>61.4</ele>
        <time>2018-01-15T18:27:30Z</time>
      </trkpt>
      <trkpt lat="62.633338378004" lon="17.972199579906">
        <ele>61.4</ele>
        <time>2018-01-15T18:27:31Z</time>
      </trkpt>
      <trkpt lat="62.633328068267" lon="17.972259761948">
        <ele>61.4</ele>
        <time>2018-01-15T18:27:32Z</time>
      </trkpt>
      <trkpt lat="62.633320189281" lon="17.972306616769">
        <ele>61.6</ele>
        <time>2018-01-15T18:27:33Z</time>
      </trkpt>
      <trkpt lat="62.633310466277" lon="17.97235766254">
        <ele>61.6</ele>
        <time>2018-01-15T18:27:34Z</time>
      </trkpt>
      <trkpt lat="62.633303760757" lon="17.972405020275">
        <ele>61.6</ele>
        <time>2018-01-15T18:27:35Z</time>
      </trkpt>
      <trkpt lat="62.633291020269" lon="17.972472159294">
        <ele>61.8</ele>
        <time>2018-01-15T18:27:36Z</time>
      </trkpt>
      <trkpt lat="62.633279537066" lon="17.972527228377">
        <ele>61.8</ele>
        <time>2018-01-15T18:27:37Z</time>
      </trkpt>
      <trkpt lat="62.633271238985" lon="17.972583051831">
        <ele>62</ele>
        <time>2018-01-15T18:27:38Z</time>
      </trkpt>
      <trkpt lat="62.633256319203" lon="17.972643904425">
        <ele>62</ele>
        <time>2018-01-15T18:27:39Z</time>
      </trkpt>
      <trkpt lat="62.633248356398" lon="17.972695285472">
        <ele>62.2</ele>
        <time>2018-01-15T18:27:40Z</time>
      </trkpt>
      <trkpt lat="62.63323980686" lon="17.97274909727">
        <ele>62.2</ele>
        <time>2018-01-15T18:27:41Z</time>
      </trkpt>
      <trkpt lat="62.633227066372" lon="17.972811039511">
        <ele>62.4</ele>
        <time>2018-01-15T18:27:42Z</time>
      </trkpt>
      <trkpt lat="62.633218349196" lon="17.972867701155">
        <ele>62.4</ele>
        <time>2018-01-15T18:27:43Z</time>
      </trkpt>
      <trkpt lat="62.633208626192" lon="17.972924446618">
        <ele>62.6</ele>
        <time>2018-01-15T18:27:44Z</time>
      </trkpt>
      <trkpt lat="62.633196891532" lon="17.972975743846">
        <ele>62.6</ele>
        <time>2018-01-15T18:27:45Z</time>
      </trkpt>
      <trkpt lat="62.633186833252" lon="17.973026621979">
        <ele>62.8</ele>
        <time>2018-01-15T18:27:46Z</time>
      </trkpt>
      <trkpt lat="62.633175433868" lon="17.973088228944">
        <ele>63</ele>
        <time>2018-01-15T18:27:47Z</time>
      </trkpt>
      <trkpt lat="62.633163783027" lon="17.973144303855">
        <ele>63.2</ele>
        <time>2018-01-15T18:27:48Z</time>
      </trkpt>
      <trkpt lat="62.633150791082" lon="17.97320088168">
        <ele>63.2</ele>
        <time>2018-01-15T18:27:49Z</time>
      </trkpt>
      <trkpt lat="62.633140565164" lon="17.973252933279">
        <ele>63.4</ele>
        <time>2018-01-15T18:27:50Z</time>
      </trkpt>
      <trkpt lat="62.633128998142" lon="17.973308002362">
        <ele>63.8</ele>
        <time>2018-01-15T18:27:51Z</time>
      </trkpt>
      <trkpt lat="62.633117682577" lon="17.973363155264">
        <ele>63.8</ele>
        <time>2018-01-15T18:27:52Z</time>
      </trkpt>
      <trkpt lat="62.633107205202" lon="17.973414201035">
        <ele>63.8</ele>
        <time>2018-01-15T18:27:53Z</time>
      </trkpt>
      <trkpt lat="62.633094129438" lon="17.973467342281">
        <ele>64.2</ele>
        <time>2018-01-15T18:27:54Z</time>
      </trkpt>
      <trkpt lat="62.633083232968" lon="17.973515035292">
        <ele>64.2</ele>
        <time>2018-01-15T18:27:55Z</time>
      </trkpt>
      <trkpt lat="62.633070324842" lon="17.973566919253">
        <ele>64.2</ele>
        <time>2018-01-15T18:27:56Z</time>
      </trkpt>
      <trkpt lat="62.633059176915" lon="17.973616121006">
        <ele>64.2</ele>
        <time>2018-01-15T18:27:57Z</time>
      </trkpt>
      <trkpt lat="62.633046939341" lon="17.973662137637">
        <ele>64.2</ele>
        <time>2018-01-15T18:27:58Z</time>
      </trkpt>
      <trkpt lat="62.633038808898" lon="17.973712093761">
        <ele>64.4</ele>
        <time>2018-01-15T18:27:59Z</time>
      </trkpt>
      <trkpt lat="62.633027158057" lon="17.973766743749">
        <ele>64.2</ele>
        <time>2018-01-15T18:28:00Z</time>
      </trkpt>
      <trkpt lat="62.633016513044" lon="17.973820387909">
        <ele>64.2</ele>
        <time>2018-01-15T18:28:01Z</time>
      </trkpt>
      <trkpt lat="62.633003353461" lon="17.973879480304">
        <ele>64.4</ele>
        <time>2018-01-15T18:28:02Z</time>
      </trkpt>
      <trkpt lat="62.63298918805" lon="17.973933375921">
        <ele>64.4</ele>
        <time>2018-01-15T18:28:03Z</time>
      </trkpt>
      <trkpt lat="62.632979800322" lon="17.973982326217">
        <ele>64.4</ele>
        <time>2018-01-15T18:28:04Z</time>
      </trkpt>
      <trkpt lat="62.63296990968" lon="17.974029683952">
        <ele>64.6</ele>
        <time>2018-01-15T18:28:05Z</time>
      </trkpt>
      <trkpt lat="62.632953648794" lon="17.974094056944">
        <ele>64.8</ele>
        <time>2018-01-15T18:28:06Z</time>
      </trkpt>
      <trkpt lat="62.6329430876" lon="17.97414552181">
        <ele>64.8</ele>
        <time>2018-01-15T18:28:07Z</time>
      </trkpt>
      <trkpt lat="62.632928754551" lon="17.974201429083">
        <ele>64.8</ele>
        <time>2018-01-15T18:28:08Z</time>
      </trkpt>
      <trkpt lat="62.632917187529" lon="17.974245517877">
        <ele>65</ele>
        <time>2018-01-15T18:28:09Z</time>
      </trkpt>
      <trkpt lat="62.63290536905" lon="17.974295976915">
        <ele>65</ele>
        <time>2018-01-15T18:28:10Z</time>
      </trkpt>
      <trkpt lat="62.632887515603" lon="17.97435171655">
        <ele>65.2</ele>
        <time>2018-01-15T18:28:11Z</time>
      </trkpt>
      <trkpt lat="62.632868237233" lon="17.974392871679">
        <ele>65.2</ele>
        <time>2018-01-15T18:28:12Z</time>
      </trkpt>
      <trkpt lat="62.632843762085" lon="17.974424303804">
        <ele>65.4</ele>
        <time>2018-01-15T18:28:13Z</time>
      </trkpt>
      <trkpt lat="62.63281819729" lon="17.974439139767">
        <ele>65.4</ele>
        <time>2018-01-15T18:28:14Z</time>
      </trkpt>
      <trkpt lat="62.632796236712" lon="17.974443749812">
        <ele>65.6</ele>
        <time>2018-01-15T18:28:15Z</time>
      </trkpt>
      <trkpt lat="62.632768995537" lon="17.974428075659">
        <ele>65.8</ele>
        <time>2018-01-15T18:28:16Z</time>
      </trkpt>
      <trkpt lat="62.632738736878" lon="17.974415335171">
        <ele>65.8</ele>
        <time>2018-01-15T18:28:17Z</time>
      </trkpt>
      <trkpt lat="62.632711411884" lon="17.974390776204">
        <ele>65.8</ele>
        <time>2018-01-15T18:28:18Z</time>
      </trkpt>
      <trkpt lat="62.6326832487" lon="17.974375269689">
        <ele>66</ele>
        <time>2018-01-15T18:28:19Z</time>
      </trkpt>
      <trkpt lat="62.632662796864" lon="17.974351213636">
        <ele>66</ele>
        <time>2018-01-15T18:28:20Z</time>
      </trkpt>
      <trkpt lat="62.632637818802" lon="17.974323888642">
        <ele>66</ele>
        <time>2018-01-15T18:28:21Z</time>
      </trkpt>
      <trkpt lat="62.632614936215" lon="17.974299497313">
        <ele>65.8</ele>
        <time>2018-01-15T18:28:22Z</time>
      </trkpt>
      <trkpt lat="62.632591131619" lon="17.974285248083">
        <ele>66</ele>
        <time>2018-01-15T18:28:23Z</time>
      </trkpt>
      <trkpt lat="62.632566824109" lon="17.974258342184">
        <ele>66</ele>
        <time>2018-01-15T18:28:24Z</time>
      </trkpt>
      <trkpt lat="62.632547881015" lon="17.974230933371">
        <ele>65.8</ele>
        <time>2018-01-15T18:28:25Z</time>
      </trkpt>
      <trkpt lat="62.632523741143" lon="17.9742134152">
        <ele>65.8</ele>
        <time>2018-01-15T18:28:26Z</time>
      </trkpt>
      <trkpt lat="62.632499349814" lon="17.97419078407">
        <ele>65.6</ele>
        <time>2018-01-15T18:28:27Z</time>
      </trkpt>
      <trkpt lat="62.632475461399" lon="17.974170918967">
        <ele>65.6</ele>
        <time>2018-01-15T18:28:28Z</time>
      </trkpt>
      <trkpt lat="62.632452914088" lon="17.974147030552">
        <ele>65.6</ele>
        <time>2018-01-15T18:28:29Z</time>
      </trkpt>
      <trkpt lat="62.632430282958" lon="17.974116688074">
        <ele>65.6</ele>
        <time>2018-01-15T18:28:30Z</time>
      </trkpt>
      <trkpt lat="62.632408154742" lon="17.974097493523">
        <ele>65.4</ele>
        <time>2018-01-15T18:28:31Z</time>
      </trkpt>
      <trkpt lat="62.632383595775" lon="17.974067653959">
        <ele>65.4</ele>
        <time>2018-01-15T18:28:32Z</time>
      </trkpt>
      <trkpt lat="62.632358450075" lon="17.974037562938">
        <ele>65.4</ele>
        <time>2018-01-15T18:28:33Z</time>
      </trkpt>
      <trkpt lat="62.632334729298" lon="17.974015099446">
        <ele>65.4</ele>
        <time>2018-01-15T18:28:34Z</time>
      </trkpt>
      <trkpt lat="62.632314696557" lon="17.973992384497">
        <ele>65</ele>
        <time>2018-01-15T18:28:35Z</time>
      </trkpt>
      <trkpt lat="62.632286030459" lon="17.973960617096">
        <ele>65</ele>
        <time>2018-01-15T18:28:36Z</time>
      </trkpt>
      <trkpt lat="62.632256023257" lon="17.973939075613">
        <ele>65</ele>
        <time>2018-01-15T18:28:37Z</time>
      </trkpt>
      <trkpt lat="62.632228698263" lon="17.973910158058">
        <ele>64.8</ele>
        <time>2018-01-15T18:28:38Z</time>
      </trkpt>
      <trkpt lat="62.632203468744" lon="17.973886437281">
        <ele>64.6</ele>
        <time>2018-01-15T18:28:39Z</time>
      </trkpt>
      <trkpt lat="62.632178909777" lon="17.97386305178">
        <ele>64.8</ele>
        <time>2018-01-15T18:28:40Z</time>
      </trkpt>
      <trkpt lat="62.632148818756" lon="17.973830110913">
        <ele>65</ele>
        <time>2018-01-15T18:28:41Z</time>
      </trkpt>
      <trkpt lat="62.632120236477" lon="17.973806557774">
        <ele>65</ele>
        <time>2018-01-15T18:28:42Z</time>
      </trkpt>
      <trkpt lat="62.632091905655" lon="17.973774790373">
        <ele>65</ele>
        <time>2018-01-15T18:28:43Z</time>
      </trkpt>
      <trkpt lat="62.63206466448" lon="17.973752829795">
        <ele>65</ele>
        <time>2018-01-15T18:28:44Z</time>
      </trkpt>
      <trkpt lat="62.632039854056" lon="17.973731036855">
        <ele>65</ele>
        <time>2018-01-15T18:28:45Z</time>
      </trkpt>
      <trkpt lat="62.632011187958" lon="17.973706645526">
        <ele>65.2</ele>
        <time>2018-01-15T18:28:46Z</time>
      </trkpt>
      <trkpt lat="62.63198168367" lon="17.97368451731">
        <ele>65.2</ele>
        <time>2018-01-15T18:28:47Z</time>
      </trkpt>
      <trkpt lat="62.631953269029" lon="17.973651744081">
        <ele>65</ele>
        <time>2018-01-15T18:28:48Z</time>
      </trkpt>
      <trkpt lat="62.631926027854" lon="17.973618551757">
        <ele>65</ele>
        <time>2018-01-15T18:28:49Z</time>
      </trkpt>
      <trkpt lat="62.63190289381" lon="17.973593657514">
        <ele>65</ele>
        <time>2018-01-15T18:28:50Z</time>
      </trkpt>
      <trkpt lat="62.631874227712" lon="17.973562057751">
        <ele>65</ele>
        <time>2018-01-15T18:28:51Z</time>
      </trkpt>
      <trkpt lat="62.631849082012" lon="17.973536912051">
        <ele>65</ele>
        <time>2018-01-15T18:28:52Z</time>
      </trkpt>
      <trkpt lat="62.631823517217" lon="17.973505396107">
        <ele>65</ele>
        <time>2018-01-15T18:28:53Z</time>
      </trkpt>
      <trkpt lat="62.631794851119" lon="17.973466420272">
        <ele>65</ele>
        <time>2018-01-15T18:28:54Z</time>
      </trkpt>
      <trkpt lat="62.631771717075" lon="17.97343976583">
        <ele>65</ele>
        <time>2018-01-15T18:28:55Z</time>
      </trkpt>
      <trkpt lat="62.631742464244" lon="17.973402214918">
        <ele>65</ele>
        <time>2018-01-15T18:28:56Z</time>
      </trkpt>
      <trkpt lat="62.631717737639" lon="17.973370447517">
        <ele>65</ele>
        <time>2018-01-15T18:28:57Z</time>
      </trkpt>
      <trkpt lat="62.631692005206" lon="17.973337925745">
        <ele>65</ele>
        <time>2018-01-15T18:28:58Z</time>
      </trkpt>
      <trkpt lat="62.63166820061" lon="17.973301632118">
        <ele>64.8</ele>
        <time>2018-01-15T18:28:59Z</time>
      </trkpt>
      <trkpt lat="62.631645653299" lon="17.973262656283">
        <ele>64.6</ele>
        <time>2018-01-15T18:29:00Z</time>
      </trkpt>
      <trkpt lat="62.631623860359" lon="17.973218986584">
        <ele>64.6</ele>
        <time>2018-01-15T18:29:01Z</time>
      </trkpt>
      <trkpt lat="62.631602151238" lon="17.973167186442">
        <ele>64.6</ele>
        <time>2018-01-15T18:29:02Z</time>
      </trkpt>
      <trkpt lat="62.631582369954" lon="17.973119912526">
        <ele>64.6</ele>
        <time>2018-01-15T18:29:03Z</time>
      </trkpt>
      <trkpt lat="62.63156175048" lon="17.973074566447">
        <ele>64.4</ele>
        <time>2018-01-15T18:29:04Z</time>
      </trkpt>
      <trkpt lat="62.631541298644" lon="17.973032070214">
        <ele>64.4</ele>
        <time>2018-01-15T18:29:05Z</time>
      </trkpt>
      <trkpt lat="62.631517913143" lon="17.972983455194">
        <ele>64.4</ele>
        <time>2018-01-15T18:29:06Z</time>
      </trkpt>
      <trkpt lat="62.631496623117" lon="17.972937187106">
        <ele>64.4</ele>
        <time>2018-01-15T18:29:07Z</time>
      </trkpt>
      <trkpt lat="62.631474494901" lon="17.972888739724">
        <ele>64.2</ele>
        <time>2018-01-15T18:29:08Z</time>
      </trkpt>
      <trkpt lat="62.631454713617" lon="17.972844399473">
        <ele>64</ele>
        <time>2018-01-15T18:29:09Z</time>
      </trkpt>
      <trkpt lat="62.631436105799" lon="17.972795952091">
        <ele>63.8</ele>
        <time>2018-01-15T18:29:10Z</time>
      </trkpt>
      <trkpt lat="62.631413474669" lon="17.97273903899">
        <ele>63.8</ele>
        <time>2018-01-15T18:29:11Z</time>
      </trkpt>
      <trkpt lat="62.631395118308" lon="17.972688244676">
        <ele>63.6</ele>
        <time>2018-01-15T18:29:12Z</time>
      </trkpt>
      <trkpt lat="62.631374666472" lon="17.972634013783">
        <ele>63.4</ele>
        <time>2018-01-15T18:29:13Z</time>
      </trkpt>
      <trkpt lat="62.631354298455" lon="17.972582046003">
        <ele>63.4</ele>
        <time>2018-01-15T18:29:14Z</time>
      </trkpt>
      <trkpt lat="62.631333008429" lon="17.972537454295">
        <ele>63</ele>
        <time>2018-01-15T18:29:15Z</time>
      </trkpt>
      <trkpt lat="62.63131280805" lon="17.972482301393">
        <ele>63.2</ele>
        <time>2018-01-15T18:29:16Z</time>
      </trkpt>
      <trkpt lat="62.631292859128" lon="17.972427148491">
        <ele>62.8</ele>
        <time>2018-01-15T18:29:17Z</time>
      </trkpt>
      <trkpt lat="62.631273580758" lon="17.972375348349">
        <ele>62.8</ele>
        <time>2018-01-15T18:29:18Z</time>
      </trkpt>
      <trkpt lat="62.63125581113" lon="17.972316339773">
        <ele>62.6</ele>
        <time>2018-01-15T18:29:19Z</time>
      </trkpt>
      <trkpt lat="62.631238712054" lon="17.972270909875">
        <ele>62.4</ele>
        <time>2018-01-15T18:29:20Z</time>
      </trkpt>
      <trkpt lat="62.631216332381" lon="17.972219445009">
        <ele>61.8</ele>
        <time>2018-01-15T18:29:21Z</time>
      </trkpt>
      <trkpt lat="62.631199484762" lon="17.972164124469">
        <ele>61.6</ele>
        <time>2018-01-15T18:29:22Z</time>
      </trkpt>
      <trkpt lat="62.631183391514" lon="17.972111067042">
        <ele>61.2</ele>
        <time>2018-01-15T18:29:23Z</time>
      </trkpt>
      <trkpt lat="62.631168220275" lon="17.972052393742">
        <ele>61</ele>
        <time>2018-01-15T18:29:24Z</time>
      </trkpt>
      <trkpt lat="62.631152378484" lon="17.97199724084">
        <ele>60.8</ele>
        <time>2018-01-15T18:29:25Z</time>
      </trkpt>
      <trkpt lat="62.631136536693" lon="17.971938483721">
        <ele>61</ele>
        <time>2018-01-15T18:29:26Z</time>
      </trkpt>
      <trkpt lat="62.631119772893" lon="17.971876960575">
        <ele>61</ele>
        <time>2018-01-15T18:29:27Z</time>
      </trkpt>
      <trkpt lat="62.631106780948" lon="17.971815102153">
        <ele>61</ele>
        <time>2018-01-15T18:29:28Z</time>
      </trkpt>
      <trkpt lat="62.63109152589" lon="17.97175835669">
        <ele>61</ele>
        <time>2018-01-15T18:29:29Z</time>
      </trkpt>
      <trkpt lat="62.631077611936" lon="17.971704125797">
        <ele>61.2</ele>
        <time>2018-01-15T18:29:30Z</time>
      </trkpt>
      <trkpt lat="62.631062524516" lon="17.971649643447">
        <ele>61.2</ele>
        <time>2018-01-15T18:29:31Z</time>
      </trkpt>
      <trkpt lat="62.631048526743" lon="17.971583677894">
        <ele>61.4</ele>
        <time>2018-01-15T18:29:32Z</time>
      </trkpt>
      <trkpt lat="62.631035870074" lon="17.971519807816">
        <ele>61.4</ele>
        <time>2018-01-15T18:29:33Z</time>
      </trkpt>
      <trkpt lat="62.631027069079" lon="17.971462307982">
        <ele>61.2</ele>
        <time>2018-01-15T18:29:34Z</time>
      </trkpt>
      <trkpt lat="62.631018016627" lon="17.971408244727">
        <ele>61.2</ele>
        <time>2018-01-15T18:29:35Z</time>
      </trkpt>
      <trkpt lat="62.631007455433" lon="17.971325515374">
        <ele>61.2</ele>
        <time>2018-01-15T18:29:36Z</time>
      </trkpt>
      <trkpt lat="62.630999492628" lon="17.971262483486">
        <ele>61</ele>
        <time>2018-01-15T18:29:37Z</time>
      </trkpt>
      <trkpt lat="62.630991446004" lon="17.971195428286">
        <ele>60.8</ele>
        <time>2018-01-15T18:29:38Z</time>
      </trkpt>
      <trkpt lat="62.630987087416" lon="17.971128708362">
        <ele>60.4</ele>
        <time>2018-01-15T18:29:39Z</time>
      </trkpt>
      <trkpt lat="62.630979795163" lon="17.971070370338">
        <ele>60.4</ele>
        <time>2018-01-15T18:29:40Z</time>
      </trkpt>
      <trkpt lat="62.630970323616" lon="17.970997363989">
        <ele>60.2</ele>
        <time>2018-01-15T18:29:41Z</time>
      </trkpt>
      <trkpt lat="62.630961690259" lon="17.970932152807">
        <ele>60.2</ele>
        <time>2018-01-15T18:29:42Z</time>
      </trkpt>
      <trkpt lat="62.630954398006" lon="17.970863588865">
        <ele>60.2</ele>
        <time>2018-01-15T18:29:43Z</time>
      </trkpt>
      <trkpt lat="62.630946938115" lon="17.970791253068">
        <ele>60</ele>
        <time>2018-01-15T18:29:44Z</time>
      </trkpt>
      <trkpt lat="62.630940903147" lon="17.970725287515">
        <ele>60</ele>
        <time>2018-01-15T18:29:45Z</time>
      </trkpt>
      <trkpt lat="62.630932856523" lon="17.970658399953">
        <ele>60</ele>
        <time>2018-01-15T18:29:46Z</time>
      </trkpt>
      <trkpt lat="62.630924055528" lon="17.970585561242">
        <ele>59.8</ele>
        <time>2018-01-15T18:29:47Z</time>
      </trkpt>
      <trkpt lat="62.630913997248" lon="17.970522696992">
        <ele>59.6</ele>
        <time>2018-01-15T18:29:48Z</time>
      </trkpt>
      <trkpt lat="62.630908632832" lon="17.97044910391">
        <ele>59.4</ele>
        <time>2018-01-15T18:29:49Z</time>
      </trkpt>
      <trkpt lat="62.630908046099" lon="17.970394956836">
        <ele>59.2</ele>
        <time>2018-01-15T18:29:50Z</time>
      </trkpt>
      <trkpt lat="62.630906202081" lon="17.970283058471">
        <ele>59.2</ele>
        <time>2018-01-15T18:29:52Z</time>
      </trkpt>
      <trkpt lat="62.630906872633" lon="17.970228827578">
        <ele>59</ele>
        <time>2018-01-15T18:29:53Z</time>
      </trkpt>
      <trkpt lat="62.630906621176" lon="17.970195216159">
        <ele>59</ele>
        <time>2018-01-15T18:29:54Z</time>
      </trkpt>
      <trkpt lat="62.630907878461" lon="17.970167052975">
        <ele>59.2</ele>
        <time>2018-01-15T18:29:55Z</time>
      </trkpt>
      <trkpt lat="62.630909806298" lon="17.970142745465">
        <ele>59.2</ele>
        <time>2018-01-15T18:29:56Z</time>
      </trkpt>
      <trkpt lat="62.630907291728" lon="17.970140147076">
        <ele>59.2</ele>
        <time>2018-01-15T18:29:57Z</time>
      </trkpt>
      <trkpt lat="62.630903687511" lon="17.970127825683">
        <ele>59</ele>
        <time>2018-01-15T18:29:58Z</time>
      </trkpt>
      <trkpt lat="62.63090377133" lon="17.970129669701">
        <ele>58.8</ele>
        <time>2018-01-15T18:29:59Z</time>
      </trkpt>
      <trkpt lat="62.630907459366" lon="17.970137381049">
        <ele>58.6</ele>
        <time>2018-01-15T18:30:03Z</time>
      </trkpt>
      <trkpt lat="62.630912320868" lon="17.970133022461">
        <ele>58.6</ele>
        <time>2018-01-15T18:30:04Z</time>
      </trkpt>
      <trkpt lat="62.630916930913" lon="17.970123970009">
        <ele>58.6</ele>
        <time>2018-01-15T18:30:05Z</time>
      </trkpt>
      <trkpt lat="62.630921121863" lon="17.970114833738">
        <ele>58.6</ele>
        <time>2018-01-15T18:30:06Z</time>
      </trkpt>
      <trkpt lat="62.630927575926" lon="17.970109553141">
        <ele>58.6</ele>
        <time>2018-01-15T18:30:07Z</time>
      </trkpt>
      <trkpt lat="62.630935119636" lon="17.970110139874">
        <ele>58.6</ele>
        <time>2018-01-15T18:30:08Z</time>
      </trkpt>
      <trkpt lat="62.630941070785" lon="17.970117599765">
        <ele>58.6</ele>
        <time>2018-01-15T18:30:09Z</time>
      </trkpt>
      <trkpt lat="62.630945094097" lon="17.970127741864">
        <ele>58.6</ele>
        <time>2018-01-15T18:30:10Z</time>
      </trkpt>
      <trkpt lat="62.630946770477" lon="17.970139476524">
        <ele>58.6</ele>
        <time>2018-01-15T18:30:11Z</time>
      </trkpt>
      <trkpt lat="62.630947441029" lon="17.970150624451">
        <ele>58.6</ele>
        <time>2018-01-15T18:30:12Z</time>
      </trkpt>
      <trkpt lat="62.63094987178" lon="17.97015322284">
        <ele>58.6</ele>
        <time>2018-01-15T18:30:13Z</time>
      </trkpt>
      <trkpt lat="62.630954984739" lon="17.970139727981">
        <ele>58.6</ele>
        <time>2018-01-15T18:30:14Z</time>
      </trkpt>
      <trkpt lat="62.631156401796" lon="17.970030595643">
        <ele>58</ele>
        <time>2018-01-15T18:31:28Z</time>
      </trkpt>
      <trkpt lat="62.631189342663" lon="17.970016011137">
        <ele>58</ele>
        <time>2018-01-15T18:31:29Z</time>
      </trkpt>
      <trkpt lat="62.631191941052" lon="17.970011065816">
        <ele>58.2</ele>
        <time>2018-01-15T18:31:30Z</time>
      </trkpt>
      <trkpt lat="62.631232509448" lon="17.969984830469">
        <ele>58.2</ele>
        <time>2018-01-15T18:31:31Z</time>
      </trkpt>
      <trkpt lat="62.631328314565" lon="17.969934622888">
        <ele>58.2</ele>
        <time>2018-01-15T18:31:33Z</time>
      </trkpt>
      <trkpt lat="62.631361087794" lon="17.969918697278">
        <ele>58</ele>
        <time>2018-01-15T18:31:34Z</time>
      </trkpt>
      <trkpt lat="62.631392352281" lon="17.969898664537">
        <ele>57.8</ele>
        <time>2018-01-15T18:31:35Z</time>
      </trkpt>
      <trkpt lat="62.631429400279" lon="17.969870249896">
        <ele>57.8</ele>
        <time>2018-01-15T18:31:36Z</time>
      </trkpt>
      <trkpt lat="62.631460161852" lon="17.969847115852">
        <ele>57.6</ele>
        <time>2018-01-15T18:31:37Z</time>
      </trkpt>
      <trkpt lat="62.631493354176" lon="17.969830854966">
        <ele>57.6</ele>
        <time>2018-01-15T18:31:38Z</time>
      </trkpt>
      <trkpt lat="62.631527887604" lon="17.969806715094">
        <ele>57.4</ele>
        <time>2018-01-15T18:31:39Z</time>
      </trkpt>
      <trkpt lat="62.631554793503" lon="17.969792465864">
        <ele>57.2</ele>
        <time>2018-01-15T18:31:40Z</time>
      </trkpt>
      <trkpt lat="62.6315936017" lon="17.969771092019">
        <ele>57.2</ele>
        <time>2018-01-15T18:31:41Z</time>
      </trkpt>
      <trkpt lat="62.631625620558" lon="17.969752148925">
        <ele>57.2</ele>
        <time>2018-01-15T18:31:42Z</time>
      </trkpt>
      <trkpt lat="62.631658645244" lon="17.969729601614">
        <ele>57.2</ele>
        <time>2018-01-15T18:31:43Z</time>
      </trkpt>
      <trkpt lat="62.631687981894" lon="17.96970311481">
        <ele>57.2</ele>
        <time>2018-01-15T18:31:44Z</time>
      </trkpt>
      <trkpt lat="62.631715306888" lon="17.969671515047">
        <ele>57</ele>
        <time>2018-01-15T18:31:45Z</time>
      </trkpt>
      <trkpt lat="62.63174363771" lon="17.969635808153">
        <ele>56.8</ele>
        <time>2018-01-15T18:31:46Z</time>
      </trkpt>
      <trkpt lat="62.631774986016" lon="17.969605130399">
        <ele>56.8</ele>
        <time>2018-01-15T18:31:47Z</time>
      </trkpt>
      <trkpt lat="62.631805160856" lon="17.969576212844">
        <ele>56.6</ele>
        <time>2018-01-15T18:31:48Z</time>
      </trkpt>
      <trkpt lat="62.631836425343" lon="17.96955978432">
        <ele>56.4</ele>
        <time>2018-01-15T18:31:49Z</time>
      </trkpt>
      <trkpt lat="62.631865678174" lon="17.969563304718">
        <ele>56.2</ele>
        <time>2018-01-15T18:31:50Z</time>
      </trkpt>
      <trkpt lat="62.631896607385" lon="17.96956481346">
        <ele>56</ele>
        <time>2018-01-15T18:31:51Z</time>
      </trkpt>
      <trkpt lat="62.631927788053" lon="17.969565986926">
        <ele>55.8</ele>
        <time>2018-01-15T18:31:52Z</time>
      </trkpt>
      <trkpt lat="62.631958046712" lon="17.969568082401">
        <ele>55.8</ele>
        <time>2018-01-15T18:31:53Z</time>
      </trkpt>
      <trkpt lat="62.631989981751" lon="17.969564478184">
        <ele>55.8</ele>
        <time>2018-01-15T18:31:54Z</time>
      </trkpt>
      <trkpt lat="62.632020491867" lon="17.969563472356">
        <ele>55.8</ele>
        <time>2018-01-15T18:31:55Z</time>
      </trkpt>
      <trkpt lat="62.632052846001" lon="17.969562466528">
        <ele>55.8</ele>
        <time>2018-01-15T18:31:56Z</time>
      </trkpt>
      <trkpt lat="62.632086792696" lon="17.969561963614">
        <ele>56</ele>
        <time>2018-01-15T18:31:57Z</time>
      </trkpt>
      <trkpt lat="62.632117638088" lon="17.96955224061">
        <ele>56.2</ele>
        <time>2018-01-15T18:31:58Z</time>
      </trkpt>
      <trkpt lat="62.632149573127" lon="17.969545451271">
        <ele>56.4</ele>
        <time>2018-01-15T18:31:59Z</time>
      </trkpt>
      <trkpt lat="62.632180669976" lon="17.969536147362">
        <ele>56.4</ele>
        <time>2018-01-15T18:32:00Z</time>
      </trkpt>
      <trkpt lat="62.632211431549" lon="17.969525083254">
        <ele>56.4</ele>
        <time>2018-01-15T18:32:01Z</time>
      </trkpt>
      <trkpt lat="62.632247641357" lon="17.969520724666">
        <ele>56.4</ele>
        <time>2018-01-15T18:32:02Z</time>
      </trkpt>
      <trkpt lat="62.632274295799" lon="17.969514186784">
        <ele>56.6</ele>
        <time>2018-01-15T18:32:03Z</time>
      </trkpt>
      <trkpt lat="62.632305308829" lon="17.969511756033">
        <ele>56.8</ele>
        <time>2018-01-15T18:32:04Z</time>
      </trkpt>
      <trkpt lat="62.632334394022" lon="17.969509660558">
        <ele>56.8</ele>
        <time>2018-01-15T18:32:05Z</time>
      </trkpt>
      <trkpt lat="62.632369095088" lon="17.969507062169">
        <ele>57</ele>
        <time>2018-01-15T18:32:06Z</time>
      </trkpt>
      <trkpt lat="62.632403796154" lon="17.969511672214">
        <ele>57.2</ele>
        <time>2018-01-15T18:32:07Z</time>
      </trkpt>
      <trkpt lat="62.632429109492" lon="17.969514186784">
        <ele>57.2</ele>
        <time>2018-01-15T18:32:08Z</time>
      </trkpt>
      <trkpt lat="62.632463307644" lon="17.969511839852">
        <ele>57.2</ele>
        <time>2018-01-15T18:32:09Z</time>
      </trkpt>
      <trkpt lat="62.632491889923" lon="17.969510834024">
        <ele>57.2</ele>
        <time>2018-01-15T18:32:10Z</time>
      </trkpt>
      <trkpt lat="62.632523908781" lon="17.969507900359">
        <ele>57.4</ele>
        <time>2018-01-15T18:32:11Z</time>
      </trkpt>
      <trkpt lat="62.632559448037" lon="17.969514605879">
        <ele>57.4</ele>
        <time>2018-01-15T18:32:12Z</time>
      </trkpt>
      <trkpt lat="62.632588868506" lon="17.969517791001">
        <ele>57.4</ele>
        <time>2018-01-15T18:32:13Z</time>
      </trkpt>
      <trkpt lat="62.632619210984" lon="17.96952206577">
        <ele>57.6</ele>
        <time>2018-01-15T18:32:14Z</time>
      </trkpt>
      <trkpt lat="62.63264636834" lon="17.969527597824">
        <ele>57.6</ele>
        <time>2018-01-15T18:32:15Z</time>
      </trkpt>
      <trkpt lat="62.632677968103" lon="17.969531621136">
        <ele>57.6</ele>
        <time>2018-01-15T18:32:16Z</time>
      </trkpt>
      <trkpt lat="62.632709986961" lon="17.969539081027">
        <ele>57.4</ele>
        <time>2018-01-15T18:32:17Z</time>
      </trkpt>
      <trkpt lat="62.632741670543" lon="17.969543188158">
        <ele>57.6</ele>
        <time>2018-01-15T18:32:18Z</time>
      </trkpt>
      <trkpt lat="62.632773186487" lon="17.969552156791">
        <ele>57.6</ele>
        <time>2018-01-15T18:32:19Z</time>
      </trkpt>
      <trkpt lat="62.632798499825" lon="17.969558527035">
        <ele>57.6</ele>
        <time>2018-01-15T18:32:20Z</time>
      </trkpt>
      <trkpt lat="62.632830099588" lon="17.969561963614">
        <ele>57.6</ele>
        <time>2018-01-15T18:32:21Z</time>
      </trkpt>
      <trkpt lat="62.63286010679" lon="17.969566657478">
        <ele>57.6</ele>
        <time>2018-01-15T18:32:22Z</time>
      </trkpt>
      <trkpt lat="62.632886509775" lon="17.969574285007">
        <ele>57.4</ele>
        <time>2018-01-15T18:32:23Z</time>
      </trkpt>
      <trkpt lat="62.632918193357" lon="17.969585349115">
        <ele>57.4</ele>
        <time>2018-01-15T18:32:24Z</time>
      </trkpt>
      <trkpt lat="62.632943674333" lon="17.96959331192">
        <ele>57.6</ele>
        <time>2018-01-15T18:32:25Z</time>
      </trkpt>
      <trkpt lat="62.632972005155" lon="17.969602364372">
        <ele>57.6</ele>
        <time>2018-01-15T18:32:26Z</time>
      </trkpt>
      <trkpt lat="62.633001006529" lon="17.969612171195">
        <ele>57.8</ele>
        <time>2018-01-15T18:32:27Z</time>
      </trkpt>
      <trkpt lat="62.633027409514" lon="17.969619631086">
        <ele>58.2</ele>
        <time>2018-01-15T18:32:28Z</time>
      </trkpt>
      <trkpt lat="62.633057332897" lon="17.969630443737">
        <ele>58.4</ele>
        <time>2018-01-15T18:32:29Z</time>
      </trkpt>
      <trkpt lat="62.633086669547" lon="17.969636646343">
        <ele>58.4</ele>
        <time>2018-01-15T18:32:30Z</time>
      </trkpt>
      <trkpt lat="62.633118604586" lon="17.969647207537">
        <ele>58.4</ele>
        <time>2018-01-15T18:32:31Z</time>
      </trkpt>
      <trkpt lat="62.633149701435" lon="17.969657349636">
        <ele>58.6</ele>
        <time>2018-01-15T18:32:32Z</time>
      </trkpt>
      <trkpt lat="62.63317610442" lon="17.969669503391">
        <ele>58.4</ele>
        <time>2018-01-15T18:32:33Z</time>
      </trkpt>
      <trkpt lat="62.633203429414" lon="17.969684087897">
        <ele>58.6</ele>
        <time>2018-01-15T18:32:34Z</time>
      </trkpt>
      <trkpt lat="62.633230754408" lon="17.969694816729">
        <ele>58.6</ele>
        <time>2018-01-15T18:32:35Z</time>
      </trkpt>
      <trkpt lat="62.633260258696" lon="17.969717699316">
        <ele>58.6</ele>
        <time>2018-01-15T18:32:36Z</time>
      </trkpt>
      <trkpt lat="62.63328758369" lon="17.969741923007">
        <ele>58.8</ele>
        <time>2018-01-15T18:32:37Z</time>
      </trkpt>
      <trkpt lat="62.633311304467" lon="17.969773187494">
        <ele>58.8</ele>
        <time>2018-01-15T18:32:38Z</time>
      </trkpt>
      <trkpt lat="62.633331001932" lon="17.969815013175">
        <ele>58.6</ele>
        <time>2018-01-15T18:32:39Z</time>
      </trkpt>
      <trkpt lat="62.63334458061" lon="17.969856419761">
        <ele>58.8</ele>
        <time>2018-01-15T18:32:40Z</time>
      </trkpt>
      <trkpt lat="62.633359416573" lon="17.969907130256">
        <ele>58.8</ele>
        <time>2018-01-15T18:32:41Z</time>
      </trkpt>
      <trkpt lat="62.633362769333" lon="17.969964378633">
        <ele>59</ele>
        <time>2018-01-15T18:32:42Z</time>
      </trkpt>
      <trkpt lat="62.633364110437" lon="17.970011904006">
        <ele>59</ele>
        <time>2018-01-15T18:32:43Z</time>
      </trkpt>
      <trkpt lat="62.633364361894" lon="17.970073762428">
        <ele>59</ele>
        <time>2018-01-15T18:32:44Z</time>
      </trkpt>
      <trkpt lat="62.633367882292" lon="17.970123048">
        <ele>59</ele>
        <time>2018-01-15T18:32:45Z</time>
      </trkpt>
      <trkpt lat="62.63337391726" lon="17.970175937789">
        <ele>59.2</ele>
        <time>2018-01-15T18:32:46Z</time>
      </trkpt>
      <trkpt lat="62.63337810821" lon="17.970234694908">
        <ele>59.4</ele>
        <time>2018-01-15T18:32:47Z</time>
      </trkpt>
      <trkpt lat="62.633382802074" lon="17.970288590525">
        <ele>59.8</ele>
        <time>2018-01-15T18:32:48Z</time>
      </trkpt>
      <trkpt lat="62.633386406291" lon="17.970350700404">
        <ele>59.8</ele>
        <time>2018-01-15T18:32:49Z</time>
      </trkpt>
      <trkpt lat="62.633388417947" lon="17.970407529686">
        <ele>59.8</ele>
        <time>2018-01-15T18:32:50Z</time>
      </trkpt>
      <trkpt lat="62.633392692716" lon="17.970459748923">
        <ele>59.8</ele>
        <time>2018-01-15T18:32:51Z</time>
      </trkpt>
      <trkpt lat="62.63339654839" lon="17.970512722531">
        <ele>59.8</ele>
        <time>2018-01-15T18:32:52Z</time>
      </trkpt>
      <trkpt lat="62.633403421548" lon="17.970560164085">
        <ele>59.6</ele>
        <time>2018-01-15T18:32:53Z</time>
      </trkpt>
      <trkpt lat="62.63341079762" lon="17.970626464914">
        <ele>59.8</ele>
        <time>2018-01-15T18:32:54Z</time>
      </trkpt>
      <trkpt lat="62.633412306362" lon="17.970686144042">
        <ele>59.8</ele>
        <time>2018-01-15T18:32:55Z</time>
      </trkpt>
      <trkpt lat="62.633412725457" lon="17.970747751007">
        <ele>60</ele>
        <time>2018-01-15T18:32:56Z</time>
      </trkpt>
      <trkpt lat="62.633412641638" lon="17.970811118171">
        <ele>60</ele>
        <time>2018-01-15T18:32:57Z</time>
      </trkpt>
      <trkpt lat="62.633414653294" lon="17.970865935797">
        <ele>60</ele>
        <time>2018-01-15T18:32:58Z</time>
      </trkpt>
      <trkpt lat="62.633415156208" lon="17.970925950201">
        <ele>60.2</ele>
        <time>2018-01-15T18:32:59Z</time>
      </trkpt>
      <trkpt lat="62.633414820932" lon="17.970981522198">
        <ele>60.4</ele>
        <time>2018-01-15T18:33:00Z</time>
      </trkpt>
      <trkpt lat="62.633415910579" lon="17.971038267661">
        <ele>60.4</ele>
        <time>2018-01-15T18:33:01Z</time>
      </trkpt>
      <trkpt lat="62.63341498857" lon="17.971099371712">
        <ele>60.6</ele>
        <time>2018-01-15T18:33:02Z</time>
      </trkpt>
      <trkpt lat="62.633415491484" lon="17.971167684197">
        <ele>60.6</ele>
        <time>2018-01-15T18:33:03Z</time>
      </trkpt>
      <trkpt lat="62.633415240027" lon="17.971223172375">
        <ele>60.6</ele>
        <time>2018-01-15T18:33:04Z</time>
      </trkpt>
      <trkpt lat="62.633415240027" lon="17.971282767684">
        <ele>61</ele>
        <time>2018-01-15T18:33:05Z</time>
      </trkpt>
      <trkpt lat="62.633418425149" lon="17.971352756549">
        <ele>61.2</ele>
        <time>2018-01-15T18:33:06Z</time>
      </trkpt>
      <trkpt lat="62.633411803448" lon="17.971410675478">
        <ele>61.2</ele>
        <time>2018-01-15T18:33:07Z</time>
      </trkpt>
      <trkpt lat="62.633410043249" lon="17.971464822552">
        <ele>61.4</ele>
        <time>2018-01-15T18:33:08Z</time>
      </trkpt>
      <trkpt lat="62.633410127068" lon="17.971528105897">
        <ele>61.4</ele>
        <time>2018-01-15T18:33:09Z</time>
      </trkpt>
      <trkpt lat="62.633407025765" lon="17.971583761713">
        <ele>61.6</ele>
        <time>2018-01-15T18:33:10Z</time>
      </trkpt>
      <trkpt lat="62.633405684661" lon="17.971645871592">
        <ele>61.6</ele>
        <time>2018-01-15T18:33:11Z</time>
      </trkpt>
      <trkpt lat="62.633400320245" lon="17.971719213217">
        <ele>61.8</ele>
        <time>2018-01-15T18:33:12Z</time>
      </trkpt>
      <trkpt lat="62.63339822477" lon="17.971774785214">
        <ele>61.8</ele>
        <time>2018-01-15T18:33:13Z</time>
      </trkpt>
      <trkpt lat="62.633394369096" lon="17.971831446858">
        <ele>62</ele>
        <time>2018-01-15T18:33:14Z</time>
      </trkpt>
      <trkpt lat="62.633390513422" lon="17.97188157062">
        <ele>62.2</ele>
        <time>2018-01-15T18:33:15Z</time>
      </trkpt>
      <trkpt lat="62.633384729911" lon="17.971934125133">
        <ele>62.2</ele>
        <time>2018-01-15T18:33:16Z</time>
      </trkpt>
      <trkpt lat="62.63337727002" lon="17.971997492297">
        <ele>62</ele>
        <time>2018-01-15T18:33:17Z</time>
      </trkpt>
      <trkpt lat="62.633369893948" lon="17.97205507595">
        <ele>62</ele>
        <time>2018-01-15T18:33:18Z</time>
      </trkpt>
      <trkpt lat="62.633361679686" lon="17.972115509449">
        <ele>62.4</ele>
        <time>2018-01-15T18:33:19Z</time>
      </trkpt>
      <trkpt lat="62.633350531759" lon="17.972170829989">
        <ele>62.4</ele>
        <time>2018-01-15T18:33:20Z</time>
      </trkpt>
      <trkpt lat="62.633342820411" lon="17.972224474149">
        <ele>62.4</ele>
        <time>2018-01-15T18:33:21Z</time>
      </trkpt>
      <trkpt lat="62.633330666656" lon="17.972279375594">
        <ele>62.4</ele>
        <time>2018-01-15T18:33:22Z</time>
      </trkpt>
      <trkpt lat="62.633320105462" lon="17.972333522668">
        <ele>62.4</ele>
        <time>2018-01-15T18:33:23Z</time>
      </trkpt>
      <trkpt lat="62.633311723562" lon="17.97239621928">
        <ele>62.6</ele>
        <time>2018-01-15T18:33:24Z</time>
      </trkpt>
      <trkpt lat="62.633301078549" lon="17.97245070163">
        <ele>62.8</ele>
        <time>2018-01-15T18:33:25Z</time>
      </trkpt>
      <trkpt lat="62.633294540667" lon="17.972507530912">
        <ele>62.8</ele>
        <time>2018-01-15T18:33:26Z</time>
      </trkpt>
      <trkpt lat="62.633280794351" lon="17.972565868936">
        <ele>62.8</ele>
        <time>2018-01-15T18:33:27Z</time>
      </trkpt>
      <trkpt lat="62.633271993356" lon="17.972614232499">
        <ele>63</ele>
        <time>2018-01-15T18:33:28Z</time>
      </trkpt>
      <trkpt lat="62.633265120198" lon="17.972670642686">
        <ele>63.2</ele>
        <time>2018-01-15T18:33:29Z</time>
      </trkpt>
      <trkpt lat="62.633251876796" lon="17.972729148348">
        <ele>63.4</ele>
        <time>2018-01-15T18:33:30Z</time>
      </trkpt>
      <trkpt lat="62.633240561231" lon="17.972779355929">
        <ele>63.6</ele>
        <time>2018-01-15T18:33:31Z</time>
      </trkpt>
      <trkpt lat="62.633226814915" lon="17.972836855763">
        <ele>64</ele>
        <time>2018-01-15T18:33:32Z</time>
      </trkpt>
      <trkpt lat="62.633213236237" lon="17.972896870167">
        <ele>64.2</ele>
        <time>2018-01-15T18:33:33Z</time>
      </trkpt>
      <trkpt lat="62.633204854337" lon="17.972949759956">
        <ele>64.4</ele>
        <time>2018-01-15T18:33:34Z</time>
      </trkpt>
      <trkpt lat="62.633193957867" lon="17.973003152659">
        <ele>64.6</ele>
        <time>2018-01-15T18:33:35Z</time>
      </trkpt>
      <trkpt lat="62.633181468836" lon="17.973077500112">
        <ele>64.6</ele>
        <time>2018-01-15T18:33:36Z</time>
      </trkpt>
      <trkpt lat="62.633169482719" lon="17.973130808996">
        <ele>64.8</ele>
        <time>2018-01-15T18:33:37Z</time>
      </trkpt>
      <trkpt lat="62.63315766424" lon="17.973186800088">
        <ele>64.8</ele>
        <time>2018-01-15T18:33:38Z</time>
      </trkpt>
      <trkpt lat="62.633147270684" lon="17.973230972701">
        <ele>65</ele>
        <time>2018-01-15T18:33:39Z</time>
      </trkpt>
      <trkpt lat="62.633138888784" lon="17.973280425911">
        <ele>65</ele>
        <time>2018-01-15T18:33:40Z</time>
      </trkpt>
      <trkpt lat="62.633128662866" lon="17.973338596297">
        <ele>65</ele>
        <time>2018-01-15T18:33:41Z</time>
      </trkpt>
      <trkpt lat="62.633114832731" lon="17.973394168294">
        <ele>65</ele>
        <time>2018-01-15T18:33:42Z</time>
      </trkpt>
      <trkpt lat="62.633105445003" lon="17.973442364219">
        <ele>65</ele>
        <time>2018-01-15T18:33:43Z</time>
      </trkpt>
      <trkpt lat="62.633091950144" lon="17.973501205157">
        <ele>65</ele>
        <time>2018-01-15T18:33:44Z</time>
      </trkpt>
      <trkpt lat="62.633080969855" lon="17.973543869028">
        <ele>64.8</ele>
        <time>2018-01-15T18:33:45Z</time>
      </trkpt>
      <trkpt lat="62.633067726453" lon="17.973592400229">
        <ele>64.8</ele>
        <time>2018-01-15T18:33:46Z</time>
      </trkpt>
      <trkpt lat="62.633052471395" lon="17.973651576443">
        <ele>64.6</ele>
        <time>2018-01-15T18:33:47Z</time>
      </trkpt>
      <trkpt lat="62.633040150002" lon="17.973707818992">
        <ele>64.6</ele>
        <time>2018-01-15T18:33:48Z</time>
      </trkpt>
      <trkpt lat="62.633027912428" lon="17.973760876419">
        <ele>64.6</ele>
        <time>2018-01-15T18:33:49Z</time>
      </trkpt>
      <trkpt lat="62.633016596863" lon="17.973811084">
        <ele>64.6</ele>
        <time>2018-01-15T18:33:50Z</time>
      </trkpt>
      <trkpt lat="62.632999833063" lon="17.973867494187">
        <ele>65</ele>
        <time>2018-01-15T18:33:51Z</time>
      </trkpt>
      <trkpt lat="62.632987930765" lon="17.973923988193">
        <ele>65.2</ele>
        <time>2018-01-15T18:33:52Z</time>
      </trkpt>
      <trkpt lat="62.632973010983" lon="17.973984086416">
        <ele>65.6</ele>
        <time>2018-01-15T18:33:53Z</time>
      </trkpt>
      <trkpt lat="62.632961611599" lon="17.974045022829">
        <ele>66</ele>
        <time>2018-01-15T18:33:54Z</time>
      </trkpt>
      <trkpt lat="62.632952056233" lon="17.974103360853">
        <ele>66.2</ele>
        <time>2018-01-15T18:33:55Z</time>
      </trkpt>
      <trkpt lat="62.632937639365" lon="17.974163375257">
        <ele>66.4</ele>
        <time>2018-01-15T18:33:56Z</time>
      </trkpt>
      <trkpt lat="62.632923557773" lon="17.974226407145">
        <ele>66.6</ele>
        <time>2018-01-15T18:33:57Z</time>
      </trkpt>
      <trkpt lat="62.632909727638" lon="17.974284828988">
        <ele>66.6</ele>
        <time>2018-01-15T18:33:58Z</time>
      </trkpt>
      <trkpt lat="62.632895562227" lon="17.974339311338">
        <ele>66.6</ele>
        <time>2018-01-15T18:33:59Z</time>
      </trkpt>
      <trkpt lat="62.632871170898" lon="17.974388680729">
        <ele>66.6</ele>
        <time>2018-01-15T18:34:00Z</time>
      </trkpt>
      <trkpt lat="62.632845522284" lon="17.974427069831">
        <ele>66.8</ele>
        <time>2018-01-15T18:34:01Z</time>
      </trkpt>
      <trkpt lat="62.632815179806" lon="17.974449952418">
        <ele>66.8</ele>
        <time>2018-01-15T18:34:02Z</time>
      </trkpt>
      <trkpt lat="62.632781903663" lon="17.974445677649">
        <ele>67.2</ele>
        <time>2018-01-15T18:34:03Z</time>
      </trkpt>
      <trkpt lat="62.63275952399" lon="17.974440816147">
        <ele>67.2</ele>
        <time>2018-01-15T18:34:04Z</time>
      </trkpt>
      <trkpt lat="62.632736138489" lon="17.974428075659">
        <ele>67.2</ele>
        <time>2018-01-15T18:34:05Z</time>
      </trkpt>
      <trkpt lat="62.632700934509" lon="17.974409048746">
        <ele>67</ele>
        <time>2018-01-15T18:34:06Z</time>
      </trkpt>
      <trkpt lat="62.632677884284" lon="17.974392117308">
        <ele>67.2</ele>
        <time>2018-01-15T18:34:07Z</time>
      </trkpt>
      <trkpt lat="62.632652068032" lon="17.974358589708">
        <ele>67</ele>
        <time>2018-01-15T18:34:08Z</time>
      </trkpt>
      <trkpt lat="62.632623401934" lon="17.974351213636">
        <ele>67</ele>
        <time>2018-01-15T18:34:09Z</time>
      </trkpt>
      <trkpt lat="62.632601189899" lon="17.974340400985">
        <ele>67</ele>
        <time>2018-01-15T18:34:10Z</time>
      </trkpt>
      <trkpt lat="62.632576547113" lon="17.974312153982">
        <ele>67.2</ele>
        <time>2018-01-15T18:34:11Z</time>
      </trkpt>
      <trkpt lat="62.632550982318" lon="17.974293378526">
        <ele>67.6</ele>
        <time>2018-01-15T18:34:12Z</time>
      </trkpt>
      <trkpt lat="62.632532961233" lon="17.974276111812">
        <ele>67.8</ele>
        <time>2018-01-15T18:34:13Z</time>
      </trkpt>
      <trkpt lat="62.632505133325" lon="17.974249625008">
        <ele>67.8</ele>
        <time>2018-01-15T18:34:14Z</time>
      </trkpt>
      <trkpt lat="62.632480239082" lon="17.974253899777">
        <ele>68</ele>
        <time>2018-01-15T18:34:15Z</time>
      </trkpt>
      <trkpt lat="62.632452914088" lon="17.974238896176">
        <ele>68.2</ele>
        <time>2018-01-15T18:34:16Z</time>
      </trkpt>
      <trkpt lat="62.632426175827" lon="17.9742134152">
        <ele>67.6</ele>
        <time>2018-01-15T18:34:17Z</time>
      </trkpt>
      <trkpt lat="62.632402538869" lon="17.97417904941">
        <ele>67.2</ele>
        <time>2018-01-15T18:34:18Z</time>
      </trkpt>
      <trkpt lat="62.632383344318" lon="17.974151137683">
        <ele>66.8</ele>
        <time>2018-01-15T18:34:19Z</time>
      </trkpt>
      <trkpt lat="62.632361719016" lon="17.97412540525">
        <ele>66.8</ele>
        <time>2018-01-15T18:34:20Z</time>
      </trkpt>
      <trkpt lat="62.632332550004" lon="17.974088943985">
        <ele>67</ele>
        <time>2018-01-15T18:34:21Z</time>
      </trkpt>
      <trkpt lat="62.632303380992" lon="17.974059272059">
        <ele>67.2</ele>
        <time>2018-01-15T18:34:22Z</time>
      </trkpt>
      <trkpt lat="62.632283180613" lon="17.974027839934">
        <ele>66.8</ele>
        <time>2018-01-15T18:34:23Z</time>
      </trkpt>
      <trkpt lat="62.632255687981" lon="17.973996659266">
        <ele>66.8</ele>
        <time>2018-01-15T18:34:24Z</time>
      </trkpt>
      <trkpt lat="62.632229452634" lon="17.973978973457">
        <ele>66.6</ele>
        <time>2018-01-15T18:34:25Z</time>
      </trkpt>
      <trkpt lat="62.632199110156" lon="17.973957431974">
        <ele>66.2</ele>
        <time>2018-01-15T18:34:26Z</time>
      </trkpt>
      <trkpt lat="62.632170527877" lon="17.973927508591">
        <ele>65.8</ele>
        <time>2018-01-15T18:34:27Z</time>
      </trkpt>
      <trkpt lat="62.632145465996" lon="17.97389993214">
        <ele>65.4</ele>
        <time>2018-01-15T18:34:28Z</time>
      </trkpt>
      <trkpt lat="62.632129037472" lon="17.973888951851">
        <ele>65.6</ele>
        <time>2018-01-15T18:34:29Z</time>
      </trkpt>
      <trkpt lat="62.632095761329" lon="17.973851652396">
        <ele>65.4</ele>
        <time>2018-01-15T18:34:30Z</time>
      </trkpt>
      <trkpt lat="62.632072040552" lon="17.973822734841">
        <ele>65.6</ele>
        <time>2018-01-15T18:34:31Z</time>
      </trkpt>
      <trkpt lat="62.632038429133" lon="17.973798175874">
        <ele>65.4</ele>
        <time>2018-01-15T18:34:32Z</time>
      </trkpt>
      <trkpt lat="62.632013451071" lon="17.973766073197">
        <ele>65.8</ele>
        <time>2018-01-15T18:34:33Z</time>
      </trkpt>
      <trkpt lat="62.631986964267" lon="17.973740005488">
        <ele>65.6</ele>
        <time>2018-01-15T18:34:34Z</time>
      </trkpt>
      <trkpt lat="62.631954945409" lon="17.973721900584">
        <ele>65.4</ele>
        <time>2018-01-15T18:34:35Z</time>
      </trkpt>
      <trkpt lat="62.631921250171" lon="17.973683762939">
        <ele>65.6</ele>
        <time>2018-01-15T18:34:36Z</time>
      </trkpt>
      <trkpt lat="62.631896104471" lon="17.973648642778">
        <ele>65.4</ele>
        <time>2018-01-15T18:34:37Z</time>
      </trkpt>
      <trkpt lat="62.631867438373" lon="17.973615031359">
        <ele>65.4</ele>
        <time>2018-01-15T18:34:38Z</time>
      </trkpt>
      <trkpt lat="62.631841873578" lon="17.973584856519">
        <ele>65.4</ele>
        <time>2018-01-15T18:34:39Z</time>
      </trkpt>
      <trkpt lat="62.631817146973" lon="17.973558118258">
        <ele>65.6</ele>
        <time>2018-01-15T18:34:40Z</time>
      </trkpt>
      <trkpt lat="62.631787894142" lon="17.973512855998">
        <ele>65.6</ele>
        <time>2018-01-15T18:34:41Z</time>
      </trkpt>
      <trkpt lat="62.631762161709" lon="17.973485195728">
        <ele>65.4</ele>
        <time>2018-01-15T18:34:42Z</time>
      </trkpt>
      <trkpt lat="62.631735339629" lon="17.973437502717">
        <ele>65.4</ele>
        <time>2018-01-15T18:34:43Z</time>
      </trkpt>
      <trkpt lat="62.631709188101" lon="17.973396515226">
        <ele>65.4</ele>
        <time>2018-01-15T18:34:44Z</time>
      </trkpt>
      <trkpt lat="62.631690161188" lon="17.973363909635">
        <ele>65</ele>
        <time>2018-01-15T18:34:45Z</time>
      </trkpt>
      <trkpt lat="62.6316606569" lon="17.973325185257">
        <ele>65</ele>
        <time>2018-01-15T18:34:46Z</time>
      </trkpt>
      <trkpt lat="62.631636517028" lon="17.973284784499">
        <ele>64.6</ele>
        <time>2018-01-15T18:34:47Z</time>
      </trkpt>
      <trkpt lat="62.631612628613" lon="17.973231475615">
        <ele>64.8</ele>
        <time>2018-01-15T18:34:48Z</time>
      </trkpt>
      <trkpt lat="62.631587147637" lon="17.973183195871">
        <ele>64.8</ele>
        <time>2018-01-15T18:34:49Z</time>
      </trkpt>
      <trkpt lat="62.631567198715" lon="17.973144052398">
        <ele>65</ele>
        <time>2018-01-15T18:34:50Z</time>
      </trkpt>
      <trkpt lat="62.63154079573" lon="17.973097281396">
        <ele>65.2</ele>
        <time>2018-01-15T18:34:51Z</time>
      </trkpt>
      <trkpt lat="62.631518080781" lon="17.973046403263">
        <ele>65.4</ele>
        <time>2018-01-15T18:34:52Z</time>
      </trkpt>
      <trkpt lat="62.631492515986" lon="17.972996195682">
        <ele>65.6</ele>
        <time>2018-01-15T18:34:53Z</time>
      </trkpt>
      <trkpt lat="62.631472734702" lon="17.972947329205">
        <ele>66</ele>
        <time>2018-01-15T18:34:54Z</time>
      </trkpt>
      <trkpt lat="62.631451025581" lon="17.972894858511">
        <ele>65.6</ele>
        <time>2018-01-15T18:34:55Z</time>
      </trkpt>
      <trkpt lat="62.631431328116" lon="17.972840711437">
        <ele>65</ele>
        <time>2018-01-15T18:34:56Z</time>
      </trkpt>
      <trkpt lat="62.631412049746" lon="17.972797209376">
        <ele>64.8</ele>
        <time>2018-01-15T18:34:57Z</time>
      </trkpt>
      <trkpt lat="62.631391094996" lon="17.97273149528">
        <ele>64.4</ele>
        <time>2018-01-15T18:34:58Z</time>
      </trkpt>
      <trkpt lat="62.631371648988" lon="17.972681036242">
        <ele>64.2</ele>
        <time>2018-01-15T18:34:59Z</time>
      </trkpt>
      <trkpt lat="62.631355220464" lon="17.972639126742">
        <ele>64.2</ele>
        <time>2018-01-15T18:35:00Z</time>
      </trkpt>
      <trkpt lat="62.63133292461" lon="17.972578860881">
        <ele>64.2</ele>
        <time>2018-01-15T18:35:01Z</time>
      </trkpt>
      <trkpt lat="62.631309622928" lon="17.972513733518">
        <ele>64</ele>
        <time>2018-01-15T18:35:02Z</time>
      </trkpt>
      <trkpt lat="62.631289087273" lon="17.972466040507">
        <ele>64</ele>
        <time>2018-01-15T18:35:03Z</time>
      </trkpt>
      <trkpt lat="62.631263690116" lon="17.972415413831">
        <ele>63.8</ele>
        <time>2018-01-15T18:35:04Z</time>
      </trkpt>
      <trkpt lat="62.631246926316" lon="17.972369061924">
        <ele>63.4</ele>
        <time>2018-01-15T18:35:05Z</time>
      </trkpt>
      <trkpt lat="62.631222534987" lon="17.972299324516">
        <ele>63.4</ele>
        <time>2018-01-15T18:35:06Z</time>
      </trkpt>
      <trkpt lat="62.631205603549" lon="17.972231850221">
        <ele>63.2</ele>
        <time>2018-01-15T18:35:07Z</time>
      </trkpt>
      <trkpt lat="62.631187247188" lon="17.972173428378">
        <ele>63</ele>
        <time>2018-01-15T18:35:08Z</time>
      </trkpt>
      <trkpt lat="62.631171321578" lon="17.972120203313">
        <ele>62.6</ele>
        <time>2018-01-15T18:35:09Z</time>
      </trkpt>
      <trkpt lat="62.631158413452" lon="17.972063625488">
        <ele>62.6</ele>
        <time>2018-01-15T18:35:10Z</time>
      </trkpt>
      <trkpt lat="62.631138129254" lon="17.971988607483">
        <ele>62.4</ele>
        <time>2018-01-15T18:35:11Z</time>
      </trkpt>
      <trkpt lat="62.63112086254" lon="17.971924402129">
        <ele>62.2</ele>
        <time>2018-01-15T18:35:12Z</time>
      </trkpt>
      <trkpt lat="62.631105691301" lon="17.971857011653">
        <ele>62</ele>
        <time>2018-01-15T18:35:13Z</time>
      </trkpt>
      <trkpt lat="62.631089765691" lon="17.971798422172">
        <ele>61.8</ele>
        <time>2018-01-15T18:35:14Z</time>
      </trkpt>
      <trkpt lat="62.631077611936" lon="17.971738407768">
        <ele>62</ele>
        <time>2018-01-15T18:35:15Z</time>
      </trkpt>
      <trkpt lat="62.631061099593" lon="17.971675711156">
        <ele>61.6</ele>
        <time>2018-01-15T18:35:16Z</time>
      </trkpt>
      <trkpt lat="62.631045928354" lon="17.971606141386">
        <ele>61.8</ele>
        <time>2018-01-15T18:35:17Z</time>
      </trkpt>
      <trkpt lat="62.63102614707" lon="17.971536571616">
        <ele>61.8</ele>
        <time>2018-01-15T18:35:18Z</time>
      </trkpt>
      <trkpt lat="62.631015669695" lon="17.971478820325">
        <ele>61.8</ele>
        <time>2018-01-15T18:35:19Z</time>
      </trkpt>
      <trkpt lat="62.631000582275" lon="17.971425846717">
        <ele>61.8</ele>
        <time>2018-01-15T18:35:20Z</time>
      </trkpt>
      <trkpt lat="62.63098591395" lon="17.971347475952">
        <ele>61.6</ele>
        <time>2018-01-15T18:35:21Z</time>
      </trkpt>
      <trkpt lat="62.630976442403" lon="17.971279834019">
        <ele>61.6</ele>
        <time>2018-01-15T18:35:22Z</time>
      </trkpt>
      <trkpt lat="62.630966048847" lon="17.971207414403">
        <ele>61.4</ele>
        <time>2018-01-15T18:35:23Z</time>
      </trkpt>
      <trkpt lat="62.63095909187" lon="17.971131222932">
        <ele>61.4</ele>
        <time>2018-01-15T18:35:24Z</time>
      </trkpt>
      <trkpt lat="62.630952553988" lon="17.971078081686">
        <ele>61.4</ele>
        <time>2018-01-15T18:35:25Z</time>
      </trkpt>
      <trkpt lat="62.630946770477" lon="17.970995352333">
        <ele>61.2</ele>
        <time>2018-01-15T18:35:26Z</time>
      </trkpt>
      <trkpt lat="62.630939562043" lon="17.970923770907">
        <ele>61.2</ele>
        <time>2018-01-15T18:35:27Z</time>
      </trkpt>
      <trkpt lat="62.630931096324" lon="17.970857637716">
        <ele>61</ele>
        <time>2018-01-15T18:35:28Z</time>
      </trkpt>
      <trkpt lat="62.630924809899" lon="17.970785721014">
        <ele>60.8</ele>
        <time>2018-01-15T18:35:29Z</time>
      </trkpt>
      <trkpt lat="62.630915422171" lon="17.970721767117">
        <ele>60.4</ele>
        <time>2018-01-15T18:35:30Z</time>
      </trkpt>
      <trkpt lat="62.630906118262" lon="17.970648676949">
        <ele>60.2</ele>
        <time>2018-01-15T18:35:31Z</time>
      </trkpt>
      <trkpt lat="62.630900083294" lon="17.970562594836">
        <ele>60</ele>
        <time>2018-01-15T18:35:32Z</time>
      </trkpt>
      <trkpt lat="62.630892204308" lon="17.970491264867">
        <ele>59.8</ele>
        <time>2018-01-15T18:35:33Z</time>
      </trkpt>
      <trkpt lat="62.63088868391" lon="17.97042814916">
        <ele>59.6</ele>
        <time>2018-01-15T18:35:34Z</time>
      </trkpt>
      <trkpt lat="62.630884912055" lon="17.970383138357">
        <ele>59.6</ele>
        <time>2018-01-15T18:35:35Z</time>
      </trkpt>
      <trkpt lat="62.630877871259" lon="17.970264618291">
        <ele>59.6</ele>
        <time>2018-01-15T18:35:37Z</time>
      </trkpt>
      <trkpt lat="62.630876781612" lon="17.970221702963">
        <ele>59.6</ele>
        <time>2018-01-15T18:35:38Z</time>
      </trkpt>
      <trkpt lat="62.630877284526" lon="17.970187672449">
        <ele>59.6</ele>
        <time>2018-01-15T18:35:39Z</time>
      </trkpt>
      <trkpt lat="62.630881475476" lon="17.970161688559">
        <ele>59.6</ele>
        <time>2018-01-15T18:35:40Z</time>
      </trkpt>
      <trkpt lat="62.630886420797" lon="17.970137883963">
        <ele>59.6</ele>
        <time>2018-01-15T18:35:41Z</time>
      </trkpt>
      <trkpt lat="62.630890527928" lon="17.970121203982">
        <ele>59.6</ele>
        <time>2018-01-15T18:35:42Z</time>
      </trkpt>
      <trkpt lat="62.630897149629" lon="17.970109469322">
        <ele>59.6</ele>
        <time>2018-01-15T18:35:43Z</time>
      </trkpt>
      <trkpt lat="62.630895976163" lon="17.970096561196">
        <ele>59.6</ele>
        <time>2018-01-15T18:35:44Z</time>
      </trkpt>
      <trkpt lat="62.630901340579" lon="17.970107457666">
        <ele>59.6</ele>
        <time>2018-01-15T18:35:45Z</time>
      </trkpt>
      <trkpt lat="62.630906202081" lon="17.970116091023">
        <ele>59.4</ele>
        <time>2018-01-15T18:35:46Z</time>
      </trkpt>
      <trkpt lat="62.630903100778" lon="17.970128999149">
        <ele>59.4</ele>
        <time>2018-01-15T18:35:47Z</time>
      </trkpt>
      <trkpt lat="62.630902262588" lon="17.970134531203">
        <ele>59.2</ele>
        <time>2018-01-15T18:35:48Z</time>
      </trkpt>
      <trkpt lat="62.630899496561" lon="17.970136375221">
        <ele>59</ele>
        <time>2018-01-15T18:35:49Z</time>
      </trkpt>
      <trkpt lat="62.631174087605" lon="17.969993715283">
        <ele>59.2</ele>
        <time>2018-01-15T18:37:42Z</time>
      </trkpt>
      <trkpt lat="62.631200574409" lon="17.969975023646">
        <ele>59</ele>
        <time>2018-01-15T18:37:43Z</time>
      </trkpt>
      <trkpt lat="62.631238712054" lon="17.969952811611">
        <ele>58.6</ele>
        <time>2018-01-15T18:37:44Z</time>
      </trkpt>
      <trkpt lat="62.631264863582" lon="17.969937556553">
        <ele>58.4</ele>
        <time>2018-01-15T18:37:45Z</time>
      </trkpt>
      <trkpt lat="62.631289087273" lon="17.969923307323">
        <ele>58.2</ele>
        <time>2018-01-15T18:37:46Z</time>
      </trkpt>
      <trkpt lat="62.631327727832" lon="17.969905286238">
        <ele>57.8</ele>
        <time>2018-01-15T18:37:47Z</time>
      </trkpt>
      <trkpt lat="62.63135974669" lon="17.969886846058">
        <ele>57.6</ele>
        <time>2018-01-15T18:37:48Z</time>
      </trkpt>
      <trkpt lat="62.631389334797" lon="17.969867148593">
        <ele>57.6</ele>
        <time>2018-01-15T18:37:49Z</time>
      </trkpt>
      <trkpt lat="62.631416911248" lon="17.969851809716">
        <ele>57.8</ele>
        <time>2018-01-15T18:37:50Z</time>
      </trkpt>
      <trkpt lat="62.631450438848" lon="17.969830016776">
        <ele>58</ele>
        <time>2018-01-15T18:37:51Z</time>
      </trkpt>
      <trkpt lat="62.631483128258" lon="17.969814174985">
        <ele>58.4</ele>
        <time>2018-01-15T18:37:52Z</time>
      </trkpt>
      <trkpt lat="62.631517242591" lon="17.969795818624">
        <ele>58.8</ele>
        <time>2018-01-15T18:37:53Z</time>
      </trkpt>
      <trkpt lat="62.631551105467" lon="17.969777378444">
        <ele>59</ele>
        <time>2018-01-15T18:37:54Z</time>
      </trkpt>
      <trkpt lat="62.631577927547" lon="17.969763715947">
        <ele>59.2</ele>
        <time>2018-01-15T18:37:55Z</time>
      </trkpt>
      <trkpt lat="62.631615729916" lon="17.969739911351">
        <ele>59.2</ele>
        <time>2018-01-15T18:37:56Z</time>
      </trkpt>
      <trkpt lat="62.631648503145" lon="17.969718621325">
        <ele>58.8</ele>
        <time>2018-01-15T18:37:57Z</time>
      </trkpt>
      <trkpt lat="62.631677253062" lon="17.969689787589">
        <ele>58.6</ele>
        <time>2018-01-15T18:37:58Z</time>
      </trkpt>
      <trkpt lat="62.631710361567" lon="17.96965114703">
        <ele>58.4</ele>
        <time>2018-01-15T18:37:59Z</time>
      </trkpt>
      <trkpt lat="62.631735674905" lon="17.96961678124">
        <ele>58.4</ele>
        <time>2018-01-15T18:38:00Z</time>
      </trkpt>
      <trkpt lat="62.631766771754" lon="17.969578727414">
        <ele>58.4</ele>
        <time>2018-01-15T18:38:01Z</time>
      </trkpt>
      <trkpt lat="62.63180063463" lon="17.969550899506">
        <ele>58.2</ele>
        <time>2018-01-15T18:38:02Z</time>
      </trkpt>
      <trkpt lat="62.631832402031" lon="17.969532794602">
        <ele>57.6</ele>
        <time>2018-01-15T18:38:03Z</time>
      </trkpt>
      <trkpt lat="62.631861571043" lon="17.96953044767">
        <ele>57.4</ele>
        <time>2018-01-15T18:38:04Z</time>
      </trkpt>
      <trkpt lat="62.631887554933" lon="17.969531788774">
        <ele>57.2</ele>
        <time>2018-01-15T18:38:05Z</time>
      </trkpt>
      <trkpt lat="62.631924602931" lon="17.969529777118">
        <ele>57</ele>
        <time>2018-01-15T18:38:06Z</time>
      </trkpt>
      <trkpt lat="62.631954442495" lon="17.969530363851">
        <ele>56.8</ele>
        <time>2018-01-15T18:38:07Z</time>
      </trkpt>
      <trkpt lat="62.631985623163" lon="17.969530699127">
        <ele>56.8</ele>
        <time>2018-01-15T18:38:08Z</time>
      </trkpt>
      <trkpt lat="62.632016636193" lon="17.969524161245">
        <ele>57.2</ele>
        <time>2018-01-15T18:38:09Z</time>
      </trkpt>
      <trkpt lat="62.632041446617" lon="17.969515695526">
        <ele>57.2</ele>
        <time>2018-01-15T18:38:10Z</time>
      </trkpt>
      <trkpt lat="62.632076482959" lon="17.969508822368">
        <ele>57.4</ele>
        <time>2018-01-15T18:38:11Z</time>
      </trkpt>
      <trkpt lat="62.632105987247" lon="17.96950027283">
        <ele>57.2</ele>
        <time>2018-01-15T18:38:12Z</time>
      </trkpt>
      <trkpt lat="62.63213674882" lon="17.96948853817">
        <ele>57.2</ele>
        <time>2018-01-15T18:38:13Z</time>
      </trkpt>
      <trkpt lat="62.632166253108" lon="17.969488705808">
        <ele>57.2</ele>
        <time>2018-01-15T18:38:14Z</time>
      </trkpt>
      <trkpt lat="62.632194416292" lon="17.969475797682">
        <ele>57.2</ele>
        <time>2018-01-15T18:38:15Z</time>
      </trkpt>
      <trkpt lat="62.632221489829" lon="17.96947345075">
        <ele>57.2</ele>
        <time>2018-01-15T18:38:16Z</time>
      </trkpt>
      <trkpt lat="62.632255352705" lon="17.969464314479">
        <ele>57.2</ele>
        <time>2018-01-15T18:38:17Z</time>
      </trkpt>
      <trkpt lat="62.632288964124" lon="17.96946339247">
        <ele>57.2</ele>
        <time>2018-01-15T18:38:18Z</time>
      </trkpt>
      <trkpt lat="62.632320815344" lon="17.969460542624">
        <ele>57.4</ele>
        <time>2018-01-15T18:38:19Z</time>
      </trkpt>
      <trkpt lat="62.632344787578" lon="17.969451573991">
        <ele>57.4</ele>
        <time>2018-01-15T18:38:20Z</time>
      </trkpt>
      <trkpt lat="62.632380578291" lon="17.96945165781">
        <ele>57.6</ele>
        <time>2018-01-15T18:38:21Z</time>
      </trkpt>
      <trkpt lat="62.632407568009" lon="17.969456519312">
        <ele>57.8</ele>
        <time>2018-01-15T18:38:22Z</time>
      </trkpt>
      <trkpt lat="62.632440592695" lon="17.969463476289">
        <ele>57.6</ele>
        <time>2018-01-15T18:38:23Z</time>
      </trkpt>
      <trkpt lat="62.632471018992" lon="17.969472864017">
        <ele>57.8</ele>
        <time>2018-01-15T18:38:24Z</time>
      </trkpt>
      <trkpt lat="62.632496835244" lon="17.969477976976">
        <ele>57.8</ele>
        <time>2018-01-15T18:38:25Z</time>
      </trkpt>
      <trkpt lat="62.632531955405" lon="17.969481665012">
        <ele>58</ele>
        <time>2018-01-15T18:38:26Z</time>
      </trkpt>
      <trkpt lat="62.632559699494" lon="17.969479569537">
        <ele>58</ele>
        <time>2018-01-15T18:38:27Z</time>
      </trkpt>
      <trkpt lat="62.632589539058" lon="17.969482000288">
        <ele>58</ele>
        <time>2018-01-15T18:38:28Z</time>
      </trkpt>
      <trkpt lat="62.632617366966" lon="17.969488286713">
        <ele>58</ele>
        <time>2018-01-15T18:38:29Z</time>
      </trkpt>
      <trkpt lat="62.632641674476" lon="17.969490130731">
        <ele>58.2</ele>
        <time>2018-01-15T18:38:30Z</time>
      </trkpt>
      <trkpt lat="62.632671765497" lon="17.969496333337">
        <ele>58.2</ele>
        <time>2018-01-15T18:38:31Z</time>
      </trkpt>
      <trkpt lat="62.632702862346" lon="17.969501278658">
        <ele>58.2</ele>
        <time>2018-01-15T18:38:32Z</time>
      </trkpt>
      <trkpt lat="62.63273186372" lon="17.969497842079">
        <ele>58.2</ele>
        <time>2018-01-15T18:38:33Z</time>
      </trkpt>
      <trkpt lat="62.632758601981" lon="17.969501194839">
        <ele>58.4</ele>
        <time>2018-01-15T18:38:34Z</time>
      </trkpt>
      <trkpt lat="62.632783999138" lon="17.969500105192">
        <ele>58.4</ele>
        <time>2018-01-15T18:38:35Z</time>
      </trkpt>
      <trkpt lat="62.632818700204" lon="17.969504212323">
        <ele>58.4</ele>
        <time>2018-01-15T18:38:36Z</time>
      </trkpt>
      <trkpt lat="62.632846192836" lon="17.969507397445">
        <ele>58.4</ele>
        <time>2018-01-15T18:38:37Z</time>
      </trkpt>
      <trkpt lat="62.632871170898" lon="17.969511085481">
        <ele>58.4</ele>
        <time>2018-01-15T18:38:38Z</time>
      </trkpt>
      <trkpt lat="62.632901681014" lon="17.969522317227">
        <ele>58.4</ele>
        <time>2018-01-15T18:38:39Z</time>
      </trkpt>
      <trkpt lat="62.632923893049" lon="17.969525502349">
        <ele>58.4</ele>
        <time>2018-01-15T18:38:40Z</time>
      </trkpt>
      <trkpt lat="62.632957001554" lon="17.969530699127">
        <ele>58.6</ele>
        <time>2018-01-15T18:38:41Z</time>
      </trkpt>
      <trkpt lat="62.63298415891" lon="17.969537656104">
        <ele>58.8</ele>
        <time>2018-01-15T18:38:42Z</time>
      </trkpt>
      <trkpt lat="62.633013579379" lon="17.969540254493">
        <ele>59</ele>
        <time>2018-01-15T18:38:43Z</time>
      </trkpt>
      <trkpt lat="62.633042245477" lon="17.969552072972">
        <ele>59.2</ele>
        <time>2018-01-15T18:38:44Z</time>
      </trkpt>
      <trkpt lat="62.633066720625" lon="17.969560957786">
        <ele>59.2</ele>
        <time>2018-01-15T18:38:45Z</time>
      </trkpt>
      <trkpt lat="62.633095302904" lon="17.969568752953">
        <ele>59.2</ele>
        <time>2018-01-15T18:38:46Z</time>
      </trkpt>
      <trkpt lat="62.633127154124" lon="17.969578727414">
        <ele>59.2</ele>
        <time>2018-01-15T18:38:47Z</time>
      </trkpt>
      <trkpt lat="62.633155401127" lon="17.969583756554">
        <ele>59.2</ele>
        <time>2018-01-15T18:38:48Z</time>
      </trkpt>
      <trkpt lat="62.63318364813" lon="17.969600185078">
        <ele>59</ele>
        <time>2018-01-15T18:38:49Z</time>
      </trkpt>
      <trkpt lat="62.633206363079" lon="17.969611416824">
        <ele>58.8</ele>
        <time>2018-01-15T18:38:50Z</time>
      </trkpt>
      <trkpt lat="62.633236705557" lon="17.969635053782">
        <ele>59</ele>
        <time>2018-01-15T18:38:51Z</time>
      </trkpt>
      <trkpt lat="62.633263024723" lon="17.969656343808">
        <ele>58.8</ele>
        <time>2018-01-15T18:38:52Z</time>
      </trkpt>
      <trkpt lat="62.633284817663" lon="17.96967126359">
        <ele>58.8</ele>
        <time>2018-01-15T18:38:53Z</time>
      </trkpt>
      <trkpt lat="62.633314657227" lon="17.969696660747">
        <ele>58.8</ele>
        <time>2018-01-15T18:38:54Z</time>
      </trkpt>
      <trkpt lat="62.633333432683" lon="17.969726248854">
        <ele>58.8</ele>
        <time>2018-01-15T18:38:55Z</time>
      </trkpt>
      <trkpt lat="62.633357824012" lon="17.969770002372">
        <ele>59</ele>
        <time>2018-01-15T18:38:56Z</time>
      </trkpt>
      <trkpt lat="62.633373498165" lon="17.969824065627">
        <ele>59</ele>
        <time>2018-01-15T18:38:57Z</time>
      </trkpt>
      <trkpt lat="62.633381209513" lon="17.969875446674">
        <ele>59</ele>
        <time>2018-01-15T18:38:58Z</time>
      </trkpt>
      <trkpt lat="62.63338984287" lon="17.96992942611">
        <ele>59.2</ele>
        <time>2018-01-15T18:38:59Z</time>
      </trkpt>
      <trkpt lat="62.633394788191" lon="17.969977789673">
        <ele>59.2</ele>
        <time>2018-01-15T18:39:00Z</time>
      </trkpt>
      <trkpt lat="62.633398560046" lon="17.97003503805">
        <ele>59.4</ele>
        <time>2018-01-15T18:39:01Z</time>
      </trkpt>
      <trkpt lat="62.633399565874" lon="17.970094465721">
        <ele>59.6</ele>
        <time>2018-01-15T18:39:02Z</time>
      </trkpt>
      <trkpt lat="62.633402918634" lon="17.970143583655">
        <ele>59.8</ele>
        <time>2018-01-15T18:39:03Z</time>
      </trkpt>
      <trkpt lat="62.633404595014" lon="17.970196724901">
        <ele>60</ele>
        <time>2018-01-15T18:39:04Z</time>
      </trkpt>
      <trkpt lat="62.633405433204" lon="17.970242992989">
        <ele>60.2</ele>
        <time>2018-01-15T18:39:05Z</time>
      </trkpt>
      <trkpt lat="62.633411971086" lon="17.970296385692">
        <ele>60.4</ele>
        <time>2018-01-15T18:39:06Z</time>
      </trkpt>
      <trkpt lat="62.633416748769" lon="17.970353634069">
        <ele>60.6</ele>
        <time>2018-01-15T18:39:07Z</time>
      </trkpt>
      <trkpt lat="62.633421274995" lon="17.970405182754">
        <ele>60.6</ele>
        <time>2018-01-15T18:39:08Z</time>
      </trkpt>
      <trkpt lat="62.63342420866" lon="17.970460754751">
        <ele>60.6</ele>
        <time>2018-01-15T18:39:09Z</time>
      </trkpt>
      <trkpt lat="62.633425130669" lon="17.97050442445">
        <ele>60.8</ele>
        <time>2018-01-15T18:39:10Z</time>
      </trkpt>
      <trkpt lat="62.633426136497" lon="17.970565193225">
        <ele>60.8</ele>
        <time>2018-01-15T18:39:11Z</time>
      </trkpt>
      <trkpt lat="62.633425130669" lon="17.970623615068">
        <ele>60.8</ele>
        <time>2018-01-15T18:39:12Z</time>
      </trkpt>
      <trkpt lat="62.633426304135" lon="17.970679354703">
        <ele>60.8</ele>
        <time>2018-01-15T18:39:13Z</time>
      </trkpt>
      <trkpt lat="62.633433764026" lon="17.970730065198">
        <ele>60.6</ele>
        <time>2018-01-15T18:39:14Z</time>
      </trkpt>
      <trkpt lat="62.63343678151" lon="17.970780356598">
        <ele>60.6</ele>
        <time>2018-01-15T18:39:15Z</time>
      </trkpt>
      <trkpt lat="62.633437703519" lon="17.97083970045">
        <ele>60.8</ele>
        <time>2018-01-15T18:39:16Z</time>
      </trkpt>
      <trkpt lat="62.633439631356" lon="17.970900301587">
        <ele>60.8</ele>
        <time>2018-01-15T18:39:17Z</time>
      </trkpt>
      <trkpt lat="62.63343845789" lon="17.970970206633">
        <ele>61</ele>
        <time>2018-01-15T18:39:18Z</time>
      </trkpt>
      <trkpt lat="62.633439463718" lon="17.971026700639">
        <ele>61.2</ele>
        <time>2018-01-15T18:39:19Z</time>
      </trkpt>
      <trkpt lat="62.633437535881" lon="17.971071962899">
        <ele>61.4</ele>
        <time>2018-01-15T18:39:20Z</time>
      </trkpt>
      <trkpt lat="62.633437116786" lon="17.971136503529">
        <ele>61.6</ele>
        <time>2018-01-15T18:39:21Z</time>
      </trkpt>
      <trkpt lat="62.633435356587" lon="17.971186962567">
        <ele>61.8</ele>
        <time>2018-01-15T18:39:22Z</time>
      </trkpt>
      <trkpt lat="62.633434602216" lon="17.971236667234">
        <ele>62</ele>
        <time>2018-01-15T18:39:23Z</time>
      </trkpt>
      <trkpt lat="62.633431081818" lon="17.971299280027">
        <ele>62.2</ele>
        <time>2018-01-15T18:39:24Z</time>
      </trkpt>
      <trkpt lat="62.633428818705" lon="17.971346218667">
        <ele>62.2</ele>
        <time>2018-01-15T18:39:25Z</time>
      </trkpt>
      <trkpt lat="62.633425298307" lon="17.971414614971">
        <ele>62.4</ele>
        <time>2018-01-15T18:39:26Z</time>
      </trkpt>
      <trkpt lat="62.63342253228" lon="17.97147001933">
        <ele>62.6</ele>
        <time>2018-01-15T18:39:27Z</time>
      </trkpt>
      <trkpt lat="62.633420688262" lon="17.971521903291">
        <ele>62.8</ele>
        <time>2018-01-15T18:39:28Z</time>
      </trkpt>
      <trkpt lat="62.633418006054" lon="17.971583091161">
        <ele>62.8</ele>
        <time>2018-01-15T18:39:29Z</time>
      </trkpt>
      <trkpt lat="62.63341666495" lon="17.971635729493">
        <ele>63</ele>
        <time>2018-01-15T18:39:30Z</time>
      </trkpt>
      <trkpt lat="62.633413060733" lon="17.971693564603">
        <ele>63</ele>
        <time>2018-01-15T18:39:31Z</time>
      </trkpt>
      <trkpt lat="62.633406439032" lon="17.971752573179">
        <ele>63</ele>
        <time>2018-01-15T18:39:32Z</time>
      </trkpt>
      <trkpt lat="62.633399482055" lon="17.971809989194">
        <ele>63</ele>
        <time>2018-01-15T18:39:33Z</time>
      </trkpt>
      <trkpt lat="62.633391435431" lon="17.971863298078">
        <ele>63</ele>
        <time>2018-01-15T18:39:34Z</time>
      </trkpt>
      <trkpt lat="62.633385065187" lon="17.971911158727">
        <ele>63</ele>
        <time>2018-01-15T18:39:35Z</time>
      </trkpt>
      <trkpt lat="62.633376850925" lon="17.971964132335">
        <ele>63</ele>
        <time>2018-01-15T18:39:36Z</time>
      </trkpt>
      <trkpt lat="62.633370983595" lon="17.972020961617">
        <ele>63.2</ele>
        <time>2018-01-15T18:39:37Z</time>
      </trkpt>
      <trkpt lat="62.633362936971" lon="17.972078629089">
        <ele>63.4</ele>
        <time>2018-01-15T18:39:38Z</time>
      </trkpt>
      <trkpt lat="62.633354135976" lon="17.972142331529">
        <ele>63.4</ele>
        <time>2018-01-15T18:39:39Z</time>
      </trkpt>
      <trkpt lat="62.633347514275" lon="17.972184492486">
        <ele>63.4</ele>
        <time>2018-01-15T18:39:40Z</time>
      </trkpt>
      <trkpt lat="62.633338797099" lon="17.972239142474">
        <ele>63.4</ele>
        <time>2018-01-15T18:39:41Z</time>
      </trkpt>
      <trkpt lat="62.633331337208" lon="17.972297145222">
        <ele>63.4</ele>
        <time>2018-01-15T18:39:42Z</time>
      </trkpt>
      <trkpt lat="62.633322452394" lon="17.972348945364">
        <ele>63.4</ele>
        <time>2018-01-15T18:39:43Z</time>
      </trkpt>
      <trkpt lat="62.633316585064" lon="17.972397141289">
        <ele>63.4</ele>
        <time>2018-01-15T18:39:44Z</time>
      </trkpt>
      <trkpt lat="62.633310717734" lon="17.972438631694">
        <ele>63.2</ele>
        <time>2018-01-15T18:39:45Z</time>
      </trkpt>
      <trkpt lat="62.633303174024" lon="17.972491856759">
        <ele>63.4</ele>
        <time>2018-01-15T18:39:46Z</time>
      </trkpt>
      <trkpt lat="62.633294708305" lon="17.972549943326">
        <ele>63.4</ele>
        <time>2018-01-15T18:39:47Z</time>
      </trkpt>
      <trkpt lat="62.633286996957" lon="17.972599480355">
        <ele>63.8</ele>
        <time>2018-01-15T18:39:48Z</time>
      </trkpt>
      <trkpt lat="62.633277944505" lon="17.972652370144">
        <ele>64</ele>
        <time>2018-01-15T18:39:49Z</time>
      </trkpt>
      <trkpt lat="62.633270233157" lon="17.972691681255">
        <ele>64</ele>
        <time>2018-01-15T18:39:50Z</time>
      </trkpt>
      <trkpt lat="62.633258582316" lon="17.972745241596">
        <ele>64.4</ele>
        <time>2018-01-15T18:39:51Z</time>
      </trkpt>
      <trkpt lat="62.633248859312" lon="17.972793353702">
        <ele>65</ele>
        <time>2018-01-15T18:39:52Z</time>
      </trkpt>
      <trkpt lat="62.633238381937" lon="17.972840124704">
        <ele>65</ele>
        <time>2018-01-15T18:39:53Z</time>
      </trkpt>
      <trkpt lat="62.633224300345" lon="17.972898965642">
        <ele>65.2</ele>
        <time>2018-01-15T18:39:54Z</time>
      </trkpt>
      <trkpt lat="62.633212649504" lon="17.972949173223">
        <ele>65.2</ele>
        <time>2018-01-15T18:39:55Z</time>
      </trkpt>
      <trkpt lat="62.633198400274" lon="17.973014719681">
        <ele>65.2</ele>
        <time>2018-01-15T18:39:56Z</time>
      </trkpt>
      <trkpt lat="62.633187755261" lon="17.973065597814">
        <ele>65.2</ele>
        <time>2018-01-15T18:39:57Z</time>
      </trkpt>
      <trkpt lat="62.633178283714" lon="17.973118403784">
        <ele>65.2</ele>
        <time>2018-01-15T18:39:58Z</time>
      </trkpt>
      <trkpt lat="62.633163866846" lon="17.973170287745">
        <ele>65</ele>
        <time>2018-01-15T18:39:59Z</time>
      </trkpt>
      <trkpt lat="62.633155736403" lon="17.973215633824">
        <ele>65.2</ele>
        <time>2018-01-15T18:40:00Z</time>
      </trkpt>
      <trkpt lat="62.633144923752" lon="17.973266344319">
        <ele>65.4</ele>
        <time>2018-01-15T18:40:01Z</time>
      </trkpt>
      <trkpt lat="62.633132769997" lon="17.973327029275">
        <ele>65.6</ele>
        <time>2018-01-15T18:40:02Z</time>
      </trkpt>
      <trkpt lat="62.633122795536" lon="17.973369860784">
        <ele>65.6</ele>
        <time>2018-01-15T18:40:03Z</time>
      </trkpt>
      <trkpt lat="62.63311156379" lon="17.973412273198">
        <ele>65.6</ele>
        <time>2018-01-15T18:40:04Z</time>
      </trkpt>
      <trkpt lat="62.633111647609" lon="17.973429288455">
        <ele>65.8</ele>
        <time>2018-01-15T18:40:05Z</time>
      </trkpt>
      <trkpt lat="62.633092955972" lon="17.973511095799">
        <ele>66</ele>
        <time>2018-01-15T18:40:06Z</time>
      </trkpt>
      <trkpt lat="62.633077952371" lon="17.973574127687">
        <ele>66</ele>
        <time>2018-01-15T18:40:07Z</time>
      </trkpt>
      <trkpt lat="62.633069738109" lon="17.973613438798">
        <ele>66.2</ele>
        <time>2018-01-15T18:40:08Z</time>
      </trkpt>
      <trkpt lat="62.633058506363" lon="17.973669010795">
        <ele>66.4</ele>
        <time>2018-01-15T18:40:09Z</time>
      </trkpt>
      <trkpt lat="62.633045262961" lon="17.973714021598">
        <ele>66.4</ele>
        <time>2018-01-15T18:40:10Z</time>
      </trkpt>
      <trkpt lat="62.633031013731" lon="17.973769677414">
        <ele>66.4</ele>
        <time>2018-01-15T18:40:11Z</time>
      </trkpt>
      <trkpt lat="62.63301936289" lon="17.973824075945">
        <ele>66.4</ele>
        <time>2018-01-15T18:40:12Z</time>
      </trkpt>
      <trkpt lat="62.633007376773" lon="17.973872942422">
        <ele>66.4</ele>
        <time>2018-01-15T18:40:13Z</time>
      </trkpt>
      <trkpt lat="62.63299924633" lon="17.9739200487">
        <ele>66.4</ele>
        <time>2018-01-15T18:40:14Z</time>
      </trkpt>
      <trkpt lat="62.632992792267" lon="17.973966232969">
        <ele>66.4</ele>
        <time>2018-01-15T18:40:15Z</time>
      </trkpt>
      <trkpt lat="62.632980973788" lon="17.974019458034">
        <ele>66.4</ele>
        <time>2018-01-15T18:40:16Z</time>
      </trkpt>
      <trkpt lat="62.632967143653" lon="17.974075281488">
        <ele>66.4</ele>
        <time>2018-01-15T18:40:17Z</time>
      </trkpt>
      <trkpt lat="62.632952223871" lon="17.974132278408">
        <ele>66.6</ele>
        <time>2018-01-15T18:40:18Z</time>
      </trkpt>
      <trkpt lat="62.632942919962" lon="17.974183491817">
        <ele>66.6</ele>
        <time>2018-01-15T18:40:19Z</time>
      </trkpt>
      <trkpt lat="62.632933113139" lon="17.974226993878">
        <ele>66.8</ele>
        <time>2018-01-15T18:40:20Z</time>
      </trkpt>
      <trkpt lat="62.632916684615" lon="17.974281560047">
        <ele>66.8</ele>
        <time>2018-01-15T18:40:21Z</time>
      </trkpt>
      <trkpt lat="62.632903357394" lon="17.974323888642">
        <ele>67</ele>
        <time>2018-01-15T18:40:22Z</time>
      </trkpt>
      <trkpt lat="62.632889694897" lon="17.974362110106">
        <ele>67</ele>
        <time>2018-01-15T18:40:23Z</time>
      </trkpt>
      <trkpt lat="62.632866225577" lon="17.974415754266">
        <ele>67.2</ele>
        <time>2018-01-15T18:40:24Z</time>
      </trkpt>
      <trkpt lat="62.632849042682" lon="17.974445761468">
        <ele>67.4</ele>
        <time>2018-01-15T18:40:25Z</time>
      </trkpt>
      <trkpt lat="62.632823980801" lon="17.974480127258">
        <ele>67.6</ele>
        <time>2018-01-15T18:40:26Z</time>
      </trkpt>
      <trkpt lat="62.632794811789" lon="17.974495382316">
        <ele>67.6</ele>
        <time>2018-01-15T18:40:27Z</time>
      </trkpt>
      <trkpt lat="62.632761954741" lon="17.974490604633">
        <ele>67.8</ele>
        <time>2018-01-15T18:40:28Z</time>
      </trkpt>
      <trkpt lat="62.63273689286" lon="17.974467219132">
        <ele>68</ele>
        <time>2018-01-15T18:40:29Z</time>
      </trkpt>
      <trkpt lat="62.632718117404" lon="17.974439475043">
        <ele>68</ele>
        <time>2018-01-15T18:40:30Z</time>
      </trkpt>
      <trkpt lat="62.632698671396" lon="17.974408545832">
        <ele>67.8</ele>
        <time>2018-01-15T18:40:31Z</time>
      </trkpt>
      <trkpt lat="62.63266899947" lon="17.974381556114">
        <ele>67.8</ele>
        <time>2018-01-15T18:40:32Z</time>
      </trkpt>
      <trkpt lat="62.632648296177" lon="17.974362445382">
        <ele>67.4</ele>
        <time>2018-01-15T18:40:33Z</time>
      </trkpt>
      <trkpt lat="62.632624323943" lon="17.974346855048">
        <ele>67.2</ele>
        <time>2018-01-15T18:40:34Z</time>
      </trkpt>
      <trkpt lat="62.632603033917" lon="17.974333360189">
        <ele>67.2</ele>
        <time>2018-01-15T18:40:35Z</time>
      </trkpt>
      <trkpt lat="62.632574703095" lon="17.974318859502">
        <ele>67</ele>
        <time>2018-01-15T18:40:36Z</time>
      </trkpt>
      <trkpt lat="62.632549808852" lon="17.974299832589">
        <ele>67</ele>
        <time>2018-01-15T18:40:37Z</time>
      </trkpt>
      <trkpt lat="62.632524998428" lon="17.974281895323">
        <ele>66.8</ele>
        <time>2018-01-15T18:40:38Z</time>
      </trkpt>
      <trkpt lat="62.632496080873" lon="17.974265299161">
        <ele>67</ele>
        <time>2018-01-15T18:40:39Z</time>
      </trkpt>
      <trkpt lat="62.632475293761" lon="17.974245014963">
        <ele>67</ele>
        <time>2018-01-15T18:40:40Z</time>
      </trkpt>
      <trkpt lat="62.632448387862" lon="17.974224730765">
        <ele>66.8</ele>
        <time>2018-01-15T18:40:41Z</time>
      </trkpt>
      <trkpt lat="62.632423158343" lon="17.974207212594">
        <ele>67</ele>
        <time>2018-01-15T18:40:42Z</time>
      </trkpt>
      <trkpt lat="62.632396503901" lon="17.974180306695">
        <ele>66.8</ele>
        <time>2018-01-15T18:40:43Z</time>
      </trkpt>
      <trkpt lat="62.632371358201" lon="17.974162704705">
        <ele>67</ele>
        <time>2018-01-15T18:40:44Z</time>
      </trkpt>
      <trkpt lat="62.632346547777" lon="17.974146276181">
        <ele>67</ele>
        <time>2018-01-15T18:40:45Z</time>
      </trkpt>
      <trkpt lat="62.63231947424" lon="17.97412289068">
        <ele>66.8</ele>
        <time>2018-01-15T18:40:46Z</time>
      </trkpt>
      <trkpt lat="62.632290053771" lon="17.974099253722">
        <ele>66.8</ele>
        <time>2018-01-15T18:40:47Z</time>
      </trkpt>
      <trkpt lat="62.632264488976" lon="17.974080813542">
        <ele>66.6</ele>
        <time>2018-01-15T18:40:48Z</time>
      </trkpt>
      <trkpt lat="62.632236577249" lon="17.97405918824">
        <ele>66.4</ele>
        <time>2018-01-15T18:40:49Z</time>
      </trkpt>
      <trkpt lat="62.632213107929" lon="17.974047202123">
        <ele>66.2</ele>
        <time>2018-01-15T18:40:50Z</time>
      </trkpt>
      <trkpt lat="62.632185280021" lon="17.974027923753">
        <ele>66</ele>
        <time>2018-01-15T18:40:51Z</time>
      </trkpt>
      <trkpt lat="62.632158374122" lon="17.9740038677">
        <ele>66</ele>
        <time>2018-01-15T18:40:52Z</time>
      </trkpt>
      <trkpt lat="62.632138006105" lon="17.973985511339">
        <ele>66</ele>
        <time>2018-01-15T18:40:53Z</time>
      </trkpt>
      <trkpt lat="62.632108334179" lon="17.973957096698">
        <ele>65.8</ele>
        <time>2018-01-15T18:40:54Z</time>
      </trkpt>
      <trkpt lat="62.632084697221" lon="17.973929771704">
        <ele>65.6</ele>
        <time>2018-01-15T18:40:55Z</time>
      </trkpt>
      <trkpt lat="62.632059970616" lon="17.973904458366">
        <ele>65.8</ele>
        <time>2018-01-15T18:40:56Z</time>
      </trkpt>
      <trkpt lat="62.63203448964" lon="17.973870763128">
        <ele>66</ele>
        <time>2018-01-15T18:40:57Z</time>
      </trkpt>
      <trkpt lat="62.632013199614" lon="17.973843605772">
        <ele>66.2</ele>
        <time>2018-01-15T18:40:58Z</time>
      </trkpt>
      <trkpt lat="62.631991322855" lon="17.973819382081">
        <ele>66.6</ele>
        <time>2018-01-15T18:40:59Z</time>
      </trkpt>
      <trkpt lat="62.631966680069" lon="17.973794236381">
        <ele>67</ele>
        <time>2018-01-15T18:41:00Z</time>
      </trkpt>
      <trkpt lat="62.631939606532" lon="17.973765570283">
        <ele>67.4</ele>
        <time>2018-01-15T18:41:01Z</time>
      </trkpt>
      <trkpt lat="62.631912700633" lon="17.973740843678">
        <ele>67.2</ele>
        <time>2018-01-15T18:41:02Z</time>
      </trkpt>
      <trkpt lat="62.631888476942" lon="17.973705807336">
        <ele>67</ele>
        <time>2018-01-15T18:41:03Z</time>
      </trkpt>
      <trkpt lat="62.631864839984" lon="17.973680158722">
        <ele>66.8</ele>
        <time>2018-01-15T18:41:04Z</time>
      </trkpt>
      <trkpt lat="62.63184422051" lon="17.973660042162">
        <ele>66.6</ele>
        <time>2018-01-15T18:41:05Z</time>
      </trkpt>
      <trkpt lat="62.631816141145" lon="17.973624502906">
        <ele>66.4</ele>
        <time>2018-01-15T18:41:06Z</time>
      </trkpt>
      <trkpt lat="62.631791749816" lon="17.973595836808">
        <ele>66.2</ele>
        <time>2018-01-15T18:41:07Z</time>
      </trkpt>
      <trkpt lat="62.631767693763" lon="17.973567003072">
        <ele>66.4</ele>
        <time>2018-01-15T18:41:08Z</time>
      </trkpt>
      <trkpt lat="62.631737183647" lon="17.973531463816">
        <ele>66.4</ele>
        <time>2018-01-15T18:41:09Z</time>
      </trkpt>
      <trkpt lat="62.631714636336" lon="17.973507156306">
        <ele>66.4</ele>
        <time>2018-01-15T18:41:10Z</time>
      </trkpt>
      <trkpt lat="62.631685634962" lon="17.973468096652">
        <ele>66.2</ele>
        <time>2018-01-15T18:41:11Z</time>
      </trkpt>
      <trkpt lat="62.631660740719" lon="17.973427025342">
        <ele>66.2</ele>
        <time>2018-01-15T18:41:12Z</time>
      </trkpt>
      <trkpt lat="62.631636517028" lon="17.973405651497">
        <ele>66.2</ele>
        <time>2018-01-15T18:41:13Z</time>
      </trkpt>
      <trkpt lat="62.631610784595" lon="17.973369609327">
        <ele>66.2</ele>
        <time>2018-01-15T18:41:14Z</time>
      </trkpt>
      <trkpt lat="62.631585974171" lon="17.973328118922">
        <ele>66.2</ele>
        <time>2018-01-15T18:41:15Z</time>
      </trkpt>
      <trkpt lat="62.631563929774" lon="17.973284030128">
        <ele>66.2</ele>
        <time>2018-01-15T18:41:16Z</time>
      </trkpt>
      <trkpt lat="62.631543058843" lon="17.973229463959">
        <ele>66.2</ele>
        <time>2018-01-15T18:41:17Z</time>
      </trkpt>
      <trkpt lat="62.631522020274" lon="17.973178334369">
        <ele>66.2</ele>
        <time>2018-01-15T18:41:18Z</time>
      </trkpt>
      <trkpt lat="62.631504502103" lon="17.97313131191">
        <ele>66</ele>
        <time>2018-01-15T18:41:19Z</time>
      </trkpt>
      <trkpt lat="62.631482709163" lon="17.973083451261">
        <ele>66</ele>
        <time>2018-01-15T18:41:20Z</time>
      </trkpt>
      <trkpt lat="62.631459239843" lon="17.973025197056">
        <ele>65.8</ele>
        <time>2018-01-15T18:41:21Z</time>
      </trkpt>
      <trkpt lat="62.631436776351" lon="17.972972139629">
        <ele>65.6</ele>
        <time>2018-01-15T18:41:22Z</time>
      </trkpt>
      <trkpt lat="62.631416911248" lon="17.972922518781">
        <ele>65.4</ele>
        <time>2018-01-15T18:41:23Z</time>
      </trkpt>
      <trkpt lat="62.631396124136" lon="17.97285890016">
        <ele>65.4</ele>
        <time>2018-01-15T18:41:24Z</time>
      </trkpt>
      <trkpt lat="62.631372822454" lon="17.972803998715">
        <ele>65.4</ele>
        <time>2018-01-15T18:41:25Z</time>
      </trkpt>
      <trkpt lat="62.631352873532" lon="17.972745828329">
        <ele>65.4</ele>
        <time>2018-01-15T18:41:26Z</time>
      </trkpt>
      <trkpt lat="62.631329488031" lon="17.972690507789">
        <ele>65.2</ele>
        <time>2018-01-15T18:41:27Z</time>
      </trkpt>
      <trkpt lat="62.631310042023" lon="17.972629906652">
        <ele>65</ele>
        <time>2018-01-15T18:41:28Z</time>
      </trkpt>
      <trkpt lat="62.631286069789" lon="17.972573412646">
        <ele>64.8</ele>
        <time>2018-01-15T18:41:29Z</time>
      </trkpt>
      <trkpt lat="62.631265701772" lon="17.972514823165">
        <ele>64.6</ele>
        <time>2018-01-15T18:41:30Z</time>
      </trkpt>
      <trkpt lat="62.631243489737" lon="17.972457323331">
        <ele>64.4</ele>
        <time>2018-01-15T18:41:31Z</time>
      </trkpt>
      <trkpt lat="62.631220774788" lon="17.972390435769">
        <ele>64.2</ele>
        <time>2018-01-15T18:41:32Z</time>
      </trkpt>
      <trkpt lat="62.63120216697" lon="17.972323883483">
        <ele>64</ele>
        <time>2018-01-15T18:41:33Z</time>
      </trkpt>
      <trkpt lat="62.631185486989" lon="17.972262444156">
        <ele>63.6</ele>
        <time>2018-01-15T18:41:34Z</time>
      </trkpt>
      <trkpt lat="62.631171908311" lon="17.972203519399">
        <ele>63.6</ele>
        <time>2018-01-15T18:41:35Z</time>
      </trkpt>
      <trkpt lat="62.631153719588" lon="17.972125064815">
        <ele>63.2</ele>
        <time>2018-01-15T18:41:36Z</time>
      </trkpt>
      <trkpt lat="62.631142571661" lon="17.972059853633">
        <ele>63.2</ele>
        <time>2018-01-15T18:41:37Z</time>
      </trkpt>
      <trkpt lat="62.631130166449" lon="17.972000509781">
        <ele>63</ele>
        <time>2018-01-15T18:41:38Z</time>
      </trkpt>
      <trkpt lat="62.631113067373" lon="17.971933957495">
        <ele>62.8</ele>
        <time>2018-01-15T18:41:39Z</time>
      </trkpt>
      <trkpt lat="62.631098650505" lon="17.971875116557">
        <ele>62.8</ele>
        <time>2018-01-15T18:41:40Z</time>
      </trkpt>
      <trkpt lat="62.63107979123" lon="17.971793979765">
        <ele>62.6</ele>
        <time>2018-01-15T18:41:41Z</time>
      </trkpt>
      <trkpt lat="62.631061518688" lon="17.971726170194">
        <ele>62.6</ele>
        <time>2018-01-15T18:41:42Z</time>
      </trkpt>
      <trkpt lat="62.631045509259" lon="17.971645871592">
        <ele>62.4</ele>
        <time>2018-01-15T18:41:43Z</time>
      </trkpt>
      <trkpt lat="62.631026482346" lon="17.971572865243">
        <ele>62.4</ele>
        <time>2018-01-15T18:41:44Z</time>
      </trkpt>
      <trkpt lat="62.631012819849" lon="17.971509330441">
        <ele>62.4</ele>
        <time>2018-01-15T18:41:45Z</time>
      </trkpt>
      <trkpt lat="62.631000917551" lon="17.971435485902">
        <ele>62.4</ele>
        <time>2018-01-15T18:41:46Z</time>
      </trkpt>
      <trkpt lat="62.630980214258" lon="17.971358791517">
        <ele>62.2</ele>
        <time>2018-01-15T18:41:47Z</time>
      </trkpt>
      <trkpt lat="62.630970072159" lon="17.971283438236">
        <ele>62</ele>
        <time>2018-01-15T18:41:48Z</time>
      </trkpt>
      <trkpt lat="62.630960935888" lon="17.971208168774">
        <ele>61.8</ele>
        <time>2018-01-15T18:41:49Z</time>
      </trkpt>
      <trkpt lat="62.630953811273" lon="17.971139688651">
        <ele>61.6</ele>
        <time>2018-01-15T18:41:50Z</time>
      </trkpt>
      <trkpt lat="62.630942495708" lon="17.971060228239">
        <ele>61.6</ele>
        <time>2018-01-15T18:41:51Z</time>
      </trkpt>
      <trkpt lat="62.630936376921" lon="17.970982863302">
        <ele>61.4</ele>
        <time>2018-01-15T18:41:52Z</time>
      </trkpt>
      <trkpt lat="62.630928162659" lon="17.970918238853">
        <ele>61.2</ele>
        <time>2018-01-15T18:41:53Z</time>
      </trkpt>
      <trkpt lat="62.630917014732" lon="17.970833581663">
        <ele>61</ele>
        <time>2018-01-15T18:41:54Z</time>
      </trkpt>
      <trkpt lat="62.63091382961" lon="17.970758647477">
        <ele>61</ele>
        <time>2018-01-15T18:41:55Z</time>
      </trkpt>
      <trkpt lat="62.630907291728" lon="17.970678432694">
        <ele>61</ele>
        <time>2018-01-15T18:41:56Z</time>
      </trkpt>
      <trkpt lat="62.630898323095" lon="17.970600229567">
        <ele>61</ele>
        <time>2018-01-15T18:41:57Z</time>
      </trkpt>
      <trkpt lat="62.630893042498" lon="17.970527307037">
        <ele>61</ele>
        <time>2018-01-15T18:41:58Z</time>
      </trkpt>
      <trkpt lat="62.63088449296" lon="17.970456731439">
        <ele>60.8</ele>
        <time>2018-01-15T18:41:59Z</time>
      </trkpt>
      <trkpt lat="62.63087862563" lon="17.970396549397">
        <ele>60.4</ele>
        <time>2018-01-15T18:42:00Z</time>
      </trkpt>
      <trkpt lat="62.630870327549" lon="17.970276520589">
        <ele>60.2</ele>
        <time>2018-01-15T18:42:02Z</time>
      </trkpt>
      <trkpt lat="62.630868315893" lon="17.970227318836">
        <ele>60.2</ele>
        <time>2018-01-15T18:42:03Z</time>
      </trkpt>
      <trkpt lat="62.630868148255" lon="17.970192869227">
        <ele>60</ele>
        <time>2018-01-15T18:42:04Z</time>
      </trkpt>
      <trkpt lat="62.630870327549" lon="17.97016747207">
        <ele>60.2</ele>
        <time>2018-01-15T18:42:05Z</time>
      </trkpt>
      <trkpt lat="62.630873931766" lon="17.970135201755">
        <ele>60.6</ele>
        <time>2018-01-15T18:42:06Z</time>
      </trkpt>
      <trkpt lat="62.630877703621" lon="17.970114833738">
        <ele>61</ele>
        <time>2018-01-15T18:42:07Z</time>
      </trkpt>
      <trkpt lat="62.63088365477" lon="17.970099494861">
        <ele>61.4</ele>
        <time>2018-01-15T18:42:08Z</time>
      </trkpt>
      <trkpt lat="62.630899748018" lon="17.970098069938">
        <ele>61.4</ele>
        <time>2018-01-15T18:42:09Z</time>
      </trkpt>
      <trkpt lat="62.630896059982" lon="17.970100500689">
        <ele>61.4</ele>
        <time>2018-01-15T18:42:10Z</time>
      </trkpt>
      <trkpt lat="62.630909806298" lon="17.970115169014">
        <ele>61.4</ele>
        <time>2018-01-15T18:42:11Z</time>
      </trkpt>
      <trkpt lat="62.630911147402" lon="17.970129166787">
        <ele>61.4</ele>
        <time>2018-01-15T18:42:12Z</time>
      </trkpt>
      <trkpt lat="62.63091047685" lon="17.97014567913">
        <ele>61</ele>
        <time>2018-01-15T18:42:13Z</time>
      </trkpt>
      <trkpt lat="62.630909554841" lon="17.970148026062">
        <ele>60.4</ele>
        <time>2018-01-15T18:42:14Z</time>
      </trkpt>
      <trkpt lat="62.630910141574" lon="17.970159425446">
        <ele>59.8</ele>
        <time>2018-01-15T18:42:15Z</time>
      </trkpt>
      <trkpt lat="62.630913745791" lon="17.97016663388">
        <ele>59.4</ele>
        <time>2018-01-15T18:42:16Z</time>
      </trkpt>
      <trkpt lat="62.631103176731" lon="17.970020705001">
        <ele>60.4</ele>
        <time>2018-01-15T18:43:01Z</time>
      </trkpt>
      <trkpt lat="62.631126897508" lon="17.970009389436">
        <ele>60.4</ele>
        <time>2018-01-15T18:43:02Z</time>
      </trkpt>
      <trkpt lat="62.631148858086" lon="17.970000420803">
        <ele>60.2</ele>
        <time>2018-01-15T18:43:03Z</time>
      </trkpt>
      <trkpt lat="62.631168807008" lon="17.969989272876">
        <ele>60</ele>
        <time>2018-01-15T18:43:04Z</time>
      </trkpt>
      <trkpt lat="62.631188085378" lon="17.969982902632">
        <ele>59.8</ele>
        <time>2018-01-15T18:43:05Z</time>
      </trkpt>
      <trkpt lat="62.631217841123" lon="17.969961696425">
        <ele>59.8</ele>
        <time>2018-01-15T18:43:06Z</time>
      </trkpt>
      <trkpt lat="62.631238460597" lon="17.969951470507">
        <ele>59.4</ele>
        <time>2018-01-15T18:43:07Z</time>
      </trkpt>
      <trkpt lat="62.63126167846" lon="17.969943759159">
        <ele>59.4</ele>
        <time>2018-01-15T18:43:08Z</time>
      </trkpt>
      <trkpt lat="62.631283052305" lon="17.969938562381">
        <ele>59.4</ele>
        <time>2018-01-15T18:43:09Z</time>
      </trkpt>
      <trkpt lat="62.631307862729" lon="17.969923474961">
        <ele>59.4</ele>
        <time>2018-01-15T18:43:10Z</time>
      </trkpt>
      <trkpt lat="62.631329404212" lon="17.969911656482">
        <ele>59.2</ele>
        <time>2018-01-15T18:43:11Z</time>
      </trkpt>
      <trkpt lat="62.631350945695" lon="17.969896569062">
        <ele>59.2</ele>
        <time>2018-01-15T18:43:12Z</time>
      </trkpt>
      <trkpt lat="62.631373828282" lon="17.969883996212">
        <ele>59.2</ele>
        <time>2018-01-15T18:43:13Z</time>
      </trkpt>
      <trkpt lat="62.631396459412" lon="17.969874357027">
        <ele>59.2</ele>
        <time>2018-01-15T18:43:14Z</time>
      </trkpt>
      <trkpt lat="62.631413726126" lon="17.969881062547">
        <ele>59.2</ele>
        <time>2018-01-15T18:43:15Z</time>
      </trkpt>
      <trkpt lat="62.631440548206" lon="17.969860275435">
        <ele>59</ele>
        <time>2018-01-15T18:43:16Z</time>
      </trkpt>
      <trkpt lat="62.631465274811" lon="17.969844182187">
        <ele>59</ele>
        <time>2018-01-15T18:43:17Z</time>
      </trkpt>
      <trkpt lat="62.631488241217" lon="17.969828088939">
        <ele>59</ele>
        <time>2018-01-15T18:43:18Z</time>
      </trkpt>
      <trkpt lat="62.631509447424" lon="17.969814174985">
        <ele>59</ele>
        <time>2018-01-15T18:43:19Z</time>
      </trkpt>
      <trkpt lat="62.631536185685" lon="17.969795399529">
        <ele>58.8</ele>
        <time>2018-01-15T18:43:20Z</time>
      </trkpt>
      <trkpt lat="62.631558900634" lon="17.969781234118">
        <ele>58.8</ele>
        <time>2018-01-15T18:43:21Z</time>
      </trkpt>
      <trkpt lat="62.631582453773" lon="17.969763045395">
        <ele>58.8</ele>
        <time>2018-01-15T18:43:22Z</time>
      </trkpt>
      <trkpt lat="62.631611706604" lon="17.969741420093">
        <ele>58.6</ele>
        <time>2018-01-15T18:43:23Z</time>
      </trkpt>
      <trkpt lat="62.631635427381" lon="17.969722728456">
        <ele>58.4</ele>
        <time>2018-01-15T18:43:24Z</time>
      </trkpt>
      <trkpt lat="62.63166233328" lon="17.96969389472">
        <ele>58.4</ele>
        <time>2018-01-15T18:43:25Z</time>
      </trkpt>
      <trkpt lat="62.631698291631" lon="17.969659780387">
        <ele>58.4</ele>
        <time>2018-01-15T18:43:27Z</time>
      </trkpt>
      <trkpt lat="62.63171178649" lon="17.969630024642">
        <ele>58.4</ele>
        <time>2018-01-15T18:43:28Z</time>
      </trkpt>
      <trkpt lat="62.631742128968" lon="17.969587193133">
        <ele>58.4</ele>
        <time>2018-01-15T18:43:29Z</time>
      </trkpt>
      <trkpt lat="62.631761994071" lon="17.969565232555">
        <ele>58.4</ele>
        <time>2018-01-15T18:43:30Z</time>
      </trkpt>
      <trkpt lat="62.631784373744" lon="17.969542266149">
        <ele>58.4</ele>
        <time>2018-01-15T18:43:31Z</time>
      </trkpt>
      <trkpt lat="62.631815973507" lon="17.969526591996">
        <ele>58.2</ele>
        <time>2018-01-15T18:43:32Z</time>
      </trkpt>
      <trkpt lat="62.631842795587" lon="17.969523071598">
        <ele>58</ele>
        <time>2018-01-15T18:43:33Z</time>
      </trkpt>
      <trkpt lat="62.631868025106" lon="17.969526508177">
        <ele>58</ele>
        <time>2018-01-15T18:43:34Z</time>
      </trkpt>
      <trkpt lat="62.631889818046" lon="17.969528184557">
        <ele>57.8</ele>
        <time>2018-01-15T18:43:35Z</time>
      </trkpt>
      <trkpt lat="62.631916640126" lon="17.96952877129">
        <ele>57.6</ele>
        <time>2018-01-15T18:43:36Z</time>
      </trkpt>
      <trkpt lat="62.631943294568" lon="17.969533884249">
        <ele>57.4</ele>
        <time>2018-01-15T18:43:37Z</time>
      </trkpt>
      <trkpt lat="62.631964668413" lon="17.969531621136">
        <ele>57.4</ele>
        <time>2018-01-15T18:43:38Z</time>
      </trkpt>
      <trkpt lat="62.631989395018" lon="17.969529358023">
        <ele>57.2</ele>
        <time>2018-01-15T18:43:39Z</time>
      </trkpt>
      <trkpt lat="62.63201102032" lon="17.969526591996">
        <ele>57.4</ele>
        <time>2018-01-15T18:43:40Z</time>
      </trkpt>
      <trkpt lat="62.632038429133" lon="17.969519718838">
        <ele>57.4</ele>
        <time>2018-01-15T18:43:41Z</time>
      </trkpt>
      <trkpt lat="62.63206466448" lon="17.969515611707">
        <ele>57.6</ele>
        <time>2018-01-15T18:43:42Z</time>
      </trkpt>
      <trkpt lat="62.632090229275" lon="17.969506810712">
        <ele>57.8</ele>
        <time>2018-01-15T18:43:43Z</time>
      </trkpt>
      <trkpt lat="62.632114620604" lon="17.969498093536">
        <ele>58</ele>
        <time>2018-01-15T18:43:44Z</time>
      </trkpt>
      <trkpt lat="62.6321384252" lon="17.969493483491">
        <ele>58.2</ele>
        <time>2018-01-15T18:43:45Z</time>
      </trkpt>
      <trkpt lat="62.632163738538" lon="17.969491807111">
        <ele>58.2</ele>
        <time>2018-01-15T18:43:46Z</time>
      </trkpt>
      <trkpt lat="62.632193410464" lon="17.969488705808">
        <ele>58.4</ele>
        <time>2018-01-15T18:43:47Z</time>
      </trkpt>
      <trkpt lat="62.632220986915" lon="17.969483844306">
        <ele>58.6</ele>
        <time>2018-01-15T18:43:48Z</time>
      </trkpt>
      <trkpt lat="62.632245629701" lon="17.969477474062">
        <ele>58.6</ele>
        <time>2018-01-15T18:43:49Z</time>
      </trkpt>
      <trkpt lat="62.632270943039" lon="17.969468170153">
        <ele>58.6</ele>
        <time>2018-01-15T18:43:50Z</time>
      </trkpt>
      <trkpt lat="62.632305141191" lon="17.969461129357">
        <ele>58.4</ele>
        <time>2018-01-15T18:43:51Z</time>
      </trkpt>
      <trkpt lat="62.632329113425" lon="17.969454423837">
        <ele>58.2</ele>
        <time>2018-01-15T18:43:52Z</time>
      </trkpt>
      <trkpt lat="62.632349565261" lon="17.96945333419">
        <ele>58.2</ele>
        <time>2018-01-15T18:43:53Z</time>
      </trkpt>
      <trkpt lat="62.632380829748" lon="17.969453585647">
        <ele>58.2</ele>
        <time>2018-01-15T18:43:54Z</time>
      </trkpt>
      <trkpt lat="62.632401197765" lon="17.969452915095">
        <ele>58.4</ele>
        <time>2018-01-15T18:43:55Z</time>
      </trkpt>
      <trkpt lat="62.632431288786" lon="17.969454004742">
        <ele>58.4</ele>
        <time>2018-01-15T18:43:56Z</time>
      </trkpt>
      <trkpt lat="62.632458194685" lon="17.969456435493">
        <ele>58.4</ele>
        <time>2018-01-15T18:43:57Z</time>
      </trkpt>
      <trkpt lat="62.632481664005" lon="17.969453669466">
        <ele>58.4</ele>
        <time>2018-01-15T18:43:58Z</time>
      </trkpt>
      <trkpt lat="62.632506893524" lon="17.96945417238">
        <ele>58.4</ele>
        <time>2018-01-15T18:43:59Z</time>
      </trkpt>
      <trkpt lat="62.632529357016" lon="17.969457441321">
        <ele>58.2</ele>
        <time>2018-01-15T18:44:00Z</time>
      </trkpt>
      <trkpt lat="62.632552071965" lon="17.969456770769">
        <ele>58.2</ele>
        <time>2018-01-15T18:44:01Z</time>
      </trkpt>
      <trkpt lat="62.632582582081" lon="17.969464398298">
        <ele>58</ele>
        <time>2018-01-15T18:44:02Z</time>
      </trkpt>
      <trkpt lat="62.632606721953" lon="17.969464985031">
        <ele>58</ele>
        <time>2018-01-15T18:44:03Z</time>
      </trkpt>
      <trkpt lat="62.632629353083" lon="17.969466158497">
        <ele>58</ele>
        <time>2018-01-15T18:44:04Z</time>
      </trkpt>
      <trkpt lat="62.632651313661" lon="17.969473618388">
        <ele>58.2</ele>
        <time>2018-01-15T18:44:05Z</time>
      </trkpt>
      <trkpt lat="62.632680482673" lon="17.969478396071">
        <ele>58.2</ele>
        <time>2018-01-15T18:44:06Z</time>
      </trkpt>
      <trkpt lat="62.632707220934" lon="17.969481078279">
        <ele>58.2</ele>
        <time>2018-01-15T18:44:07Z</time>
      </trkpt>
      <trkpt lat="62.632728594779" lon="17.969486275057">
        <ele>58.2</ele>
        <time>2018-01-15T18:44:08Z</time>
      </trkpt>
      <trkpt lat="62.632754159574" lon="17.969495327509">
        <ele>58.4</ele>
        <time>2018-01-15T18:44:09Z</time>
      </trkpt>
      <trkpt lat="62.632775114324" lon="17.969499853735">
        <ele>58.4</ele>
        <time>2018-01-15T18:44:10Z</time>
      </trkpt>
      <trkpt lat="62.632804031879" lon="17.969504631418">
        <ele>58.4</ele>
        <time>2018-01-15T18:44:11Z</time>
      </trkpt>
      <trkpt lat="62.632827501199" lon="17.969508403273">
        <ele>58.4</ele>
        <time>2018-01-15T18:44:12Z</time>
      </trkpt>
      <trkpt lat="62.632854574736" lon="17.969517120449">
        <ele>58.6</ele>
        <time>2018-01-15T18:44:13Z</time>
      </trkpt>
      <trkpt lat="62.632878714608" lon="17.969520054114">
        <ele>58.6</ele>
        <time>2018-01-15T18:44:14Z</time>
      </trkpt>
      <trkpt lat="62.632899920815" lon="17.969522484865">
        <ele>58.8</ele>
        <time>2018-01-15T18:44:15Z</time>
      </trkpt>
      <trkpt lat="62.632926072343" lon="17.969526005263">
        <ele>59</ele>
        <time>2018-01-15T18:44:16Z</time>
      </trkpt>
      <trkpt lat="62.632955157536" lon="17.969533213697">
        <ele>59.2</ele>
        <time>2018-01-15T18:44:17Z</time>
      </trkpt>
      <trkpt lat="62.632977285752" lon="17.969536482638">
        <ele>59.2</ele>
        <time>2018-01-15T18:44:18Z</time>
      </trkpt>
      <trkpt lat="62.633001844719" lon="17.969546792375">
        <ele>59.4</ele>
        <time>2018-01-15T18:44:19Z</time>
      </trkpt>
      <trkpt lat="62.633020703994" lon="17.969550731868">
        <ele>59.4</ele>
        <time>2018-01-15T18:44:20Z</time>
      </trkpt>
      <trkpt lat="62.633048950997" lon="17.969551570058">
        <ele>59.4</ele>
        <time>2018-01-15T18:44:21Z</time>
      </trkpt>
      <trkpt lat="62.63307384524" lon="17.969556347741">
        <ele>59.6</ele>
        <time>2018-01-15T18:44:22Z</time>
      </trkpt>
      <trkpt lat="62.633094380895" lon="17.969561879795">
        <ele>59.6</ele>
        <time>2018-01-15T18:44:23Z</time>
      </trkpt>
      <trkpt lat="62.633124388097" lon="17.969572021894">
        <ele>59.6</ele>
        <time>2018-01-15T18:44:24Z</time>
      </trkpt>
      <trkpt lat="62.633148360331" lon="17.969580236156">
        <ele>59.6</ele>
        <time>2018-01-15T18:44:25Z</time>
      </trkpt>
      <trkpt lat="62.633174344221" lon="17.969584846201">
        <ele>59.6</ele>
        <time>2018-01-15T18:44:26Z</time>
      </trkpt>
      <trkpt lat="62.633200328111" lon="17.969588366599">
        <ele>59.6</ele>
        <time>2018-01-15T18:44:27Z</time>
      </trkpt>
      <trkpt lat="62.633225892906" lon="17.969592557549">
        <ele>59.8</ele>
        <time>2018-01-15T18:44:28Z</time>
      </trkpt>
      <trkpt lat="62.633249613683" lon="17.969589372427">
        <ele>59.6</ele>
        <time>2018-01-15T18:44:29Z</time>
      </trkpt>
      <trkpt lat="62.633271574261" lon="17.96958995916">
        <ele>59.6</ele>
        <time>2018-01-15T18:44:30Z</time>
      </trkpt>
      <trkpt lat="62.633298061065" lon="17.969578392138">
        <ele>59.8</ele>
        <time>2018-01-15T18:44:31Z</time>
      </trkpt>
      <trkpt lat="62.633317004159" lon="17.969558694673">
        <ele>59.6</ele>
        <time>2018-01-15T18:44:32Z</time>
      </trkpt>
      <trkpt lat="62.633331253389" lon="17.969531453498">
        <ele>59.8</ele>
        <time>2018-01-15T18:44:33Z</time>
      </trkpt>
      <trkpt lat="62.633338629461" lon="17.969497255346">
        <ele>59.8</ele>
        <time>2018-01-15T18:44:34Z</time>
      </trkpt>
      <trkpt lat="62.633342485135" lon="17.96946339247">
        <ele>59.8</ele>
        <time>2018-01-15T18:44:35Z</time>
      </trkpt>
      <trkpt lat="62.633347849551" lon="17.969419471314">
        <ele>59.8</ele>
        <time>2018-01-15T18:44:36Z</time>
      </trkpt>
      <trkpt lat="62.633352375777" lon="17.969369682828">
        <ele>59.8</ele>
        <time>2018-01-15T18:44:37Z</time>
      </trkpt>
      <trkpt lat="62.633355979994" lon="17.969330539355">
        <ele>60</ele>
        <time>2018-01-15T18:44:38Z</time>
      </trkpt>
      <trkpt lat="62.633359584211" lon="17.969271698417">
        <ele>60</ele>
        <time>2018-01-15T18:44:39Z</time>
      </trkpt>
      <trkpt lat="62.633363188428" lon="17.969227777261">
        <ele>60</ele>
        <time>2018-01-15T18:44:40Z</time>
      </trkpt>
      <trkpt lat="62.63336637355" lon="17.969168265771">
        <ele>60</ele>
        <time>2018-01-15T18:44:41Z</time>
      </trkpt>
      <trkpt lat="62.63337307907" lon="17.969120656579">
        <ele>59.8</ele>
        <time>2018-01-15T18:44:42Z</time>
      </trkpt>
      <trkpt lat="62.633378778762" lon="17.969066844781">
        <ele>59.8</ele>
        <time>2018-01-15T18:44:43Z</time>
      </trkpt>
      <trkpt lat="62.633382131522" lon="17.96901579901">
        <ele>59.6</ele>
        <time>2018-01-15T18:44:44Z</time>
      </trkpt>
      <trkpt lat="62.63338565192" lon="17.968967938361">
        <ele>59.4</ele>
        <time>2018-01-15T18:44:45Z</time>
      </trkpt>
      <trkpt lat="62.633391100155" lon="17.968904487378">
        <ele>59</ele>
        <time>2018-01-15T18:44:46Z</time>
      </trkpt>
      <trkpt lat="62.633397554218" lon="17.96885989567">
        <ele>58.6</ele>
        <time>2018-01-15T18:44:47Z</time>
      </trkpt>
      <trkpt lat="62.633401242254" lon="17.968810526279">
        <ele>58.6</ele>
        <time>2018-01-15T18:44:48Z</time>
      </trkpt>
      <trkpt lat="62.633407780136" lon="17.968760067241">
        <ele>58.2</ele>
        <time>2018-01-15T18:44:49Z</time>
      </trkpt>
      <trkpt lat="62.633412138724" lon="17.96871572699">
        <ele>58</ele>
        <time>2018-01-15T18:44:50Z</time>
      </trkpt>
      <trkpt lat="62.633417419321" lon="17.968661999011">
        <ele>58</ele>
        <time>2018-01-15T18:44:51Z</time>
      </trkpt>
      <trkpt lat="62.633425130669" lon="17.968608354851">
        <ele>57.6</ele>
        <time>2018-01-15T18:44:52Z</time>
      </trkpt>
      <trkpt lat="62.633429824533" lon="17.968563092591">
        <ele>57.6</ele>
        <time>2018-01-15T18:44:53Z</time>
      </trkpt>
      <trkpt lat="62.633433847845" lon="17.968504922205">
        <ele>57.4</ele>
        <time>2018-01-15T18:44:54Z</time>
      </trkpt>
      <trkpt lat="62.633438876985" lon="17.968455636633">
        <ele>57.4</ele>
        <time>2018-01-15T18:44:55Z</time>
      </trkpt>
      <trkpt lat="62.633445247229" lon="17.968399813179">
        <ele>57.2</ele>
        <time>2018-01-15T18:44:56Z</time>
      </trkpt>
      <trkpt lat="62.633450360188" lon="17.968351617254">
        <ele>56.8</ele>
        <time>2018-01-15T18:44:57Z</time>
      </trkpt>
      <trkpt lat="62.633455640785" lon="17.968307444641">
        <ele>56.6</ele>
        <time>2018-01-15T18:44:58Z</time>
      </trkpt>
      <trkpt lat="62.633460334649" lon="17.968254051938">
        <ele>56.4</ele>
        <time>2018-01-15T18:44:59Z</time>
      </trkpt>
      <trkpt lat="62.633464274142" lon="17.968206358927">
        <ele>56.4</ele>
        <time>2018-01-15T18:45:00Z</time>
      </trkpt>
      <trkpt lat="62.633473242775" lon="17.968148356179">
        <ele>56.2</ele>
        <time>2018-01-15T18:45:01Z</time>
      </trkpt>
      <trkpt lat="62.633480786485" lon="17.968102004272">
        <ele>56</ele>
        <time>2018-01-15T18:45:02Z</time>
      </trkpt>
      <trkpt lat="62.633489922756" lon="17.968048946845">
        <ele>56</ele>
        <time>2018-01-15T18:45:03Z</time>
      </trkpt>
      <trkpt lat="62.633503920529" lon="17.968003097852">
        <ele>56</ele>
        <time>2018-01-15T18:45:04Z</time>
      </trkpt>
      <trkpt lat="62.633519594682" lon="17.967966804225">
        <ele>55.8</ele>
        <time>2018-01-15T18:45:05Z</time>
      </trkpt>
      <trkpt lat="62.633538621595" lon="17.967914165893">
        <ele>55.6</ele>
        <time>2018-01-15T18:45:06Z</time>
      </trkpt>
      <trkpt lat="62.633554379567" lon="17.967874435687">
        <ele>55.4</ele>
        <time>2018-01-15T18:45:07Z</time>
      </trkpt>
      <trkpt lat="62.633568209702" lon="17.96783981844">
        <ele>55.2</ele>
        <time>2018-01-15T18:45:08Z</time>
      </trkpt>
      <trkpt lat="62.633581201647" lon="17.967793298895">
        <ele>54.8</ele>
        <time>2018-01-15T18:45:09Z</time>
      </trkpt>
      <trkpt lat="62.633588074805" lon="17.967747114626">
        <ele>54.8</ele>
        <time>2018-01-15T18:45:10Z</time>
      </trkpt>
      <trkpt lat="62.633596121429" lon="17.967685842937">
        <ele>54.4</ele>
        <time>2018-01-15T18:45:11Z</time>
      </trkpt>
      <trkpt lat="62.633603162225" lon="17.967638988116">
        <ele>54.2</ele>
        <time>2018-01-15T18:45:12Z</time>
      </trkpt>
      <trkpt lat="62.633609867745" lon="17.967580063359">
        <ele>54</ele>
        <time>2018-01-15T18:45:13Z</time>
      </trkpt>
      <trkpt lat="62.633616237989" lon="17.967519713679">
        <ele>53.8</ele>
        <time>2018-01-15T18:45:14Z</time>
      </trkpt>
      <trkpt lat="62.633620177482" lon="17.967477301265">
        <ele>53.8</ele>
        <time>2018-01-15T18:45:15Z</time>
      </trkpt>
      <trkpt lat="62.633629146115" lon="17.967417538318">
        <ele>53.6</ele>
        <time>2018-01-15T18:45:16Z</time>
      </trkpt>
      <trkpt lat="62.633636522187" lon="17.967356350448">
        <ele>53.4</ele>
        <time>2018-01-15T18:45:17Z</time>
      </trkpt>
      <trkpt lat="62.633640796956" lon="17.967303209202">
        <ele>53</ele>
        <time>2018-01-15T18:45:18Z</time>
      </trkpt>
      <trkpt lat="62.633644820268" lon="17.967247637205">
        <ele>52.6</ele>
        <time>2018-01-15T18:45:19Z</time>
      </trkpt>
      <trkpt lat="62.633652112521" lon="17.967199608918">
        <ele>52.4</ele>
        <time>2018-01-15T18:45:20Z</time>
      </trkpt>
      <trkpt lat="62.633660159145" lon="17.967133391908">
        <ele>52.2</ele>
        <time>2018-01-15T18:45:21Z</time>
      </trkpt>
      <trkpt lat="62.63366644557" lon="17.967083854879">
        <ele>52</ele>
        <time>2018-01-15T18:45:22Z</time>
      </trkpt>
      <trkpt lat="62.633673318728" lon="17.96703347966">
        <ele>51.8</ele>
        <time>2018-01-15T18:45:23Z</time>
      </trkpt>
      <trkpt lat="62.633681113895" lon="17.966973884351">
        <ele>51.8</ele>
        <time>2018-01-15T18:45:24Z</time>
      </trkpt>
      <trkpt lat="62.633686310673" lon="17.966924598779">
        <ele>51.6</ele>
        <time>2018-01-15T18:45:25Z</time>
      </trkpt>
      <trkpt lat="62.633693938202" lon="17.966860477244">
        <ele>51.6</ele>
        <time>2018-01-15T18:45:26Z</time>
      </trkpt>
      <trkpt lat="62.633699721713" lon="17.966807587455">
        <ele>51.4</ele>
        <time>2018-01-15T18:45:27Z</time>
      </trkpt>
      <trkpt lat="62.633704415577" lon="17.966750339078">
        <ele>51</ele>
        <time>2018-01-15T18:45:28Z</time>
      </trkpt>
      <trkpt lat="62.633712797477" lon="17.966690157036">
        <ele>51</ele>
        <time>2018-01-15T18:45:29Z</time>
      </trkpt>
      <trkpt lat="62.633718832445" lon="17.966640536188">
        <ele>50.6</ele>
        <time>2018-01-15T18:45:30Z</time>
      </trkpt>
      <trkpt lat="62.63372344249" lon="17.966572391341">
        <ele>50.4</ele>
        <time>2018-01-15T18:45:31Z</time>
      </trkpt>
      <trkpt lat="62.633730902381" lon="17.966514137136">
        <ele>50.2</ele>
        <time>2018-01-15T18:45:32Z</time>
      </trkpt>
      <trkpt lat="62.63373685353" lon="17.966468204324">
        <ele>50</ele>
        <time>2018-01-15T18:45:33Z</time>
      </trkpt>
      <trkpt lat="62.633744313421" lon="17.966402993142">
        <ele>49.8</ele>
        <time>2018-01-15T18:45:34Z</time>
      </trkpt>
      <trkpt lat="62.633749929294" lon="17.966353037018">
        <ele>49.6</ele>
        <time>2018-01-15T18:45:35Z</time>
      </trkpt>
      <trkpt lat="62.633758478832" lon="17.966286568551">
        <ele>49.4</ele>
        <time>2018-01-15T18:45:36Z</time>
      </trkpt>
      <trkpt lat="62.633763759429" lon="17.966232002382">
        <ele>49</ele>
        <time>2018-01-15T18:45:37Z</time>
      </trkpt>
      <trkpt lat="62.633769794397" lon="17.966181710982">
        <ele>48.8</ele>
        <time>2018-01-15T18:45:38Z</time>
      </trkpt>
      <trkpt lat="62.633773985347" lon="17.966117840904">
        <ele>48.4</ele>
        <time>2018-01-15T18:45:39Z</time>
      </trkpt>
      <trkpt lat="62.63377624846" lon="17.966072411006">
        <ele>48.2</ele>
        <time>2018-01-15T18:45:40Z</time>
      </trkpt>
      <trkpt lat="62.633781780514" lon="17.966001416313">
        <ele>47.8</ele>
        <time>2018-01-15T18:45:41Z</time>
      </trkpt>
      <trkpt lat="62.633782618704" lon="17.965945006126">
        <ele>47.6</ele>
        <time>2018-01-15T18:45:42Z</time>
      </trkpt>
      <trkpt lat="62.633784211265" lon="17.965887171016">
        <ele>47.4</ele>
        <time>2018-01-15T18:45:43Z</time>
      </trkpt>
      <trkpt lat="62.633788486034" lon="17.965827240431">
        <ele>47.2</ele>
        <time>2018-01-15T18:45:44Z</time>
      </trkpt>
      <trkpt lat="62.633790665328" lon="17.965778793049">
        <ele>47</ele>
        <time>2018-01-15T18:45:45Z</time>
      </trkpt>
      <trkpt lat="62.633790749147" lon="17.96571500679">
        <ele>47</ele>
        <time>2018-01-15T18:45:46Z</time>
      </trkpt>
      <trkpt lat="62.633791922613" lon="17.965657255499">
        <ele>47</ele>
        <time>2018-01-15T18:45:47Z</time>
      </trkpt>
      <trkpt lat="62.633791000604" lon="17.965604617167">
        <ele>46.8</ele>
        <time>2018-01-15T18:45:48Z</time>
      </trkpt>
      <trkpt lat="62.633789910957" lon="17.965554577224">
        <ele>46.8</ele>
        <time>2018-01-15T18:45:49Z</time>
      </trkpt>
      <trkpt lat="62.63378882131" lon="17.965507387127">
        <ele>46.6</ele>
        <time>2018-01-15T18:45:50Z</time>
      </trkpt>
      <trkpt lat="62.633786725835" lon="17.965453910605">
        <ele>46.6</ele>
        <time>2018-01-15T18:45:51Z</time>
      </trkpt>
      <trkpt lat="62.633783456894" lon="17.965404541214">
        <ele>46.4</ele>
        <time>2018-01-15T18:45:52Z</time>
      </trkpt>
      <trkpt lat="62.633782702523" lon="17.965359446592">
        <ele>46.4</ele>
        <time>2018-01-15T18:45:53Z</time>
      </trkpt>
      <trkpt lat="62.633780271772" lon="17.965298258722">
        <ele>46.2</ele>
        <time>2018-01-15T18:45:54Z</time>
      </trkpt>
      <trkpt lat="62.633776499917" lon="17.965257438869">
        <ele>46</ele>
        <time>2018-01-15T18:45:55Z</time>
      </trkpt>
      <trkpt lat="62.633774236804" lon="17.96519700537">
        <ele>46</ele>
        <time>2018-01-15T18:45:56Z</time>
      </trkpt>
      <trkpt lat="62.63377205751" lon="17.96514839035">
        <ele>45.8</ele>
        <time>2018-01-15T18:45:57Z</time>
      </trkpt>
      <trkpt lat="62.633775997003" lon="17.965104133918">
        <ele>45.4</ele>
        <time>2018-01-15T18:45:58Z</time>
      </trkpt>
      <trkpt lat="62.633783624532" lon="17.965056021812">
        <ele>45.2</ele>
        <time>2018-01-15T18:45:59Z</time>
      </trkpt>
      <trkpt lat="62.633789910957" lon="17.965013777036">
        <ele>44.8</ele>
        <time>2018-01-15T18:46:00Z</time>
      </trkpt>
      <trkpt lat="62.633800304513" lon="17.964960468152">
        <ele>44.4</ele>
        <time>2018-01-15T18:46:01Z</time>
      </trkpt>
      <trkpt lat="62.633815559571" lon="17.964914116245">
        <ele>44</ele>
        <time>2018-01-15T18:46:02Z</time>
      </trkpt>
      <trkpt lat="62.633836430502" lon="17.964871452374">
        <ele>43.6</ele>
        <time>2018-01-15T18:46:03Z</time>
      </trkpt>
      <trkpt lat="62.633864342229" lon="17.964854604755">
        <ele>43.4</ele>
        <time>2018-01-15T18:46:04Z</time>
      </trkpt>
      <trkpt lat="62.633892170137" lon="17.964854018022">
        <ele>43.2</ele>
        <time>2018-01-15T18:46:05Z</time>
      </trkpt>
      <trkpt lat="62.633916477647" lon="17.96485586204">
        <ele>43.2</ele>
        <time>2018-01-15T18:46:06Z</time>
      </trkpt>
      <trkpt lat="62.633955202025" lon="17.964858125153">
        <ele>43.2</ele>
        <time>2018-01-15T18:46:07Z</time>
      </trkpt>
      <trkpt lat="62.633981353553" lon="17.964855275307">
        <ele>43</ele>
        <time>2018-01-15T18:46:08Z</time>
      </trkpt>
      <trkpt lat="62.634013372411" lon="17.9648592148">
        <ele>43</ele>
        <time>2018-01-15T18:46:09Z</time>
      </trkpt>
      <trkpt lat="62.634036674093" lon="17.96485502385">
        <ele>43</ele>
        <time>2018-01-15T18:46:10Z</time>
      </trkpt>
      <trkpt lat="62.634071961892" lon="17.964849407977">
        <ele>43</ele>
        <time>2018-01-15T18:46:11Z</time>
      </trkpt>
      <trkpt lat="62.634100460352" lon="17.964847396321">
        <ele>42.8</ele>
        <time>2018-01-15T18:46:12Z</time>
      </trkpt>
      <trkpt lat="62.634128791174" lon="17.964840355525">
        <ele>42.8</ele>
        <time>2018-01-15T18:46:13Z</time>
      </trkpt>
      <trkpt lat="62.634159049833" lon="17.964840439344">
        <ele>42.8</ele>
        <time>2018-01-15T18:46:14Z</time>
      </trkpt>
      <trkpt lat="62.634184866085" lon="17.964836667489">
        <ele>42.6</ele>
        <time>2018-01-15T18:46:15Z</time>
      </trkpt>
      <trkpt lat="62.634217052581" lon="17.964835829299">
        <ele>42.6</ele>
        <time>2018-01-15T18:46:16Z</time>
      </trkpt>
      <trkpt lat="62.634245970136" lon="17.964841361353">
        <ele>42.6</ele>
        <time>2018-01-15T18:46:17Z</time>
      </trkpt>
      <trkpt lat="62.634272037845" lon="17.964841948086">
        <ele>42.6</ele>
        <time>2018-01-15T18:46:18Z</time>
      </trkpt>
      <trkpt lat="62.634300703943" lon="17.964837505679">
        <ele>42.6</ele>
        <time>2018-01-15T18:46:19Z</time>
      </trkpt>
      <trkpt lat="62.634327023109" lon="17.964840187887">
        <ele>42.6</ele>
        <time>2018-01-15T18:46:20Z</time>
      </trkpt>
      <trkpt lat="62.634358706691" lon="17.964842702457">
        <ele>42.6</ele>
        <time>2018-01-15T18:46:21Z</time>
      </trkpt>
      <trkpt lat="62.63438645078" lon="17.964843624466">
        <ele>42.4</ele>
        <time>2018-01-15T18:46:22Z</time>
      </trkpt>
      <trkpt lat="62.634412015575" lon="17.96484412738">
        <ele>42.4</ele>
        <time>2018-01-15T18:46:23Z</time>
      </trkpt>
      <trkpt lat="62.634441184587" lon="17.964838930602">
        <ele>42.4</ele>
        <time>2018-01-15T18:46:24Z</time>
      </trkpt>
      <trkpt lat="62.634469850685" lon="17.964837254222">
        <ele>42.4</ele>
        <time>2018-01-15T18:46:25Z</time>
      </trkpt>
      <trkpt lat="62.634498935878" lon="17.964838343869">
        <ele>42.2</ele>
        <time>2018-01-15T18:46:26Z</time>
      </trkpt>
      <trkpt lat="62.634524919768" lon="17.964840523163">
        <ele>42.2</ele>
        <time>2018-01-15T18:46:27Z</time>
      </trkpt>
      <trkpt lat="62.63455325059" lon="17.964842702457">
        <ele>42.2</ele>
        <time>2018-01-15T18:46:28Z</time>
      </trkpt>
      <trkpt lat="62.634581832869" lon="17.964841528991">
        <ele>42</ele>
        <time>2018-01-15T18:46:29Z</time>
      </trkpt>
      <trkpt lat="62.634604128723" lon="17.964837840955">
        <ele>42</ele>
        <time>2018-01-15T18:46:30Z</time>
      </trkpt>
      <trkpt lat="62.634636399038" lon="17.96483658367">
        <ele>42</ele>
        <time>2018-01-15T18:46:31Z</time>
      </trkpt>
      <trkpt lat="62.63466305348" lon="17.964838930602">
        <ele>42</ele>
        <time>2018-01-15T18:46:32Z</time>
      </trkpt>
      <trkpt lat="62.634689791741" lon="17.964834404376">
        <ele>41.8</ele>
        <time>2018-01-15T18:46:33Z</time>
      </trkpt>
      <trkpt lat="62.634717284373" lon="17.96483574548">
        <ele>41.8</ele>
        <time>2018-01-15T18:46:34Z</time>
      </trkpt>
      <trkpt lat="62.634740250779" lon="17.964832476539">
        <ele>41.6</ele>
        <time>2018-01-15T18:46:35Z</time>
      </trkpt>
      <trkpt lat="62.634770174162" lon="17.964832225082">
        <ele>41.6</ele>
        <time>2018-01-15T18:46:36Z</time>
      </trkpt>
      <trkpt lat="62.634797918251" lon="17.964832811815">
        <ele>41.6</ele>
        <time>2018-01-15T18:46:37Z</time>
      </trkpt>
      <trkpt lat="62.634820046467" lon="17.964830967797">
        <ele>41.4</ele>
        <time>2018-01-15T18:46:38Z</time>
      </trkpt>
      <trkpt lat="62.634852735877" lon="17.964827195942">
        <ele>41.4</ele>
        <time>2018-01-15T18:46:39Z</time>
      </trkpt>
      <trkpt lat="62.634878887405" lon="17.964828956141">
        <ele>41.2</ele>
        <time>2018-01-15T18:46:40Z</time>
      </trkpt>
      <trkpt lat="62.634906212399" lon="17.964826609209">
        <ele>41</ele>
        <time>2018-01-15T18:46:41Z</time>
      </trkpt>
      <trkpt lat="62.634933118298" lon="17.96482065806">
        <ele>40.8</ele>
        <time>2018-01-15T18:46:42Z</time>
      </trkpt>
      <trkpt lat="62.634960108016" lon="17.964815712739">
        <ele>40.6</ele>
        <time>2018-01-15T18:46:43Z</time>
      </trkpt>
      <trkpt lat="62.634982906784" lon="17.964811940884">
        <ele>40.6</ele>
        <time>2018-01-15T18:46:44Z</time>
      </trkpt>
      <trkpt lat="62.635006040828" lon="17.964807917572">
        <ele>40.6</ele>
        <time>2018-01-15T18:46:45Z</time>
      </trkpt>
      <trkpt lat="62.635031186528" lon="17.964802134061">
        <ele>40.8</ele>
        <time>2018-01-15T18:46:46Z</time>
      </trkpt>
      <trkpt lat="62.635056248409" lon="17.964796518188">
        <ele>40.8</ele>
        <time>2018-01-15T18:46:47Z</time>
      </trkpt>
      <trkpt lat="62.635084914507" lon="17.964791489048">
        <ele>40.8</ele>
        <time>2018-01-15T18:46:48Z</time>
      </trkpt>
      <trkpt lat="62.635112742415" lon="17.964786795184">
        <ele>40.8</ele>
        <time>2018-01-15T18:46:49Z</time>
      </trkpt>
      <trkpt lat="62.635133948622" lon="17.964778245646">
        <ele>40.6</ele>
        <time>2018-01-15T18:46:50Z</time>
      </trkpt>
      <trkpt lat="62.635164039643" lon="17.9647753958">
        <ele>40.6</ele>
        <time>2018-01-15T18:46:51Z</time>
      </trkpt>
      <trkpt lat="62.635189855895" lon="17.964771707764">
        <ele>40.6</ele>
        <time>2018-01-15T18:46:52Z</time>
      </trkpt>
      <trkpt lat="62.635213911948" lon="17.964762236217">
        <ele>40.6</ele>
        <time>2018-01-15T18:46:53Z</time>
      </trkpt>
      <trkpt lat="62.635243164779" lon="17.964747986987">
        <ele>40.6</ele>
        <time>2018-01-15T18:46:54Z</time>
      </trkpt>
      <trkpt lat="62.635265460633" lon="17.964733234843">
        <ele>40.6</ele>
        <time>2018-01-15T18:46:55Z</time>
      </trkpt>
      <trkpt lat="62.635291779799" lon="17.96471839888">
        <ele>40.6</ele>
        <time>2018-01-15T18:46:56Z</time>
      </trkpt>
      <trkpt lat="62.63531767987" lon="17.964703982012">
        <ele>40.4</ele>
        <time>2018-01-15T18:46:57Z</time>
      </trkpt>
      <trkpt lat="62.635341484466" lon="17.964695516293">
        <ele>40.4</ele>
        <time>2018-01-15T18:46:58Z</time>
      </trkpt>
      <trkpt lat="62.635367552175" lon="17.964683865452">
        <ele>40.4</ele>
        <time>2018-01-15T18:46:59Z</time>
      </trkpt>
      <trkpt lat="62.635394458074" lon="17.964674561543">
        <ele>40.4</ele>
        <time>2018-01-15T18:47:00Z</time>
      </trkpt>
      <trkpt lat="62.635420944878" lon="17.964661821055">
        <ele>40.4</ele>
        <time>2018-01-15T18:47:01Z</time>
      </trkpt>
      <trkpt lat="62.635446844949" lon="17.964650924585">
        <ele>40.4</ele>
        <time>2018-01-15T18:47:02Z</time>
      </trkpt>
      <trkpt lat="62.635474505219" lon="17.964640111934">
        <ele>40.4</ele>
        <time>2018-01-15T18:47:03Z</time>
      </trkpt>
      <trkpt lat="62.635499315643" lon="17.964624773057">
        <ele>40.4</ele>
        <time>2018-01-15T18:47:04Z</time>
      </trkpt>
      <trkpt lat="62.635525802447" lon="17.964609601818">
        <ele>40.2</ele>
        <time>2018-01-15T18:47:05Z</time>
      </trkpt>
      <trkpt lat="62.635554468545" lon="17.964592418923">
        <ele>40.2</ele>
        <time>2018-01-15T18:47:06Z</time>
      </trkpt>
      <trkpt lat="62.635578021684" lon="17.964578672607">
        <ele>40.2</ele>
        <time>2018-01-15T18:47:07Z</time>
      </trkpt>
      <trkpt lat="62.635599982262" lon="17.964563585187">
        <ele>40</ele>
        <time>2018-01-15T18:47:08Z</time>
      </trkpt>
      <trkpt lat="62.63562781017" lon="17.96454489355">
        <ele>40.2</ele>
        <time>2018-01-15T18:47:09Z</time>
      </trkpt>
      <trkpt lat="62.635646669445" lon="17.964527459198">
        <ele>40</ele>
        <time>2018-01-15T18:47:10Z</time>
      </trkpt>
      <trkpt lat="62.635674413534" lon="17.964497032901">
        <ele>40</ele>
        <time>2018-01-15T18:47:11Z</time>
      </trkpt>
      <trkpt lat="62.635700648881" lon="17.964479347092">
        <ele>40.2</ele>
        <time>2018-01-15T18:47:12Z</time>
      </trkpt>
      <trkpt lat="62.635723866744" lon="17.964462080378">
        <ele>40.2</ele>
        <time>2018-01-15T18:47:13Z</time>
      </trkpt>
      <trkpt lat="62.635747922797" lon="17.964443137284">
        <ele>40</ele>
        <time>2018-01-15T18:47:14Z</time>
      </trkpt>
      <trkpt lat="62.635771559755" lon="17.964422936905">
        <ele>40.2</ele>
        <time>2018-01-15T18:47:15Z</time>
      </trkpt>
      <trkpt lat="62.635797795102" lon="17.964392426789">
        <ele>40.2</ele>
        <time>2018-01-15T18:47:16Z</time>
      </trkpt>
      <trkpt lat="62.635823443716" lon="17.964377087912">
        <ele>40.2</ele>
        <time>2018-01-15T18:47:17Z</time>
      </trkpt>
      <trkpt lat="62.635849259968" lon="17.964360659388">
        <ele>40.2</ele>
        <time>2018-01-15T18:47:18Z</time>
      </trkpt>
      <trkpt lat="62.635872226374" lon="17.964343308855">
        <ele>40.2</ele>
        <time>2018-01-15T18:47:19Z</time>
      </trkpt>
      <trkpt lat="62.635894941323" lon="17.964323779028">
        <ele>40</ele>
        <time>2018-01-15T18:47:20Z</time>
      </trkpt>
      <trkpt lat="62.635920757575" lon="17.964302153726">
        <ele>40</ele>
        <time>2018-01-15T18:47:21Z</time>
      </trkpt>
      <trkpt lat="62.63594213142" lon="17.964286563392">
        <ele>39.8</ele>
        <time>2018-01-15T18:47:22Z</time>
      </trkpt>
      <trkpt lat="62.635965684559" lon="17.964270470144">
        <ele>39.8</ele>
        <time>2018-01-15T18:47:23Z</time>
      </trkpt>
      <trkpt lat="62.63599074644" lon="17.964243564245">
        <ele>39.4</ele>
        <time>2018-01-15T18:47:24Z</time>
      </trkpt>
      <trkpt lat="62.636009857172" lon="17.964220681658">
        <ele>39.4</ele>
        <time>2018-01-15T18:47:25Z</time>
      </trkpt>
      <trkpt lat="62.63603433232" lon="17.964193272845">
        <ele>39.2</ele>
        <time>2018-01-15T18:47:26Z</time>
      </trkpt>
      <trkpt lat="62.636055706165" lon="17.964168378602">
        <ele>39</ele>
        <time>2018-01-15T18:47:27Z</time>
      </trkpt>
      <trkpt lat="62.63607540363" lon="17.964145412196">
        <ele>39</ele>
        <time>2018-01-15T18:47:28Z</time>
      </trkpt>
      <trkpt lat="62.636098370036" lon="17.964116243184">
        <ele>38.8</ele>
        <time>2018-01-15T18:47:29Z</time>
      </trkpt>
      <trkpt lat="62.636120498252" lon="17.964095204615">
        <ele>38.8</ele>
        <time>2018-01-15T18:47:30Z</time>
      </trkpt>
      <trkpt lat="62.636144805762" lon="17.964078273177">
        <ele>38.8</ele>
        <time>2018-01-15T18:47:31Z</time>
      </trkpt>
      <trkpt lat="62.636170286738" lon="17.964085984525">
        <ele>38.8</ele>
        <time>2018-01-15T18:47:32Z</time>
      </trkpt>
      <trkpt lat="62.636193001687" lon="17.96411154932">
        <ele>38.8</ele>
        <time>2018-01-15T18:47:33Z</time>
      </trkpt>
      <trkpt lat="62.636214124075" lon="17.964132252613">
        <ele>38.8</ele>
        <time>2018-01-15T18:47:34Z</time>
      </trkpt>
      <trkpt lat="62.636236922843" lon="17.964147340033">
        <ele>38.8</ele>
        <time>2018-01-15T18:47:35Z</time>
      </trkpt>
      <trkpt lat="62.636263242009" lon="17.964154213191">
        <ele>38.8</ele>
        <time>2018-01-15T18:47:36Z</time>
      </trkpt>
      <trkpt lat="62.636285286406" lon="17.964161673082">
        <ele>38.8</ele>
        <time>2018-01-15T18:47:37Z</time>
      </trkpt>
      <trkpt lat="62.636299032722" lon="17.964162846548">
        <ele>38.8</ele>
        <time>2018-01-15T18:47:38Z</time>
      </trkpt>
      <trkpt lat="62.636312443762" lon="17.964167540412">
        <ele>38.8</ele>
        <time>2018-01-15T18:47:39Z</time>
      </trkpt>
      <trkpt lat="62.636321160938" lon="17.96417525176">
        <ele>38.8</ele>
        <time>2018-01-15T18:47:40Z</time>
      </trkpt>
      <trkpt lat="62.636333733788" lon="17.964176760502">
        <ele>38.8</ele>
        <time>2018-01-15T18:47:41Z</time>
      </trkpt>
      <trkpt lat="62.636343540611" lon="17.964171982819">
        <ele>38.8</ele>
        <time>2018-01-15T18:47:42Z</time>
      </trkpt>
      <trkpt lat="62.636354437081" lon="17.964166450765">
        <ele>38.8</ele>
        <time>2018-01-15T18:47:43Z</time>
      </trkpt>
      <trkpt lat="62.63636541737" lon="17.964162762729">
        <ele>38.6</ele>
        <time>2018-01-15T18:47:44Z</time>
      </trkpt>
      <trkpt lat="62.636376146202" lon="17.964155302838">
        <ele>38.6</ele>
        <time>2018-01-15T18:47:45Z</time>
      </trkpt>
      <trkpt lat="62.636392826183" lon="17.964143735816">
        <ele>38.4</ele>
        <time>2018-01-15T18:47:46Z</time>
      </trkpt>
      <trkpt lat="62.63640732687" lon="17.964132168794">
        <ele>38.4</ele>
        <time>2018-01-15T18:47:47Z</time>
      </trkpt>
      <trkpt lat="62.636419815901" lon="17.9641216076">
        <ele>38.2</ele>
        <time>2018-01-15T18:47:48Z</time>
      </trkpt>
      <trkpt lat="62.636430377095" lon="17.964114650623">
        <ele>38</ele>
        <time>2018-01-15T18:47:49Z</time>
      </trkpt>
      <trkpt lat="62.636440183918" lon="17.96410819656">
        <ele>38</ele>
        <time>2018-01-15T18:47:50Z</time>
      </trkpt>
      <trkpt lat="62.636450577474" lon="17.964101826316">
        <ele>37.8</ele>
        <time>2018-01-15T18:47:51Z</time>
      </trkpt>
      <trkpt lat="62.63646097103" lon="17.964094114968">
        <ele>37.8</ele>
        <time>2018-01-15T18:47:52Z</time>
      </trkpt>
      <trkpt lat="62.636472202776" lon="17.964086906534">
        <ele>37.8</ele>
        <time>2018-01-15T18:47:53Z</time>
      </trkpt>
      <trkpt lat="62.636488044567" lon="17.964079362824">
        <ele>37.8</ele>
        <time>2018-01-15T18:47:54Z</time>
      </trkpt>
      <trkpt lat="62.636497264657" lon="17.964074836598">
        <ele>37.8</ele>
        <time>2018-01-15T18:47:55Z</time>
      </trkpt>
      <trkpt lat="62.636510675697" lon="17.964074501322">
        <ele>37.8</ele>
        <time>2018-01-15T18:47:56Z</time>
      </trkpt>
      <trkpt lat="62.636524002918" lon="17.964083721412">
        <ele>38</ele>
        <time>2018-01-15T18:47:57Z</time>
      </trkpt>
      <trkpt lat="62.636533390646" lon="17.964089253466">
        <ele>38.2</ele>
        <time>2018-01-15T18:47:58Z</time>
      </trkpt>
      <trkpt lat="62.636541772546" lon="17.964098473556">
        <ele>38.2</ele>
        <time>2018-01-15T18:47:59Z</time>
      </trkpt>
      <trkpt lat="62.636549316256" lon="17.96410819656">
        <ele>38.4</ele>
        <time>2018-01-15T18:48:00Z</time>
      </trkpt>
      <trkpt lat="62.636561889106" lon="17.964119428306">
        <ele>38.6</ele>
        <time>2018-01-15T18:48:01Z</time>
      </trkpt>
      <trkpt lat="62.636572701757" lon="17.964133593717">
        <ele>38.6</ele>
        <time>2018-01-15T18:48:02Z</time>
      </trkpt>
      <trkpt lat="62.636581251295" lon="17.964144993101">
        <ele>38.6</ele>
        <time>2018-01-15T18:48:03Z</time>
      </trkpt>
      <trkpt lat="62.636586364254" lon="17.964157482132">
        <ele>38.6</ele>
        <time>2018-01-15T18:48:04Z</time>
      </trkpt>
      <trkpt lat="62.636592147765" lon="17.964170641715">
        <ele>38.6</ele>
        <time>2018-01-15T18:48:05Z</time>
      </trkpt>
      <trkpt lat="62.63660178695" lon="17.964184639488">
        <ele>38.2</ele>
        <time>2018-01-15T18:48:06Z</time>
      </trkpt>
      <trkpt lat="62.636608408651" lon="17.964194111035">
        <ele>38</ele>
        <time>2018-01-15T18:48:07Z</time>
      </trkpt>
      <trkpt lat="62.636610671764" lon="17.964203331125">
        <ele>38</ele>
        <time>2018-01-15T18:48:08Z</time>
      </trkpt>
      <trkpt lat="62.636615952361" lon="17.964214981966">
        <ele>38</ele>
        <time>2018-01-15T18:48:09Z</time>
      </trkpt>
      <trkpt lat="62.636621652053" lon="17.964226632807">
        <ele>38</ele>
        <time>2018-01-15T18:48:10Z</time>
      </trkpt>
      <trkpt lat="62.636625675365" lon="17.964236020535">
        <ele>38.2</ele>
        <time>2018-01-15T18:48:11Z</time>
      </trkpt>
      <trkpt lat="62.636632045609" lon="17.964244402435">
        <ele>38.2</ele>
        <time>2018-01-15T18:48:12Z</time>
      </trkpt>
      <trkpt lat="62.636637661482" lon="17.964250018308">
        <ele>38.2</ele>
        <time>2018-01-15T18:48:13Z</time>
      </trkpt>
      <trkpt lat="62.636641265699" lon="17.964255298905">
        <ele>38.2</ele>
        <time>2018-01-15T18:48:14Z</time>
      </trkpt>
      <trkpt lat="62.636647216848" lon="17.964261501511">
        <ele>38.2</ele>
        <time>2018-01-15T18:48:15Z</time>
      </trkpt>
      <trkpt lat="62.636651575436" lon="17.964268207031">
        <ele>38.2</ele>
        <time>2018-01-15T18:48:16Z</time>
      </trkpt>
      <trkpt lat="62.636657778042" lon="17.964272062705">
        <ele>38.2</ele>
        <time>2018-01-15T18:48:17Z</time>
      </trkpt>
      <trkpt lat="62.636661466078" lon="17.964276421293">
        <ele>38</ele>
        <time>2018-01-15T18:48:18Z</time>
      </trkpt>
      <trkpt lat="62.63666716577" lon="17.964279857872">
        <ele>38</ele>
        <time>2018-01-15T18:48:19Z</time>
      </trkpt>
      <trkpt lat="62.636669345064" lon="17.964281450433">
        <ele>38.2</ele>
        <time>2018-01-15T18:48:20Z</time>
      </trkpt>
      <trkpt lat="62.636670434711" lon="17.964289664695">
        <ele>38.2</ele>
        <time>2018-01-15T18:48:21Z</time>
      </trkpt>
    </trkseg>
  </trk>
</gpx>